<?xml version="1.0" encoding="UTF-8" standalone="no" ?>
<gpx xmlns="http://www.topografix.com/GPX/1/1" xmlns:xsi="http://www.w3.org/2001/XMLSchema-instance" xsi:schemaLocation="http://www.topografix.com/GPX/1/1 http://www.topografix.com/GPX/1/1/gpx.xsd" version="1.1" creator="VisuGPX - https://www.visugpx.com">
  <metadata>
    <name>2019-05-30 11:08</name>
    <desc><![CDATA[Départ de Condrieux direction les crêtes de l'Oeillon via la croix duCollet]]></desc>
  </metadata>
  <trk>
    <name><![CDATA[2019-05-30 11:08]]></name>
    <desc><![CDATA[<p>Heure de départ: 05/30/2019 11:08<br/>Heure d'arrivée: 05/30/2019 17:42<br/>Distance: 49,9 km (06:33)<br/>Temps déplacement: 03:48<br/>Vitesse moyenne: 7,61 km/h<br/>Vitesse moyenne mouv.: 13,1 km/h<br/>Vitesse Max.: 48,53 km/h<br/>Altitude minimale: 77 m<br/>Altitude maximale: 1288 m<br/>Vitesse de montée: 325,9 m/h<br/>Vitesse de descente: -863,8 m/h<br/>Gain d'altitude: 1448 m<br/>Perte d'altitude: -1439 m<br/>Temps de montée: 04:26<br/>Temps de descente: 01:40<br/></p><hr align="center" width="480" style="height: 2px; width: 517px"/>]]></desc>
    <trkseg>
      <trkpt lat="45.46335" lon="4.76575">
        <ele>88.17</ele>
        <time>2019-05-30T09:08:34Z</time>
      </trkpt>
      <trkpt lat="45.46325" lon="4.766">
        <ele>88.16</ele>
        <time>2019-05-30T09:13:32Z</time>
      </trkpt>
      <trkpt lat="45.46308" lon="4.76613">
        <ele>87.44</ele>
        <time>2019-05-30T09:13:39Z</time>
      </trkpt>
      <trkpt lat="45.4629" lon="4.76604">
        <ele>87.03</ele>
        <time>2019-05-30T09:13:45Z</time>
      </trkpt>
      <trkpt lat="45.46274" lon="4.76618">
        <ele>86.1</ele>
        <time>2019-05-30T09:13:53Z</time>
      </trkpt>
      <trkpt lat="45.46253" lon="4.76628">
        <ele>85.46</ele>
        <time>2019-05-30T09:13:58Z</time>
      </trkpt>
      <trkpt lat="45.46242" lon="4.76653">
        <ele>84.97</ele>
        <time>2019-05-30T09:14:03Z</time>
      </trkpt>
      <trkpt lat="45.46226" lon="4.76666">
        <ele>84.51</ele>
        <time>2019-05-30T09:14:12Z</time>
      </trkpt>
      <trkpt lat="45.46209" lon="4.76683">
        <ele>83.67</ele>
        <time>2019-05-30T09:14:22Z</time>
      </trkpt>
      <trkpt lat="45.462" lon="4.76708">
        <ele>83.14</ele>
        <time>2019-05-30T09:14:29Z</time>
      </trkpt>
      <trkpt lat="45.46196" lon="4.76734">
        <ele>82.6</ele>
        <time>2019-05-30T09:14:34Z</time>
      </trkpt>
      <trkpt lat="45.4619" lon="4.76762">
        <ele>82.73</ele>
        <time>2019-05-30T09:14:39Z</time>
      </trkpt>
      <trkpt lat="45.46181" lon="4.76786">
        <ele>82.29</ele>
        <time>2019-05-30T09:14:46Z</time>
      </trkpt>
      <trkpt lat="45.46165" lon="4.76798">
        <ele>82.49</ele>
        <time>2019-05-30T09:14:55Z</time>
      </trkpt>
      <trkpt lat="45.46156" lon="4.76822">
        <ele>81.84</ele>
        <time>2019-05-30T09:15:00Z</time>
      </trkpt>
      <trkpt lat="45.46144" lon="4.76842">
        <ele>82.06</ele>
        <time>2019-05-30T09:15:04Z</time>
      </trkpt>
      <trkpt lat="45.46128" lon="4.76857">
        <ele>81.94</ele>
        <time>2019-05-30T09:15:08Z</time>
      </trkpt>
      <trkpt lat="45.46108" lon="4.76864">
        <ele>81.1</ele>
        <time>2019-05-30T09:15:12Z</time>
      </trkpt>
      <trkpt lat="45.46089" lon="4.76876">
        <ele>80.55</ele>
        <time>2019-05-30T09:15:16Z</time>
      </trkpt>
      <trkpt lat="45.46069" lon="4.76887">
        <ele>79.76</ele>
        <time>2019-05-30T09:15:20Z</time>
      </trkpt>
      <trkpt lat="45.46051" lon="4.76895">
        <ele>79.68</ele>
        <time>2019-05-30T09:15:24Z</time>
      </trkpt>
      <trkpt lat="45.4603" lon="4.76905">
        <ele>79.99</ele>
        <time>2019-05-30T09:15:29Z</time>
      </trkpt>
      <trkpt lat="45.46011" lon="4.76901">
        <ele>80.25</ele>
        <time>2019-05-30T09:15:36Z</time>
      </trkpt>
      <trkpt lat="45.45993" lon="4.76888">
        <ele>80.41</ele>
        <time>2019-05-30T09:15:41Z</time>
      </trkpt>
      <trkpt lat="45.45975" lon="4.76869">
        <ele>80.2</ele>
        <time>2019-05-30T09:15:46Z</time>
      </trkpt>
      <trkpt lat="45.45959" lon="4.76853">
        <ele>80.14</ele>
        <time>2019-05-30T09:15:50Z</time>
      </trkpt>
      <trkpt lat="45.4594" lon="4.7684">
        <ele>79.84</ele>
        <time>2019-05-30T09:15:54Z</time>
      </trkpt>
      <trkpt lat="45.45921" lon="4.76836">
        <ele>80</ele>
        <time>2019-05-30T09:15:58Z</time>
      </trkpt>
      <trkpt lat="45.459" lon="4.76839">
        <ele>80.11</ele>
        <time>2019-05-30T09:16:03Z</time>
      </trkpt>
      <trkpt lat="45.45878" lon="4.7685">
        <ele>80.1</ele>
        <time>2019-05-30T09:16:08Z</time>
      </trkpt>
      <trkpt lat="45.45861" lon="4.7686">
        <ele>80.14</ele>
        <time>2019-05-30T09:16:12Z</time>
      </trkpt>
      <trkpt lat="45.45853" lon="4.76884">
        <ele>80.34</ele>
        <time>2019-05-30T09:16:17Z</time>
      </trkpt>
      <trkpt lat="45.45858" lon="4.76911">
        <ele>79.75</ele>
        <time>2019-05-30T09:16:21Z</time>
      </trkpt>
      <trkpt lat="45.45869" lon="4.76936">
        <ele>79.22</ele>
        <time>2019-05-30T09:16:25Z</time>
      </trkpt>
      <trkpt lat="45.45857" lon="4.76958">
        <ele>79.03</ele>
        <time>2019-05-30T09:16:32Z</time>
      </trkpt>
      <trkpt lat="45.45836" lon="4.76958">
        <ele>78.77</ele>
        <time>2019-05-30T09:16:37Z</time>
      </trkpt>
      <trkpt lat="45.45818" lon="4.76952">
        <ele>78.66</ele>
        <time>2019-05-30T09:16:41Z</time>
      </trkpt>
      <trkpt lat="45.45799" lon="4.76945">
        <ele>78.2</ele>
        <time>2019-05-30T09:16:45Z</time>
      </trkpt>
      <trkpt lat="45.45789" lon="4.76922">
        <ele>77.57</ele>
        <time>2019-05-30T09:16:49Z</time>
      </trkpt>
      <trkpt lat="45.45792" lon="4.76894">
        <ele>77.8</ele>
        <time>2019-05-30T09:16:53Z</time>
      </trkpt>
      <trkpt lat="45.45792" lon="4.76868">
        <ele>77.91</ele>
        <time>2019-05-30T09:16:57Z</time>
      </trkpt>
      <trkpt lat="45.45786" lon="4.76838">
        <ele>77.95</ele>
        <time>2019-05-30T09:17:02Z</time>
      </trkpt>
      <trkpt lat="45.45784" lon="4.7681">
        <ele>77.97</ele>
        <time>2019-05-30T09:17:08Z</time>
      </trkpt>
      <trkpt lat="45.45788" lon="4.76783">
        <ele>77.82</ele>
        <time>2019-05-30T09:17:13Z</time>
      </trkpt>
      <trkpt lat="45.45792" lon="4.76755">
        <ele>77.9</ele>
        <time>2019-05-30T09:17:18Z</time>
      </trkpt>
      <trkpt lat="45.45798" lon="4.76723">
        <ele>77.94</ele>
        <time>2019-05-30T09:17:23Z</time>
      </trkpt>
      <trkpt lat="45.45803" lon="4.76698">
        <ele>77.98</ele>
        <time>2019-05-30T09:17:27Z</time>
      </trkpt>
      <trkpt lat="45.45807" lon="4.76672">
        <ele>78.11</ele>
        <time>2019-05-30T09:17:31Z</time>
      </trkpt>
      <trkpt lat="45.45811" lon="4.76646">
        <ele>77.93</ele>
        <time>2019-05-30T09:17:35Z</time>
      </trkpt>
      <trkpt lat="45.45814" lon="4.76615">
        <ele>77.93</ele>
        <time>2019-05-30T09:17:40Z</time>
      </trkpt>
      <trkpt lat="45.45821" lon="4.76586">
        <ele>77.96</ele>
        <time>2019-05-30T09:17:45Z</time>
      </trkpt>
      <trkpt lat="45.4583" lon="4.7656">
        <ele>78.28</ele>
        <time>2019-05-30T09:17:53Z</time>
      </trkpt>
      <trkpt lat="45.4583" lon="4.76529">
        <ele>78.13</ele>
        <time>2019-05-30T09:17:59Z</time>
      </trkpt>
      <trkpt lat="45.4583" lon="4.76502">
        <ele>78.33</ele>
        <time>2019-05-30T09:18:04Z</time>
      </trkpt>
      <trkpt lat="45.45826" lon="4.76475">
        <ele>78.44</ele>
        <time>2019-05-30T09:18:11Z</time>
      </trkpt>
      <trkpt lat="45.45825" lon="4.76447">
        <ele>78.02</ele>
        <time>2019-05-30T09:18:17Z</time>
      </trkpt>
      <trkpt lat="45.45821" lon="4.76419">
        <ele>77.61</ele>
        <time>2019-05-30T09:18:23Z</time>
      </trkpt>
      <trkpt lat="45.45819" lon="4.76392">
        <ele>77.71</ele>
        <time>2019-05-30T09:18:28Z</time>
      </trkpt>
      <trkpt lat="45.45817" lon="4.76365">
        <ele>78.01</ele>
        <time>2019-05-30T09:18:33Z</time>
      </trkpt>
      <trkpt lat="45.45815" lon="4.76336">
        <ele>78.05</ele>
        <time>2019-05-30T09:18:38Z</time>
      </trkpt>
      <trkpt lat="45.45811" lon="4.76307">
        <ele>77.74</ele>
        <time>2019-05-30T09:18:43Z</time>
      </trkpt>
      <trkpt lat="45.45807" lon="4.76276">
        <ele>77.69</ele>
        <time>2019-05-30T09:18:48Z</time>
      </trkpt>
      <trkpt lat="45.45803" lon="4.76246">
        <ele>78.21</ele>
        <time>2019-05-30T09:18:53Z</time>
      </trkpt>
      <trkpt lat="45.45799" lon="4.76221">
        <ele>78.11</ele>
        <time>2019-05-30T09:18:57Z</time>
      </trkpt>
      <trkpt lat="45.45796" lon="4.76194">
        <ele>77.9</ele>
        <time>2019-05-30T09:19:01Z</time>
      </trkpt>
      <trkpt lat="45.45794" lon="4.76167">
        <ele>77.91</ele>
        <time>2019-05-30T09:19:06Z</time>
      </trkpt>
      <trkpt lat="45.45788" lon="4.76142">
        <ele>78.03</ele>
        <time>2019-05-30T09:19:18Z</time>
      </trkpt>
      <trkpt lat="45.45799" lon="4.7612">
        <ele>79</ele>
        <time>2019-05-30T09:19:31Z</time>
      </trkpt>
      <trkpt lat="45.45817" lon="4.7611">
        <ele>79.25</ele>
        <time>2019-05-30T09:19:40Z</time>
      </trkpt>
      <trkpt lat="45.45835" lon="4.76099">
        <ele>79.38</ele>
        <time>2019-05-30T09:19:49Z</time>
      </trkpt>
      <trkpt lat="45.45824" lon="4.76124">
        <ele>78.06</ele>
        <time>2019-05-30T09:20:10Z</time>
      </trkpt>
      <trkpt lat="45.45816" lon="4.7615">
        <ele>77.93</ele>
        <time>2019-05-30T09:20:16Z</time>
      </trkpt>
      <trkpt lat="45.45835" lon="4.76146">
        <ele>78.38</ele>
        <time>2019-05-30T09:20:27Z</time>
      </trkpt>
      <trkpt lat="45.45847" lon="4.76126">
        <ele>78.41</ele>
        <time>2019-05-30T09:20:32Z</time>
      </trkpt>
      <trkpt lat="45.4586" lon="4.76106">
        <ele>78.51</ele>
        <time>2019-05-30T09:20:37Z</time>
      </trkpt>
      <trkpt lat="45.4587" lon="4.76083">
        <ele>79.53</ele>
        <time>2019-05-30T09:20:44Z</time>
      </trkpt>
      <trkpt lat="45.45862" lon="4.7606">
        <ele>79.71</ele>
        <time>2019-05-30T09:20:52Z</time>
      </trkpt>
      <trkpt lat="45.45852" lon="4.76035">
        <ele>79.05</ele>
        <time>2019-05-30T09:20:59Z</time>
      </trkpt>
      <trkpt lat="45.45843" lon="4.7601">
        <ele>78.71</ele>
        <time>2019-05-30T09:21:07Z</time>
      </trkpt>
      <trkpt lat="45.45833" lon="4.75988">
        <ele>79.06</ele>
        <time>2019-05-30T09:21:15Z</time>
      </trkpt>
      <trkpt lat="45.45836" lon="4.75961">
        <ele>79.3</ele>
        <time>2019-05-30T09:21:40Z</time>
      </trkpt>
      <trkpt lat="45.45848" lon="4.75934">
        <ele>79.58</ele>
        <time>2019-05-30T09:21:45Z</time>
      </trkpt>
      <trkpt lat="45.45861" lon="4.75914">
        <ele>80.05</ele>
        <time>2019-05-30T09:21:50Z</time>
      </trkpt>
      <trkpt lat="45.4588" lon="4.759">
        <ele>79.51</ele>
        <time>2019-05-30T09:21:55Z</time>
      </trkpt>
      <trkpt lat="45.45899" lon="4.75891">
        <ele>80.38</ele>
        <time>2019-05-30T09:22:00Z</time>
      </trkpt>
      <trkpt lat="45.45918" lon="4.75906">
        <ele>81.19</ele>
        <time>2019-05-30T09:22:06Z</time>
      </trkpt>
      <trkpt lat="45.45934" lon="4.75922">
        <ele>81.24</ele>
        <time>2019-05-30T09:22:11Z</time>
      </trkpt>
      <trkpt lat="45.45952" lon="4.75937">
        <ele>81.69</ele>
        <time>2019-05-30T09:22:16Z</time>
      </trkpt>
      <trkpt lat="45.45969" lon="4.75952">
        <ele>81.98</ele>
        <time>2019-05-30T09:22:21Z</time>
      </trkpt>
      <trkpt lat="45.45988" lon="4.75948">
        <ele>81.99</ele>
        <time>2019-05-30T09:22:26Z</time>
      </trkpt>
      <trkpt lat="45.46005" lon="4.75937">
        <ele>82.4</ele>
        <time>2019-05-30T09:22:32Z</time>
      </trkpt>
      <trkpt lat="45.46023" lon="4.75929">
        <ele>83.38</ele>
        <time>2019-05-30T09:22:38Z</time>
      </trkpt>
      <trkpt lat="45.46042" lon="4.75926">
        <ele>83.74</ele>
        <time>2019-05-30T09:22:44Z</time>
      </trkpt>
      <trkpt lat="45.46061" lon="4.75926">
        <ele>84.53</ele>
        <time>2019-05-30T09:22:51Z</time>
      </trkpt>
      <trkpt lat="45.46079" lon="4.75912">
        <ele>85.7</ele>
        <time>2019-05-30T09:22:58Z</time>
      </trkpt>
      <trkpt lat="45.46091" lon="4.75892">
        <ele>88.02</ele>
        <time>2019-05-30T09:23:06Z</time>
      </trkpt>
      <trkpt lat="45.4609" lon="4.75864">
        <ele>90.78</ele>
        <time>2019-05-30T09:23:17Z</time>
      </trkpt>
      <trkpt lat="45.4609" lon="4.75837">
        <ele>94.38</ele>
        <time>2019-05-30T09:23:27Z</time>
      </trkpt>
      <trkpt lat="45.4609" lon="4.7581">
        <ele>99.7</ele>
        <time>2019-05-30T09:23:38Z</time>
      </trkpt>
      <trkpt lat="45.4609" lon="4.75783">
        <ele>103.65</ele>
        <time>2019-05-30T09:23:49Z</time>
      </trkpt>
      <trkpt lat="45.46093" lon="4.75757">
        <ele>107.98</ele>
        <time>2019-05-30T09:24:00Z</time>
      </trkpt>
      <trkpt lat="45.46085" lon="4.75732">
        <ele>112.37</ele>
        <time>2019-05-30T09:24:14Z</time>
      </trkpt>
      <trkpt lat="45.46071" lon="4.75715">
        <ele>114.7</ele>
        <time>2019-05-30T09:24:27Z</time>
      </trkpt>
      <trkpt lat="45.46067" lon="4.75687">
        <ele>116.39</ele>
        <time>2019-05-30T09:24:38Z</time>
      </trkpt>
      <trkpt lat="45.46061" lon="4.75662">
        <ele>119.73</ele>
        <time>2019-05-30T09:24:52Z</time>
      </trkpt>
      <trkpt lat="45.46057" lon="4.75688">
        <ele>123.09</ele>
        <time>2019-05-30T09:28:53Z</time>
      </trkpt>
      <trkpt lat="45.46057" lon="4.75714">
        <ele>123.7</ele>
        <time>2019-05-30T09:29:01Z</time>
      </trkpt>
      <trkpt lat="45.46068" lon="4.75734">
        <ele>124.36</ele>
        <time>2019-05-30T09:29:08Z</time>
      </trkpt>
      <trkpt lat="45.46068" lon="4.75762">
        <ele>127.29</ele>
        <time>2019-05-30T09:29:19Z</time>
      </trkpt>
      <trkpt lat="45.46057" lon="4.7574">
        <ele>133.28</ele>
        <time>2019-05-30T09:29:38Z</time>
      </trkpt>
      <trkpt lat="45.46044" lon="4.75719">
        <ele>135.82</ele>
        <time>2019-05-30T09:29:50Z</time>
      </trkpt>
      <trkpt lat="45.46035" lon="4.75696">
        <ele>138.52</ele>
        <time>2019-05-30T09:30:00Z</time>
      </trkpt>
      <trkpt lat="45.46029" lon="4.7567">
        <ele>141.98</ele>
        <time>2019-05-30T09:30:13Z</time>
      </trkpt>
      <trkpt lat="45.46027" lon="4.75642">
        <ele>146.17</ele>
        <time>2019-05-30T09:30:24Z</time>
      </trkpt>
      <trkpt lat="45.46031" lon="4.75616">
        <ele>150.21</ele>
        <time>2019-05-30T09:31:30Z</time>
      </trkpt>
      <trkpt lat="45.46034" lon="4.75588">
        <ele>156.08</ele>
        <time>2019-05-30T09:31:55Z</time>
      </trkpt>
      <trkpt lat="45.46029" lon="4.75562">
        <ele>159.38</ele>
        <time>2019-05-30T09:32:07Z</time>
      </trkpt>
      <trkpt lat="45.46033" lon="4.75535">
        <ele>161.04</ele>
        <time>2019-05-30T09:32:17Z</time>
      </trkpt>
      <trkpt lat="45.46036" lon="4.75509">
        <ele>163.28</ele>
        <time>2019-05-30T09:32:25Z</time>
      </trkpt>
      <trkpt lat="45.46039" lon="4.75482">
        <ele>166.46</ele>
        <time>2019-05-30T09:32:34Z</time>
      </trkpt>
      <trkpt lat="45.46043" lon="4.75457">
        <ele>168.68</ele>
        <time>2019-05-30T09:32:42Z</time>
      </trkpt>
      <trkpt lat="45.4605" lon="4.7543">
        <ele>170.02</ele>
        <time>2019-05-30T09:32:50Z</time>
      </trkpt>
      <trkpt lat="45.46061" lon="4.75408">
        <ele>172.01</ele>
        <time>2019-05-30T09:32:58Z</time>
      </trkpt>
      <trkpt lat="45.46072" lon="4.75387">
        <ele>174.64</ele>
        <time>2019-05-30T09:33:07Z</time>
      </trkpt>
      <trkpt lat="45.46084" lon="4.75365">
        <ele>178.97</ele>
        <time>2019-05-30T09:33:18Z</time>
      </trkpt>
      <trkpt lat="45.46096" lon="4.75344">
        <ele>181.82</ele>
        <time>2019-05-30T09:33:28Z</time>
      </trkpt>
      <trkpt lat="45.46102" lon="4.75319">
        <ele>183.85</ele>
        <time>2019-05-30T09:33:37Z</time>
      </trkpt>
      <trkpt lat="45.46107" lon="4.75292">
        <ele>186.88</ele>
        <time>2019-05-30T09:33:47Z</time>
      </trkpt>
      <trkpt lat="45.46115" lon="4.75265">
        <ele>189.13</ele>
        <time>2019-05-30T09:33:57Z</time>
      </trkpt>
      <trkpt lat="45.46126" lon="4.75242">
        <ele>192.47</ele>
        <time>2019-05-30T09:34:09Z</time>
      </trkpt>
      <trkpt lat="45.46135" lon="4.7522">
        <ele>193.59</ele>
        <time>2019-05-30T09:34:19Z</time>
      </trkpt>
      <trkpt lat="45.46133" lon="4.75193">
        <ele>195.97</ele>
        <time>2019-05-30T09:34:29Z</time>
      </trkpt>
      <trkpt lat="45.46137" lon="4.75166">
        <ele>198.95</ele>
        <time>2019-05-30T09:35:06Z</time>
      </trkpt>
      <trkpt lat="45.46134" lon="4.75138">
        <ele>200.53</ele>
        <time>2019-05-30T09:36:01Z</time>
      </trkpt>
      <trkpt lat="45.46128" lon="4.75112">
        <ele>202.05</ele>
        <time>2019-05-30T09:41:54Z</time>
      </trkpt>
      <trkpt lat="45.46124" lon="4.75087">
        <ele>204.27</ele>
        <time>2019-05-30T09:42:03Z</time>
      </trkpt>
      <trkpt lat="45.46109" lon="4.75066">
        <ele>206.38</ele>
        <time>2019-05-30T09:42:13Z</time>
      </trkpt>
      <trkpt lat="45.46128" lon="4.75071">
        <ele>206.12</ele>
        <time>2019-05-30T09:42:45Z</time>
      </trkpt>
      <trkpt lat="45.46143" lon="4.75055">
        <ele>209.28</ele>
        <time>2019-05-30T09:42:54Z</time>
      </trkpt>
      <trkpt lat="45.46159" lon="4.75042">
        <ele>215.24</ele>
        <time>2019-05-30T09:43:05Z</time>
      </trkpt>
      <trkpt lat="45.46174" lon="4.75025">
        <ele>217.36</ele>
        <time>2019-05-30T09:43:13Z</time>
      </trkpt>
      <trkpt lat="45.46187" lon="4.75007">
        <ele>220.54</ele>
        <time>2019-05-30T09:43:22Z</time>
      </trkpt>
      <trkpt lat="45.46199" lon="4.74987">
        <ele>223.09</ele>
        <time>2019-05-30T09:43:33Z</time>
      </trkpt>
      <trkpt lat="45.46208" lon="4.74965">
        <ele>225.12</ele>
        <time>2019-05-30T09:43:43Z</time>
      </trkpt>
      <trkpt lat="45.46219" lon="4.74941">
        <ele>228.52</ele>
        <time>2019-05-30T09:43:53Z</time>
      </trkpt>
      <trkpt lat="45.46229" lon="4.74918">
        <ele>230.61</ele>
        <time>2019-05-30T09:44:04Z</time>
      </trkpt>
      <trkpt lat="45.46238" lon="4.74894">
        <ele>232.21</ele>
        <time>2019-05-30T09:44:14Z</time>
      </trkpt>
      <trkpt lat="45.46245" lon="4.7487">
        <ele>233.6</ele>
        <time>2019-05-30T09:44:23Z</time>
      </trkpt>
      <trkpt lat="45.46247" lon="4.74842">
        <ele>234.63</ele>
        <time>2019-05-30T09:44:32Z</time>
      </trkpt>
      <trkpt lat="45.46249" lon="4.74816">
        <ele>235.01</ele>
        <time>2019-05-30T09:44:39Z</time>
      </trkpt>
      <trkpt lat="45.4625" lon="4.74788">
        <ele>235.4</ele>
        <time>2019-05-30T09:44:48Z</time>
      </trkpt>
      <trkpt lat="45.46253" lon="4.74761">
        <ele>235.55</ele>
        <time>2019-05-30T09:44:55Z</time>
      </trkpt>
      <trkpt lat="45.46257" lon="4.74736">
        <ele>235.95</ele>
        <time>2019-05-30T09:45:01Z</time>
      </trkpt>
      <trkpt lat="45.46262" lon="4.7471">
        <ele>236.21</ele>
        <time>2019-05-30T09:45:07Z</time>
      </trkpt>
      <trkpt lat="45.46267" lon="4.74683">
        <ele>237.06</ele>
        <time>2019-05-30T09:45:13Z</time>
      </trkpt>
      <trkpt lat="45.46271" lon="4.74653">
        <ele>237.28</ele>
        <time>2019-05-30T09:45:19Z</time>
      </trkpt>
      <trkpt lat="45.46274" lon="4.74623">
        <ele>237.99</ele>
        <time>2019-05-30T09:45:25Z</time>
      </trkpt>
      <trkpt lat="45.46278" lon="4.74594">
        <ele>238.5</ele>
        <time>2019-05-30T09:45:31Z</time>
      </trkpt>
      <trkpt lat="45.4628" lon="4.74564">
        <ele>239.13</ele>
        <time>2019-05-30T09:45:37Z</time>
      </trkpt>
      <trkpt lat="45.46277" lon="4.74537">
        <ele>239.73</ele>
        <time>2019-05-30T09:45:42Z</time>
      </trkpt>
      <trkpt lat="45.46273" lon="4.7451">
        <ele>241</ele>
        <time>2019-05-30T09:45:48Z</time>
      </trkpt>
      <trkpt lat="45.46268" lon="4.74485">
        <ele>242.5</ele>
        <time>2019-05-30T09:45:54Z</time>
      </trkpt>
      <trkpt lat="45.46262" lon="4.74456">
        <ele>242.35</ele>
        <time>2019-05-30T09:46:00Z</time>
      </trkpt>
      <trkpt lat="45.46257" lon="4.74431">
        <ele>242.46</ele>
        <time>2019-05-30T09:46:05Z</time>
      </trkpt>
      <trkpt lat="45.46255" lon="4.74405">
        <ele>242.77</ele>
        <time>2019-05-30T09:46:10Z</time>
      </trkpt>
      <trkpt lat="45.46255" lon="4.74379">
        <ele>242.9</ele>
        <time>2019-05-30T09:46:15Z</time>
      </trkpt>
      <trkpt lat="45.46254" lon="4.74353">
        <ele>243.13</ele>
        <time>2019-05-30T09:46:20Z</time>
      </trkpt>
      <trkpt lat="45.46254" lon="4.74327">
        <ele>243.35</ele>
        <time>2019-05-30T09:46:25Z</time>
      </trkpt>
      <trkpt lat="45.46258" lon="4.74301">
        <ele>243.87</ele>
        <time>2019-05-30T09:46:30Z</time>
      </trkpt>
      <trkpt lat="45.46268" lon="4.74274">
        <ele>244.45</ele>
        <time>2019-05-30T09:46:36Z</time>
      </trkpt>
      <trkpt lat="45.46276" lon="4.74249">
        <ele>245.36</ele>
        <time>2019-05-30T09:46:41Z</time>
      </trkpt>
      <trkpt lat="45.46288" lon="4.74229">
        <ele>246.22</ele>
        <time>2019-05-30T09:46:46Z</time>
      </trkpt>
      <trkpt lat="45.46301" lon="4.74208">
        <ele>247.64</ele>
        <time>2019-05-30T09:46:52Z</time>
      </trkpt>
      <trkpt lat="45.46313" lon="4.74188">
        <ele>249.22</ele>
        <time>2019-05-30T09:46:58Z</time>
      </trkpt>
      <trkpt lat="45.46324" lon="4.74165">
        <ele>249.94</ele>
        <time>2019-05-30T09:47:04Z</time>
      </trkpt>
      <trkpt lat="45.46331" lon="4.7414">
        <ele>251.13</ele>
        <time>2019-05-30T09:47:10Z</time>
      </trkpt>
      <trkpt lat="45.46337" lon="4.74113">
        <ele>252.1</ele>
        <time>2019-05-30T09:47:16Z</time>
      </trkpt>
      <trkpt lat="45.4634" lon="4.74086">
        <ele>252.83</ele>
        <time>2019-05-30T09:47:22Z</time>
      </trkpt>
      <trkpt lat="45.46345" lon="4.74059">
        <ele>253.88</ele>
        <time>2019-05-30T09:47:28Z</time>
      </trkpt>
      <trkpt lat="45.46349" lon="4.74034">
        <ele>254.54</ele>
        <time>2019-05-30T09:47:33Z</time>
      </trkpt>
      <trkpt lat="45.46356" lon="4.74008">
        <ele>255</ele>
        <time>2019-05-30T09:47:39Z</time>
      </trkpt>
      <trkpt lat="45.46366" lon="4.73983">
        <ele>255.79</ele>
        <time>2019-05-30T09:47:45Z</time>
      </trkpt>
      <trkpt lat="45.46375" lon="4.73956">
        <ele>256.35</ele>
        <time>2019-05-30T09:47:51Z</time>
      </trkpt>
      <trkpt lat="45.46381" lon="4.7393">
        <ele>257.71</ele>
        <time>2019-05-30T09:47:57Z</time>
      </trkpt>
      <trkpt lat="45.46385" lon="4.73902">
        <ele>258.93</ele>
        <time>2019-05-30T09:48:04Z</time>
      </trkpt>
      <trkpt lat="45.46389" lon="4.73876">
        <ele>260.06</ele>
        <time>2019-05-30T09:48:10Z</time>
      </trkpt>
      <trkpt lat="45.46391" lon="4.73849">
        <ele>260.69</ele>
        <time>2019-05-30T09:48:16Z</time>
      </trkpt>
      <trkpt lat="45.4639" lon="4.73822">
        <ele>261.87</ele>
        <time>2019-05-30T09:48:22Z</time>
      </trkpt>
      <trkpt lat="45.4639" lon="4.73794">
        <ele>262.56</ele>
        <time>2019-05-30T09:48:28Z</time>
      </trkpt>
      <trkpt lat="45.4639" lon="4.73767">
        <ele>263.73</ele>
        <time>2019-05-30T09:48:34Z</time>
      </trkpt>
      <trkpt lat="45.46392" lon="4.73737">
        <ele>265.53</ele>
        <time>2019-05-30T09:48:41Z</time>
      </trkpt>
      <trkpt lat="45.46394" lon="4.73709">
        <ele>267.04</ele>
        <time>2019-05-30T09:48:48Z</time>
      </trkpt>
      <trkpt lat="45.46396" lon="4.73683">
        <ele>268.64</ele>
        <time>2019-05-30T09:48:55Z</time>
      </trkpt>
      <trkpt lat="45.46398" lon="4.73657">
        <ele>269.72</ele>
        <time>2019-05-30T09:49:02Z</time>
      </trkpt>
      <trkpt lat="45.464" lon="4.7363">
        <ele>270.92</ele>
        <time>2019-05-30T09:49:09Z</time>
      </trkpt>
      <trkpt lat="45.46402" lon="4.736">
        <ele>272.42</ele>
        <time>2019-05-30T09:49:16Z</time>
      </trkpt>
      <trkpt lat="45.46405" lon="4.73574">
        <ele>274.18</ele>
        <time>2019-05-30T09:49:23Z</time>
      </trkpt>
      <trkpt lat="45.46407" lon="4.73546">
        <ele>276.43</ele>
        <time>2019-05-30T09:49:31Z</time>
      </trkpt>
      <trkpt lat="45.4641" lon="4.73516">
        <ele>277.63</ele>
        <time>2019-05-30T09:49:38Z</time>
      </trkpt>
      <trkpt lat="45.46409" lon="4.73488">
        <ele>278.2</ele>
        <time>2019-05-30T09:49:44Z</time>
      </trkpt>
      <trkpt lat="45.46408" lon="4.73458">
        <ele>278.22</ele>
        <time>2019-05-30T09:49:50Z</time>
      </trkpt>
      <trkpt lat="45.46407" lon="4.73429">
        <ele>278.34</ele>
        <time>2019-05-30T09:49:55Z</time>
      </trkpt>
      <trkpt lat="45.46406" lon="4.73401">
        <ele>278.79</ele>
        <time>2019-05-30T09:50:00Z</time>
      </trkpt>
      <trkpt lat="45.46406" lon="4.73373">
        <ele>279.04</ele>
        <time>2019-05-30T09:50:05Z</time>
      </trkpt>
      <trkpt lat="45.4641" lon="4.73344">
        <ele>280.38</ele>
        <time>2019-05-30T09:50:11Z</time>
      </trkpt>
      <trkpt lat="45.46413" lon="4.73315">
        <ele>281.55</ele>
        <time>2019-05-30T09:50:17Z</time>
      </trkpt>
      <trkpt lat="45.46417" lon="4.73288">
        <ele>283.15</ele>
        <time>2019-05-30T09:50:23Z</time>
      </trkpt>
      <trkpt lat="45.46417" lon="4.7326">
        <ele>284.12</ele>
        <time>2019-05-30T09:50:29Z</time>
      </trkpt>
      <trkpt lat="45.4641" lon="4.73232">
        <ele>284.83</ele>
        <time>2019-05-30T09:50:35Z</time>
      </trkpt>
      <trkpt lat="45.46399" lon="4.73208">
        <ele>284.76</ele>
        <time>2019-05-30T09:50:40Z</time>
      </trkpt>
      <trkpt lat="45.46388" lon="4.73187">
        <ele>284.74</ele>
        <time>2019-05-30T09:50:44Z</time>
      </trkpt>
      <trkpt lat="45.46375" lon="4.73166">
        <ele>284.95</ele>
        <time>2019-05-30T09:50:49Z</time>
      </trkpt>
      <trkpt lat="45.46362" lon="4.73149">
        <ele>285.43</ele>
        <time>2019-05-30T09:50:54Z</time>
      </trkpt>
      <trkpt lat="45.46348" lon="4.73127">
        <ele>285.41</ele>
        <time>2019-05-30T09:50:59Z</time>
      </trkpt>
      <trkpt lat="45.46335" lon="4.73104">
        <ele>285.68</ele>
        <time>2019-05-30T09:51:04Z</time>
      </trkpt>
      <trkpt lat="45.46324" lon="4.73077">
        <ele>286.61</ele>
        <time>2019-05-30T09:51:09Z</time>
      </trkpt>
      <trkpt lat="45.46314" lon="4.73053">
        <ele>287</ele>
        <time>2019-05-30T09:51:14Z</time>
      </trkpt>
      <trkpt lat="45.46302" lon="4.73027">
        <ele>288.26</ele>
        <time>2019-05-30T09:51:20Z</time>
      </trkpt>
      <trkpt lat="45.4629" lon="4.73007">
        <ele>289.04</ele>
        <time>2019-05-30T09:51:25Z</time>
      </trkpt>
      <trkpt lat="45.46281" lon="4.72983">
        <ele>289.18</ele>
        <time>2019-05-30T09:51:30Z</time>
      </trkpt>
      <trkpt lat="45.46272" lon="4.72959">
        <ele>289.32</ele>
        <time>2019-05-30T09:51:35Z</time>
      </trkpt>
      <trkpt lat="45.46261" lon="4.72931">
        <ele>289.15</ele>
        <time>2019-05-30T09:51:40Z</time>
      </trkpt>
      <trkpt lat="45.4625" lon="4.72906">
        <ele>289.07</ele>
        <time>2019-05-30T09:51:45Z</time>
      </trkpt>
      <trkpt lat="45.46251" lon="4.72876">
        <ele>289.48</ele>
        <time>2019-05-30T09:51:50Z</time>
      </trkpt>
      <trkpt lat="45.4626" lon="4.72854">
        <ele>289.83</ele>
        <time>2019-05-30T09:51:54Z</time>
      </trkpt>
      <trkpt lat="45.46269" lon="4.72827">
        <ele>290.91</ele>
        <time>2019-05-30T09:51:59Z</time>
      </trkpt>
      <trkpt lat="45.46275" lon="4.72803">
        <ele>291.72</ele>
        <time>2019-05-30T09:52:04Z</time>
      </trkpt>
      <trkpt lat="45.46282" lon="4.72777">
        <ele>292.76</ele>
        <time>2019-05-30T09:52:09Z</time>
      </trkpt>
      <trkpt lat="45.46289" lon="4.72749">
        <ele>293.71</ele>
        <time>2019-05-30T09:52:15Z</time>
      </trkpt>
      <trkpt lat="45.46298" lon="4.72723">
        <ele>294.6</ele>
        <time>2019-05-30T09:52:21Z</time>
      </trkpt>
      <trkpt lat="45.46308" lon="4.72698">
        <ele>295.4</ele>
        <time>2019-05-30T09:52:27Z</time>
      </trkpt>
      <trkpt lat="45.46314" lon="4.7267">
        <ele>296.63</ele>
        <time>2019-05-30T09:52:33Z</time>
      </trkpt>
      <trkpt lat="45.46316" lon="4.72643">
        <ele>297.95</ele>
        <time>2019-05-30T09:52:39Z</time>
      </trkpt>
      <trkpt lat="45.46317" lon="4.72615">
        <ele>299.58</ele>
        <time>2019-05-30T09:52:46Z</time>
      </trkpt>
      <trkpt lat="45.46319" lon="4.72586">
        <ele>300.65</ele>
        <time>2019-05-30T09:52:53Z</time>
      </trkpt>
      <trkpt lat="45.46319" lon="4.72559">
        <ele>301.71</ele>
        <time>2019-05-30T09:53:00Z</time>
      </trkpt>
      <trkpt lat="45.4633" lon="4.72537">
        <ele>302.83</ele>
        <time>2019-05-30T09:53:07Z</time>
      </trkpt>
      <trkpt lat="45.46339" lon="4.72512">
        <ele>303.97</ele>
        <time>2019-05-30T09:53:14Z</time>
      </trkpt>
      <trkpt lat="45.4634" lon="4.72485">
        <ele>304.81</ele>
        <time>2019-05-30T09:53:21Z</time>
      </trkpt>
      <trkpt lat="45.46336" lon="4.72456">
        <ele>305.9</ele>
        <time>2019-05-30T09:53:28Z</time>
      </trkpt>
      <trkpt lat="45.46332" lon="4.72431">
        <ele>307.04</ele>
        <time>2019-05-30T09:53:34Z</time>
      </trkpt>
      <trkpt lat="45.46329" lon="4.72402">
        <ele>308.56</ele>
        <time>2019-05-30T09:53:41Z</time>
      </trkpt>
      <trkpt lat="45.46326" lon="4.72374">
        <ele>309.52</ele>
        <time>2019-05-30T09:53:48Z</time>
      </trkpt>
      <trkpt lat="45.46323" lon="4.72347">
        <ele>311.05</ele>
        <time>2019-05-30T09:53:55Z</time>
      </trkpt>
      <trkpt lat="45.4632" lon="4.72321">
        <ele>313.01</ele>
        <time>2019-05-30T09:54:02Z</time>
      </trkpt>
      <trkpt lat="45.46322" lon="4.72295">
        <ele>315.04</ele>
        <time>2019-05-30T09:54:09Z</time>
      </trkpt>
      <trkpt lat="45.46331" lon="4.72271">
        <ele>317.74</ele>
        <time>2019-05-30T09:54:17Z</time>
      </trkpt>
      <trkpt lat="45.46342" lon="4.72251">
        <ele>320.58</ele>
        <time>2019-05-30T09:54:25Z</time>
      </trkpt>
      <trkpt lat="45.46348" lon="4.72226">
        <ele>323.42</ele>
        <time>2019-05-30T09:54:33Z</time>
      </trkpt>
      <trkpt lat="45.46349" lon="4.722">
        <ele>325.49</ele>
        <time>2019-05-30T09:54:41Z</time>
      </trkpt>
      <trkpt lat="45.46353" lon="4.72175">
        <ele>327.81</ele>
        <time>2019-05-30T09:54:50Z</time>
      </trkpt>
      <trkpt lat="45.46355" lon="4.72149">
        <ele>329.06</ele>
        <time>2019-05-30T09:55:15Z</time>
      </trkpt>
      <trkpt lat="45.46356" lon="4.7212">
        <ele>329.74</ele>
        <time>2019-05-30T09:55:23Z</time>
      </trkpt>
      <trkpt lat="45.46354" lon="4.7209">
        <ele>330.8</ele>
        <time>2019-05-30T09:55:31Z</time>
      </trkpt>
      <trkpt lat="45.46351" lon="4.72063">
        <ele>331.31</ele>
        <time>2019-05-30T09:55:38Z</time>
      </trkpt>
      <trkpt lat="45.46348" lon="4.72034">
        <ele>331.44</ele>
        <time>2019-05-30T09:55:44Z</time>
      </trkpt>
      <trkpt lat="45.46345" lon="4.72005">
        <ele>331.57</ele>
        <time>2019-05-30T09:55:49Z</time>
      </trkpt>
      <trkpt lat="45.46342" lon="4.71977">
        <ele>331.41</ele>
        <time>2019-05-30T09:55:54Z</time>
      </trkpt>
      <trkpt lat="45.46339" lon="4.71949">
        <ele>331.51</ele>
        <time>2019-05-30T09:55:59Z</time>
      </trkpt>
      <trkpt lat="45.46335" lon="4.71921">
        <ele>331.57</ele>
        <time>2019-05-30T09:56:04Z</time>
      </trkpt>
      <trkpt lat="45.4633" lon="4.71895">
        <ele>332</ele>
        <time>2019-05-30T09:56:09Z</time>
      </trkpt>
      <trkpt lat="45.46333" lon="4.71867">
        <ele>333.42</ele>
        <time>2019-05-30T09:56:16Z</time>
      </trkpt>
      <trkpt lat="45.46333" lon="4.7184">
        <ele>332.82</ele>
        <time>2019-05-30T09:56:21Z</time>
      </trkpt>
      <trkpt lat="45.46329" lon="4.71811">
        <ele>332.95</ele>
        <time>2019-05-30T09:56:26Z</time>
      </trkpt>
      <trkpt lat="45.46324" lon="4.71786">
        <ele>333.17</ele>
        <time>2019-05-30T09:56:30Z</time>
      </trkpt>
      <trkpt lat="45.46318" lon="4.71757">
        <ele>333.64</ele>
        <time>2019-05-30T09:56:35Z</time>
      </trkpt>
      <trkpt lat="45.46313" lon="4.71728">
        <ele>334.02</ele>
        <time>2019-05-30T09:56:40Z</time>
      </trkpt>
      <trkpt lat="45.46309" lon="4.71698">
        <ele>334.58</ele>
        <time>2019-05-30T09:56:45Z</time>
      </trkpt>
      <trkpt lat="45.46305" lon="4.71672">
        <ele>335.3</ele>
        <time>2019-05-30T09:56:50Z</time>
      </trkpt>
      <trkpt lat="45.46301" lon="4.71642">
        <ele>336.13</ele>
        <time>2019-05-30T09:56:55Z</time>
      </trkpt>
      <trkpt lat="45.463" lon="4.71613">
        <ele>336.87</ele>
        <time>2019-05-30T09:57:00Z</time>
      </trkpt>
      <trkpt lat="45.46301" lon="4.71585">
        <ele>337.79</ele>
        <time>2019-05-30T09:57:05Z</time>
      </trkpt>
      <trkpt lat="45.46304" lon="4.71557">
        <ele>338.92</ele>
        <time>2019-05-30T09:57:10Z</time>
      </trkpt>
      <trkpt lat="45.46307" lon="4.71531">
        <ele>340.06</ele>
        <time>2019-05-30T09:57:15Z</time>
      </trkpt>
      <trkpt lat="45.46308" lon="4.71503">
        <ele>340.81</ele>
        <time>2019-05-30T09:57:20Z</time>
      </trkpt>
      <trkpt lat="45.46303" lon="4.71474">
        <ele>341.71</ele>
        <time>2019-05-30T09:57:25Z</time>
      </trkpt>
      <trkpt lat="45.46296" lon="4.71448">
        <ele>343.17</ele>
        <time>2019-05-30T09:57:30Z</time>
      </trkpt>
      <trkpt lat="45.46292" lon="4.71421">
        <ele>344.22</ele>
        <time>2019-05-30T09:57:35Z</time>
      </trkpt>
      <trkpt lat="45.46292" lon="4.7139">
        <ele>344.96</ele>
        <time>2019-05-30T09:57:41Z</time>
      </trkpt>
      <trkpt lat="45.46292" lon="4.7136">
        <ele>345.44</ele>
        <time>2019-05-30T09:57:46Z</time>
      </trkpt>
      <trkpt lat="45.46293" lon="4.71333">
        <ele>345.34</ele>
        <time>2019-05-30T09:57:51Z</time>
      </trkpt>
      <trkpt lat="45.46294" lon="4.71304">
        <ele>345.76</ele>
        <time>2019-05-30T09:57:56Z</time>
      </trkpt>
      <trkpt lat="45.46295" lon="4.71276">
        <ele>346.37</ele>
        <time>2019-05-30T09:58:01Z</time>
      </trkpt>
      <trkpt lat="45.46296" lon="4.71249">
        <ele>346.94</ele>
        <time>2019-05-30T09:58:06Z</time>
      </trkpt>
      <trkpt lat="45.46296" lon="4.71221">
        <ele>347.33</ele>
        <time>2019-05-30T09:58:11Z</time>
      </trkpt>
      <trkpt lat="45.46297" lon="4.71193">
        <ele>347.98</ele>
        <time>2019-05-30T09:58:16Z</time>
      </trkpt>
      <trkpt lat="45.46297" lon="4.71165">
        <ele>348.54</ele>
        <time>2019-05-30T09:58:21Z</time>
      </trkpt>
      <trkpt lat="45.46299" lon="4.71136">
        <ele>349.41</ele>
        <time>2019-05-30T09:58:27Z</time>
      </trkpt>
      <trkpt lat="45.46305" lon="4.71107">
        <ele>350.88</ele>
        <time>2019-05-30T09:58:33Z</time>
      </trkpt>
      <trkpt lat="45.46309" lon="4.71079">
        <ele>351.08</ele>
        <time>2019-05-30T09:58:38Z</time>
      </trkpt>
      <trkpt lat="45.46311" lon="4.71048">
        <ele>351.18</ele>
        <time>2019-05-30T09:58:43Z</time>
      </trkpt>
      <trkpt lat="45.46311" lon="4.71015">
        <ele>350.7</ele>
        <time>2019-05-30T09:58:48Z</time>
      </trkpt>
      <trkpt lat="45.4631" lon="4.70987">
        <ele>350.6</ele>
        <time>2019-05-30T09:58:52Z</time>
      </trkpt>
      <trkpt lat="45.46306" lon="4.70962">
        <ele>350.46</ele>
        <time>2019-05-30T09:58:56Z</time>
      </trkpt>
      <trkpt lat="45.46303" lon="4.70933">
        <ele>350.46</ele>
        <time>2019-05-30T09:59:01Z</time>
      </trkpt>
      <trkpt lat="45.463" lon="4.70901">
        <ele>350.6</ele>
        <time>2019-05-30T09:59:06Z</time>
      </trkpt>
      <trkpt lat="45.46297" lon="4.70873">
        <ele>350.82</ele>
        <time>2019-05-30T09:59:10Z</time>
      </trkpt>
      <trkpt lat="45.46294" lon="4.70844">
        <ele>351.51</ele>
        <time>2019-05-30T09:59:15Z</time>
      </trkpt>
      <trkpt lat="45.46294" lon="4.70815">
        <ele>353.58</ele>
        <time>2019-05-30T09:59:22Z</time>
      </trkpt>
      <trkpt lat="45.46292" lon="4.70789">
        <ele>354.7</ele>
        <time>2019-05-30T09:59:28Z</time>
      </trkpt>
      <trkpt lat="45.46292" lon="4.7076">
        <ele>356.96</ele>
        <time>2019-05-30T09:59:35Z</time>
      </trkpt>
      <trkpt lat="45.4629" lon="4.70734">
        <ele>359.2</ele>
        <time>2019-05-30T09:59:42Z</time>
      </trkpt>
      <trkpt lat="45.46287" lon="4.70706">
        <ele>360.02</ele>
        <time>2019-05-30T09:59:49Z</time>
      </trkpt>
      <trkpt lat="45.4628" lon="4.70678">
        <ele>360.43</ele>
        <time>2019-05-30T09:59:55Z</time>
      </trkpt>
      <trkpt lat="45.46275" lon="4.70651">
        <ele>360.64</ele>
        <time>2019-05-30T10:00:01Z</time>
      </trkpt>
      <trkpt lat="45.46268" lon="4.70621">
        <ele>361.04</ele>
        <time>2019-05-30T10:00:07Z</time>
      </trkpt>
      <trkpt lat="45.46265" lon="4.70594">
        <ele>361.29</ele>
        <time>2019-05-30T10:00:12Z</time>
      </trkpt>
      <trkpt lat="45.46263" lon="4.70566">
        <ele>361.53</ele>
        <time>2019-05-30T10:00:17Z</time>
      </trkpt>
      <trkpt lat="45.46259" lon="4.70539">
        <ele>362.13</ele>
        <time>2019-05-30T10:00:22Z</time>
      </trkpt>
      <trkpt lat="45.46254" lon="4.70513">
        <ele>362.25</ele>
        <time>2019-05-30T10:00:27Z</time>
      </trkpt>
      <trkpt lat="45.46249" lon="4.70487">
        <ele>362.59</ele>
        <time>2019-05-30T10:00:32Z</time>
      </trkpt>
      <trkpt lat="45.46239" lon="4.70464">
        <ele>363.18</ele>
        <time>2019-05-30T10:00:37Z</time>
      </trkpt>
      <trkpt lat="45.46227" lon="4.70438">
        <ele>363.58</ele>
        <time>2019-05-30T10:00:43Z</time>
      </trkpt>
      <trkpt lat="45.46217" lon="4.70413">
        <ele>363.14</ele>
        <time>2019-05-30T10:00:48Z</time>
      </trkpt>
      <trkpt lat="45.46207" lon="4.70387">
        <ele>363.19</ele>
        <time>2019-05-30T10:00:53Z</time>
      </trkpt>
      <trkpt lat="45.46202" lon="4.70358">
        <ele>363.6</ele>
        <time>2019-05-30T10:00:58Z</time>
      </trkpt>
      <trkpt lat="45.46196" lon="4.70331">
        <ele>364.08</ele>
        <time>2019-05-30T10:01:03Z</time>
      </trkpt>
      <trkpt lat="45.4619" lon="4.70304">
        <ele>364.43</ele>
        <time>2019-05-30T10:01:08Z</time>
      </trkpt>
      <trkpt lat="45.46182" lon="4.70278">
        <ele>365.16</ele>
        <time>2019-05-30T10:01:13Z</time>
      </trkpt>
      <trkpt lat="45.46172" lon="4.70253">
        <ele>366.56</ele>
        <time>2019-05-30T10:01:19Z</time>
      </trkpt>
      <trkpt lat="45.46161" lon="4.70229">
        <ele>367.83</ele>
        <time>2019-05-30T10:01:25Z</time>
      </trkpt>
      <trkpt lat="45.46147" lon="4.70204">
        <ele>367.87</ele>
        <time>2019-05-30T10:01:31Z</time>
      </trkpt>
      <trkpt lat="45.46136" lon="4.70184">
        <ele>367.26</ele>
        <time>2019-05-30T10:01:36Z</time>
      </trkpt>
      <trkpt lat="45.46123" lon="4.7016">
        <ele>367.43</ele>
        <time>2019-05-30T10:01:42Z</time>
      </trkpt>
      <trkpt lat="45.46111" lon="4.70137">
        <ele>367.15</ele>
        <time>2019-05-30T10:01:47Z</time>
      </trkpt>
      <trkpt lat="45.46099" lon="4.70111">
        <ele>366.85</ele>
        <time>2019-05-30T10:01:52Z</time>
      </trkpt>
      <trkpt lat="45.46088" lon="4.7009">
        <ele>366.62</ele>
        <time>2019-05-30T10:01:57Z</time>
      </trkpt>
      <trkpt lat="45.46074" lon="4.70067">
        <ele>366.5</ele>
        <time>2019-05-30T10:02:03Z</time>
      </trkpt>
      <trkpt lat="45.46064" lon="4.70043">
        <ele>366.55</ele>
        <time>2019-05-30T10:02:08Z</time>
      </trkpt>
      <trkpt lat="45.46058" lon="4.70017">
        <ele>367.09</ele>
        <time>2019-05-30T10:02:13Z</time>
      </trkpt>
      <trkpt lat="45.46053" lon="4.69992">
        <ele>368.09</ele>
        <time>2019-05-30T10:02:18Z</time>
      </trkpt>
      <trkpt lat="45.46049" lon="4.69963">
        <ele>369.39</ele>
        <time>2019-05-30T10:02:24Z</time>
      </trkpt>
      <trkpt lat="45.46046" lon="4.69936">
        <ele>370.64</ele>
        <time>2019-05-30T10:02:30Z</time>
      </trkpt>
      <trkpt lat="45.46043" lon="4.69907">
        <ele>372.4</ele>
        <time>2019-05-30T10:02:37Z</time>
      </trkpt>
      <trkpt lat="45.46038" lon="4.6988">
        <ele>374.08</ele>
        <time>2019-05-30T10:02:44Z</time>
      </trkpt>
      <trkpt lat="45.46029" lon="4.69855">
        <ele>374.13</ele>
        <time>2019-05-30T10:02:50Z</time>
      </trkpt>
      <trkpt lat="45.46019" lon="4.6983">
        <ele>374.87</ele>
        <time>2019-05-30T10:02:56Z</time>
      </trkpt>
      <trkpt lat="45.46006" lon="4.69807">
        <ele>375.39</ele>
        <time>2019-05-30T10:03:02Z</time>
      </trkpt>
      <trkpt lat="45.4599" lon="4.69791">
        <ele>375.37</ele>
        <time>2019-05-30T10:03:07Z</time>
      </trkpt>
      <trkpt lat="45.45973" lon="4.69777">
        <ele>374.67</ele>
        <time>2019-05-30T10:03:11Z</time>
      </trkpt>
      <trkpt lat="45.45949" lon="4.69766">
        <ele>373.76</ele>
        <time>2019-05-30T10:03:15Z</time>
      </trkpt>
      <trkpt lat="45.45933" lon="4.6975">
        <ele>372.77</ele>
        <time>2019-05-30T10:03:18Z</time>
      </trkpt>
      <trkpt lat="45.45921" lon="4.69726">
        <ele>372.39</ele>
        <time>2019-05-30T10:03:21Z</time>
      </trkpt>
      <trkpt lat="45.4591" lon="4.69704">
        <ele>372.25</ele>
        <time>2019-05-30T10:03:24Z</time>
      </trkpt>
      <trkpt lat="45.45897" lon="4.69677">
        <ele>372.14</ele>
        <time>2019-05-30T10:03:28Z</time>
      </trkpt>
      <trkpt lat="45.45886" lon="4.69649">
        <ele>371.89</ele>
        <time>2019-05-30T10:03:32Z</time>
      </trkpt>
      <trkpt lat="45.45878" lon="4.69623">
        <ele>372.33</ele>
        <time>2019-05-30T10:03:36Z</time>
      </trkpt>
      <trkpt lat="45.45871" lon="4.69594">
        <ele>372.56</ele>
        <time>2019-05-30T10:03:41Z</time>
      </trkpt>
      <trkpt lat="45.45868" lon="4.69564">
        <ele>373.09</ele>
        <time>2019-05-30T10:03:47Z</time>
      </trkpt>
      <trkpt lat="45.4586" lon="4.69537">
        <ele>373.94</ele>
        <time>2019-05-30T10:03:53Z</time>
      </trkpt>
      <trkpt lat="45.45844" lon="4.69524">
        <ele>374.15</ele>
        <time>2019-05-30T10:03:58Z</time>
      </trkpt>
      <trkpt lat="45.45832" lon="4.69499">
        <ele>375.3</ele>
        <time>2019-05-30T10:04:04Z</time>
      </trkpt>
      <trkpt lat="45.45815" lon="4.6948">
        <ele>376.81</ele>
        <time>2019-05-30T10:04:10Z</time>
      </trkpt>
      <trkpt lat="45.45797" lon="4.69464">
        <ele>378.58</ele>
        <time>2019-05-30T10:04:16Z</time>
      </trkpt>
      <trkpt lat="45.4578" lon="4.6945">
        <ele>380.36</ele>
        <time>2019-05-30T10:04:22Z</time>
      </trkpt>
      <trkpt lat="45.45762" lon="4.69436">
        <ele>381.77</ele>
        <time>2019-05-30T10:04:28Z</time>
      </trkpt>
      <trkpt lat="45.45744" lon="4.69421">
        <ele>383.58</ele>
        <time>2019-05-30T10:04:34Z</time>
      </trkpt>
      <trkpt lat="45.45727" lon="4.69408">
        <ele>384.66</ele>
        <time>2019-05-30T10:04:40Z</time>
      </trkpt>
      <trkpt lat="45.4571" lon="4.69394">
        <ele>385.9</ele>
        <time>2019-05-30T10:04:46Z</time>
      </trkpt>
      <trkpt lat="45.45693" lon="4.69381">
        <ele>387.21</ele>
        <time>2019-05-30T10:04:51Z</time>
      </trkpt>
      <trkpt lat="45.45678" lon="4.69366">
        <ele>388.6</ele>
        <time>2019-05-30T10:04:57Z</time>
      </trkpt>
      <trkpt lat="45.45664" lon="4.69347">
        <ele>390.07</ele>
        <time>2019-05-30T10:05:03Z</time>
      </trkpt>
      <trkpt lat="45.45646" lon="4.69335">
        <ele>390.98</ele>
        <time>2019-05-30T10:05:08Z</time>
      </trkpt>
      <trkpt lat="45.45628" lon="4.69332">
        <ele>390.54</ele>
        <time>2019-05-30T10:05:12Z</time>
      </trkpt>
      <trkpt lat="45.45608" lon="4.69322">
        <ele>390.6</ele>
        <time>2019-05-30T10:05:17Z</time>
      </trkpt>
      <trkpt lat="45.4559" lon="4.69314">
        <ele>390.75</ele>
        <time>2019-05-30T10:05:23Z</time>
      </trkpt>
      <trkpt lat="45.45568" lon="4.69298">
        <ele>387.81</ele>
        <time>2019-05-30T10:05:28Z</time>
      </trkpt>
      <trkpt lat="45.45549" lon="4.69293">
        <ele>385.05</ele>
        <time>2019-05-30T10:05:31Z</time>
      </trkpt>
      <trkpt lat="45.45529" lon="4.69298">
        <ele>383.35</ele>
        <time>2019-05-30T10:05:34Z</time>
      </trkpt>
      <trkpt lat="45.45507" lon="4.693">
        <ele>384.8</ele>
        <time>2019-05-30T10:05:38Z</time>
      </trkpt>
      <trkpt lat="45.45493" lon="4.69281">
        <ele>384.95</ele>
        <time>2019-05-30T10:05:44Z</time>
      </trkpt>
      <trkpt lat="45.45476" lon="4.69262">
        <ele>386.13</ele>
        <time>2019-05-30T10:05:52Z</time>
      </trkpt>
      <trkpt lat="45.45459" lon="4.69245">
        <ele>388.04</ele>
        <time>2019-05-30T10:05:59Z</time>
      </trkpt>
      <trkpt lat="45.4544" lon="4.69236">
        <ele>389.28</ele>
        <time>2019-05-30T10:06:05Z</time>
      </trkpt>
      <trkpt lat="45.45422" lon="4.69228">
        <ele>391.02</ele>
        <time>2019-05-30T10:06:11Z</time>
      </trkpt>
      <trkpt lat="45.45404" lon="4.69212">
        <ele>391.79</ele>
        <time>2019-05-30T10:06:17Z</time>
      </trkpt>
      <trkpt lat="45.45388" lon="4.6919">
        <ele>391.63</ele>
        <time>2019-05-30T10:06:23Z</time>
      </trkpt>
      <trkpt lat="45.45372" lon="4.69169">
        <ele>391.34</ele>
        <time>2019-05-30T10:06:28Z</time>
      </trkpt>
      <trkpt lat="45.45358" lon="4.69153">
        <ele>391.53</ele>
        <time>2019-05-30T10:06:32Z</time>
      </trkpt>
      <trkpt lat="45.4534" lon="4.69138">
        <ele>392.54</ele>
        <time>2019-05-30T10:06:37Z</time>
      </trkpt>
      <trkpt lat="45.45324" lon="4.69124">
        <ele>393.79</ele>
        <time>2019-05-30T10:06:43Z</time>
      </trkpt>
      <trkpt lat="45.45309" lon="4.69109">
        <ele>395.78</ele>
        <time>2019-05-30T10:06:50Z</time>
      </trkpt>
      <trkpt lat="45.45292" lon="4.69099">
        <ele>398.54</ele>
        <time>2019-05-30T10:06:57Z</time>
      </trkpt>
      <trkpt lat="45.45272" lon="4.6909">
        <ele>400.79</ele>
        <time>2019-05-30T10:07:05Z</time>
      </trkpt>
      <trkpt lat="45.45252" lon="4.69092">
        <ele>401.2</ele>
        <time>2019-05-30T10:07:12Z</time>
      </trkpt>
      <trkpt lat="45.45233" lon="4.69098">
        <ele>401.69</ele>
        <time>2019-05-30T10:07:18Z</time>
      </trkpt>
      <trkpt lat="45.45215" lon="4.69104">
        <ele>401.78</ele>
        <time>2019-05-30T10:07:24Z</time>
      </trkpt>
      <trkpt lat="45.45197" lon="4.6911">
        <ele>402.06</ele>
        <time>2019-05-30T10:07:29Z</time>
      </trkpt>
      <trkpt lat="45.45178" lon="4.69118">
        <ele>402.49</ele>
        <time>2019-05-30T10:07:35Z</time>
      </trkpt>
      <trkpt lat="45.45158" lon="4.69121">
        <ele>402.74</ele>
        <time>2019-05-30T10:07:43Z</time>
      </trkpt>
      <trkpt lat="45.45143" lon="4.69104">
        <ele>405.07</ele>
        <time>2019-05-30T10:07:54Z</time>
      </trkpt>
      <trkpt lat="45.4513" lon="4.69085">
        <ele>407.48</ele>
        <time>2019-05-30T10:08:03Z</time>
      </trkpt>
      <trkpt lat="45.45114" lon="4.6907">
        <ele>411.08</ele>
        <time>2019-05-30T10:08:14Z</time>
      </trkpt>
      <trkpt lat="45.45097" lon="4.69062">
        <ele>412.63</ele>
        <time>2019-05-30T10:08:23Z</time>
      </trkpt>
      <trkpt lat="45.45081" lon="4.69047">
        <ele>415.9</ele>
        <time>2019-05-30T10:08:34Z</time>
      </trkpt>
      <trkpt lat="45.45064" lon="4.69037">
        <ele>418.84</ele>
        <time>2019-05-30T10:08:44Z</time>
      </trkpt>
      <trkpt lat="45.4505" lon="4.69053">
        <ele>419.16</ele>
        <time>2019-05-30T10:08:55Z</time>
      </trkpt>
      <trkpt lat="45.45042" lon="4.69078">
        <ele>420.56</ele>
        <time>2019-05-30T10:09:05Z</time>
      </trkpt>
      <trkpt lat="45.4503" lon="4.69101">
        <ele>422.44</ele>
        <time>2019-05-30T10:09:14Z</time>
      </trkpt>
      <trkpt lat="45.45018" lon="4.69122">
        <ele>424.9</ele>
        <time>2019-05-30T10:09:23Z</time>
      </trkpt>
      <trkpt lat="45.45007" lon="4.69144">
        <ele>427.74</ele>
        <time>2019-05-30T10:09:33Z</time>
      </trkpt>
      <trkpt lat="45.44997" lon="4.69168">
        <ele>431.86</ele>
        <time>2019-05-30T10:09:44Z</time>
      </trkpt>
      <trkpt lat="45.4498" lon="4.6918">
        <ele>434.9</ele>
        <time>2019-05-30T10:09:51Z</time>
      </trkpt>
      <trkpt lat="45.44963" lon="4.69191">
        <ele>437.66</ele>
        <time>2019-05-30T10:10:01Z</time>
      </trkpt>
      <trkpt lat="45.44945" lon="4.69201">
        <ele>441.97</ele>
        <time>2019-05-30T10:10:13Z</time>
      </trkpt>
      <trkpt lat="45.44926" lon="4.69207">
        <ele>445.34</ele>
        <time>2019-05-30T10:10:22Z</time>
      </trkpt>
      <trkpt lat="45.44908" lon="4.69217">
        <ele>447.49</ele>
        <time>2019-05-30T10:10:31Z</time>
      </trkpt>
      <trkpt lat="45.44889" lon="4.69223">
        <ele>450.3</ele>
        <time>2019-05-30T10:10:39Z</time>
      </trkpt>
      <trkpt lat="45.4487" lon="4.69226">
        <ele>453.92</ele>
        <time>2019-05-30T10:10:49Z</time>
      </trkpt>
      <trkpt lat="45.44851" lon="4.69231">
        <ele>456.86</ele>
        <time>2019-05-30T10:11:00Z</time>
      </trkpt>
      <trkpt lat="45.44832" lon="4.69236">
        <ele>460.66</ele>
        <time>2019-05-30T10:11:11Z</time>
      </trkpt>
      <trkpt lat="45.44813" lon="4.69238">
        <ele>463.17</ele>
        <time>2019-05-30T10:13:58Z</time>
      </trkpt>
      <trkpt lat="45.44794" lon="4.6923">
        <ele>463.2</ele>
        <time>2019-05-30T10:14:06Z</time>
      </trkpt>
      <trkpt lat="45.44777" lon="4.69219">
        <ele>462.98</ele>
        <time>2019-05-30T10:14:12Z</time>
      </trkpt>
      <trkpt lat="45.4476" lon="4.69204">
        <ele>462.89</ele>
        <time>2019-05-30T10:14:18Z</time>
      </trkpt>
      <trkpt lat="45.44745" lon="4.69189">
        <ele>462.51</ele>
        <time>2019-05-30T10:14:24Z</time>
      </trkpt>
      <trkpt lat="45.44727" lon="4.69173">
        <ele>462.3</ele>
        <time>2019-05-30T10:14:30Z</time>
      </trkpt>
      <trkpt lat="45.44709" lon="4.69158">
        <ele>462.49</ele>
        <time>2019-05-30T10:14:36Z</time>
      </trkpt>
      <trkpt lat="45.44693" lon="4.69145">
        <ele>463.06</ele>
        <time>2019-05-30T10:14:42Z</time>
      </trkpt>
      <trkpt lat="45.44677" lon="4.69132">
        <ele>463.25</ele>
        <time>2019-05-30T10:14:48Z</time>
      </trkpt>
      <trkpt lat="45.44659" lon="4.69117">
        <ele>462.32</ele>
        <time>2019-05-30T10:14:54Z</time>
      </trkpt>
      <trkpt lat="45.44641" lon="4.69101">
        <ele>461.38</ele>
        <time>2019-05-30T10:14:58Z</time>
      </trkpt>
      <trkpt lat="45.44621" lon="4.69083">
        <ele>461.21</ele>
        <time>2019-05-30T10:15:02Z</time>
      </trkpt>
      <trkpt lat="45.44602" lon="4.69068">
        <ele>461.14</ele>
        <time>2019-05-30T10:15:06Z</time>
      </trkpt>
      <trkpt lat="45.44586" lon="4.69053">
        <ele>461.28</ele>
        <time>2019-05-30T10:15:10Z</time>
      </trkpt>
      <trkpt lat="45.44569" lon="4.69033">
        <ele>461.91</ele>
        <time>2019-05-30T10:15:15Z</time>
      </trkpt>
      <trkpt lat="45.44553" lon="4.69016">
        <ele>461.79</ele>
        <time>2019-05-30T10:15:19Z</time>
      </trkpt>
      <trkpt lat="45.44537" lon="4.68999">
        <ele>461.59</ele>
        <time>2019-05-30T10:15:23Z</time>
      </trkpt>
      <trkpt lat="45.44521" lon="4.68983">
        <ele>461.37</ele>
        <time>2019-05-30T10:15:27Z</time>
      </trkpt>
      <trkpt lat="45.44507" lon="4.68965">
        <ele>461.34</ele>
        <time>2019-05-30T10:15:31Z</time>
      </trkpt>
      <trkpt lat="45.44492" lon="4.68949">
        <ele>461.39</ele>
        <time>2019-05-30T10:15:35Z</time>
      </trkpt>
      <trkpt lat="45.44473" lon="4.68936">
        <ele>461.09</ele>
        <time>2019-05-30T10:15:39Z</time>
      </trkpt>
      <trkpt lat="45.44453" lon="4.68926">
        <ele>461.05</ele>
        <time>2019-05-30T10:15:43Z</time>
      </trkpt>
      <trkpt lat="45.44435" lon="4.68917">
        <ele>460.84</ele>
        <time>2019-05-30T10:15:47Z</time>
      </trkpt>
      <trkpt lat="45.44416" lon="4.6891">
        <ele>460.82</ele>
        <time>2019-05-30T10:15:51Z</time>
      </trkpt>
      <trkpt lat="45.44397" lon="4.68901">
        <ele>460.72</ele>
        <time>2019-05-30T10:15:55Z</time>
      </trkpt>
      <trkpt lat="45.44379" lon="4.68888">
        <ele>460.6</ele>
        <time>2019-05-30T10:15:59Z</time>
      </trkpt>
      <trkpt lat="45.44363" lon="4.68865">
        <ele>459.73</ele>
        <time>2019-05-30T10:16:04Z</time>
      </trkpt>
      <trkpt lat="45.44355" lon="4.68841">
        <ele>459.33</ele>
        <time>2019-05-30T10:16:08Z</time>
      </trkpt>
      <trkpt lat="45.44346" lon="4.68811">
        <ele>458.71</ele>
        <time>2019-05-30T10:16:12Z</time>
      </trkpt>
      <trkpt lat="45.44344" lon="4.68776">
        <ele>457.88</ele>
        <time>2019-05-30T10:16:16Z</time>
      </trkpt>
      <trkpt lat="45.44342" lon="4.68748">
        <ele>457.27</ele>
        <time>2019-05-30T10:16:19Z</time>
      </trkpt>
      <trkpt lat="45.44343" lon="4.68718">
        <ele>457.11</ele>
        <time>2019-05-30T10:16:22Z</time>
      </trkpt>
      <trkpt lat="45.44344" lon="4.68689">
        <ele>455.62</ele>
        <time>2019-05-30T10:16:25Z</time>
      </trkpt>
      <trkpt lat="45.44349" lon="4.6866">
        <ele>455</ele>
        <time>2019-05-30T10:16:28Z</time>
      </trkpt>
      <trkpt lat="45.44354" lon="4.68635">
        <ele>454.8</ele>
        <time>2019-05-30T10:16:31Z</time>
      </trkpt>
      <trkpt lat="45.44362" lon="4.68605">
        <ele>455.49</ele>
        <time>2019-05-30T10:16:35Z</time>
      </trkpt>
      <trkpt lat="45.44367" lon="4.68578">
        <ele>455.42</ele>
        <time>2019-05-30T10:16:39Z</time>
      </trkpt>
      <trkpt lat="45.44372" lon="4.68553">
        <ele>455.32</ele>
        <time>2019-05-30T10:16:43Z</time>
      </trkpt>
      <trkpt lat="45.4438" lon="4.68526">
        <ele>455.89</ele>
        <time>2019-05-30T10:16:48Z</time>
      </trkpt>
      <trkpt lat="45.4439" lon="4.68503">
        <ele>456.98</ele>
        <time>2019-05-30T10:16:54Z</time>
      </trkpt>
      <trkpt lat="45.44395" lon="4.68475">
        <ele>457.53</ele>
        <time>2019-05-30T10:17:00Z</time>
      </trkpt>
      <trkpt lat="45.44391" lon="4.68444">
        <ele>456.43</ele>
        <time>2019-05-30T10:17:05Z</time>
      </trkpt>
      <trkpt lat="45.44394" lon="4.68414">
        <ele>455.55</ele>
        <time>2019-05-30T10:17:09Z</time>
      </trkpt>
      <trkpt lat="45.4441" lon="4.68391">
        <ele>455.05</ele>
        <time>2019-05-30T10:17:13Z</time>
      </trkpt>
      <trkpt lat="45.44427" lon="4.68373">
        <ele>455.02</ele>
        <time>2019-05-30T10:17:17Z</time>
      </trkpt>
      <trkpt lat="45.44447" lon="4.68358">
        <ele>454.59</ele>
        <time>2019-05-30T10:17:21Z</time>
      </trkpt>
      <trkpt lat="45.44461" lon="4.6834">
        <ele>454.67</ele>
        <time>2019-05-30T10:17:25Z</time>
      </trkpt>
      <trkpt lat="45.44478" lon="4.6832">
        <ele>453.72</ele>
        <time>2019-05-30T10:17:29Z</time>
      </trkpt>
      <trkpt lat="45.4449" lon="4.68295">
        <ele>453.41</ele>
        <time>2019-05-30T10:17:33Z</time>
      </trkpt>
      <trkpt lat="45.44486" lon="4.68266">
        <ele>452.31</ele>
        <time>2019-05-30T10:17:37Z</time>
      </trkpt>
      <trkpt lat="45.44478" lon="4.68241">
        <ele>451.18</ele>
        <time>2019-05-30T10:17:40Z</time>
      </trkpt>
      <trkpt lat="45.44469" lon="4.68216">
        <ele>450.66</ele>
        <time>2019-05-30T10:17:43Z</time>
      </trkpt>
      <trkpt lat="45.44461" lon="4.68191">
        <ele>450.06</ele>
        <time>2019-05-30T10:17:46Z</time>
      </trkpt>
      <trkpt lat="45.44454" lon="4.68166">
        <ele>449.13</ele>
        <time>2019-05-30T10:17:49Z</time>
      </trkpt>
      <trkpt lat="45.44448" lon="4.68139">
        <ele>448.19</ele>
        <time>2019-05-30T10:17:54Z</time>
      </trkpt>
      <trkpt lat="45.44445" lon="4.68113">
        <ele>447.83</ele>
        <time>2019-05-30T10:17:58Z</time>
      </trkpt>
      <trkpt lat="45.44432" lon="4.68087">
        <ele>447.4</ele>
        <time>2019-05-30T10:18:03Z</time>
      </trkpt>
      <trkpt lat="45.44416" lon="4.68065">
        <ele>446.47</ele>
        <time>2019-05-30T10:18:07Z</time>
      </trkpt>
      <trkpt lat="45.44401" lon="4.68042">
        <ele>445.08</ele>
        <time>2019-05-30T10:18:10Z</time>
      </trkpt>
      <trkpt lat="45.44385" lon="4.68022">
        <ele>443.86</ele>
        <time>2019-05-30T10:18:13Z</time>
      </trkpt>
      <trkpt lat="45.44369" lon="4.68">
        <ele>442.29</ele>
        <time>2019-05-30T10:18:17Z</time>
      </trkpt>
      <trkpt lat="45.44353" lon="4.6798">
        <ele>441.39</ele>
        <time>2019-05-30T10:18:21Z</time>
      </trkpt>
      <trkpt lat="45.4434" lon="4.67962">
        <ele>440.48</ele>
        <time>2019-05-30T10:18:24Z</time>
      </trkpt>
      <trkpt lat="45.44324" lon="4.67944">
        <ele>438.69</ele>
        <time>2019-05-30T10:18:28Z</time>
      </trkpt>
      <trkpt lat="45.44309" lon="4.6793">
        <ele>437.2</ele>
        <time>2019-05-30T10:18:33Z</time>
      </trkpt>
      <trkpt lat="45.44289" lon="4.67932">
        <ele>436.63</ele>
        <time>2019-05-30T10:20:30Z</time>
      </trkpt>
      <trkpt lat="45.44269" lon="4.67932">
        <ele>435.57</ele>
        <time>2019-05-30T10:20:35Z</time>
      </trkpt>
      <trkpt lat="45.44247" lon="4.67935">
        <ele>434.15</ele>
        <time>2019-05-30T10:20:39Z</time>
      </trkpt>
      <trkpt lat="45.44227" lon="4.67934">
        <ele>433.03</ele>
        <time>2019-05-30T10:20:42Z</time>
      </trkpt>
      <trkpt lat="45.44205" lon="4.67925">
        <ele>431.42</ele>
        <time>2019-05-30T10:20:45Z</time>
      </trkpt>
      <trkpt lat="45.44182" lon="4.67917">
        <ele>429.8</ele>
        <time>2019-05-30T10:20:48Z</time>
      </trkpt>
      <trkpt lat="45.44158" lon="4.67907">
        <ele>428.05</ele>
        <time>2019-05-30T10:20:51Z</time>
      </trkpt>
      <trkpt lat="45.44135" lon="4.67897">
        <ele>426.88</ele>
        <time>2019-05-30T10:20:54Z</time>
      </trkpt>
      <trkpt lat="45.44113" lon="4.67882">
        <ele>425.06</ele>
        <time>2019-05-30T10:20:57Z</time>
      </trkpt>
      <trkpt lat="45.44092" lon="4.67867">
        <ele>424.15</ele>
        <time>2019-05-30T10:21:00Z</time>
      </trkpt>
      <trkpt lat="45.44075" lon="4.67852">
        <ele>423.49</ele>
        <time>2019-05-30T10:21:03Z</time>
      </trkpt>
      <trkpt lat="45.44055" lon="4.67835">
        <ele>421.71</ele>
        <time>2019-05-30T10:21:06Z</time>
      </trkpt>
      <trkpt lat="45.4404" lon="4.67819">
        <ele>421.36</ele>
        <time>2019-05-30T10:21:09Z</time>
      </trkpt>
      <trkpt lat="45.44022" lon="4.67803">
        <ele>419.94</ele>
        <time>2019-05-30T10:21:12Z</time>
      </trkpt>
      <trkpt lat="45.44005" lon="4.67787">
        <ele>418.42</ele>
        <time>2019-05-30T10:21:15Z</time>
      </trkpt>
      <trkpt lat="45.43985" lon="4.67773">
        <ele>416.53</ele>
        <time>2019-05-30T10:21:18Z</time>
      </trkpt>
      <trkpt lat="45.43966" lon="4.67757">
        <ele>414.74</ele>
        <time>2019-05-30T10:21:21Z</time>
      </trkpt>
      <trkpt lat="45.4395" lon="4.67741">
        <ele>414.19</ele>
        <time>2019-05-30T10:21:23Z</time>
      </trkpt>
      <trkpt lat="45.43931" lon="4.6772">
        <ele>412.97</ele>
        <time>2019-05-30T10:21:26Z</time>
      </trkpt>
      <trkpt lat="45.43912" lon="4.67696">
        <ele>411.75</ele>
        <time>2019-05-30T10:21:29Z</time>
      </trkpt>
      <trkpt lat="45.43894" lon="4.67674">
        <ele>410.95</ele>
        <time>2019-05-30T10:21:32Z</time>
      </trkpt>
      <trkpt lat="45.43873" lon="4.67653">
        <ele>410.54</ele>
        <time>2019-05-30T10:21:35Z</time>
      </trkpt>
      <trkpt lat="45.43855" lon="4.67633">
        <ele>410.24</ele>
        <time>2019-05-30T10:21:38Z</time>
      </trkpt>
      <trkpt lat="45.43835" lon="4.67614">
        <ele>409.88</ele>
        <time>2019-05-30T10:21:41Z</time>
      </trkpt>
      <trkpt lat="45.43816" lon="4.67599">
        <ele>409.25</ele>
        <time>2019-05-30T10:21:44Z</time>
      </trkpt>
      <trkpt lat="45.43798" lon="4.67586">
        <ele>408.47</ele>
        <time>2019-05-30T10:21:47Z</time>
      </trkpt>
      <trkpt lat="45.4378" lon="4.67577">
        <ele>408.14</ele>
        <time>2019-05-30T10:21:50Z</time>
      </trkpt>
      <trkpt lat="45.43761" lon="4.67567">
        <ele>407.37</ele>
        <time>2019-05-30T10:21:53Z</time>
      </trkpt>
      <trkpt lat="45.4374" lon="4.67554">
        <ele>406.29</ele>
        <time>2019-05-30T10:21:56Z</time>
      </trkpt>
      <trkpt lat="45.4372" lon="4.67541">
        <ele>405.05</ele>
        <time>2019-05-30T10:21:59Z</time>
      </trkpt>
      <trkpt lat="45.437" lon="4.67531">
        <ele>403.53</ele>
        <time>2019-05-30T10:22:02Z</time>
      </trkpt>
      <trkpt lat="45.43685" lon="4.67517">
        <ele>401.82</ele>
        <time>2019-05-30T10:22:07Z</time>
      </trkpt>
      <trkpt lat="45.43685" lon="4.67487">
        <ele>402.35</ele>
        <time>2019-05-30T10:23:01Z</time>
      </trkpt>
      <trkpt lat="45.43684" lon="4.67461">
        <ele>404.14</ele>
        <time>2019-05-30T10:23:08Z</time>
      </trkpt>
      <trkpt lat="45.43685" lon="4.67434">
        <ele>405.15</ele>
        <time>2019-05-30T10:23:15Z</time>
      </trkpt>
      <trkpt lat="45.43686" lon="4.67405">
        <ele>405.92</ele>
        <time>2019-05-30T10:23:22Z</time>
      </trkpt>
      <trkpt lat="45.43689" lon="4.67375">
        <ele>406.76</ele>
        <time>2019-05-30T10:23:29Z</time>
      </trkpt>
      <trkpt lat="45.43693" lon="4.67349">
        <ele>407.64</ele>
        <time>2019-05-30T10:23:35Z</time>
      </trkpt>
      <trkpt lat="45.43695" lon="4.6732">
        <ele>409.24</ele>
        <time>2019-05-30T10:23:42Z</time>
      </trkpt>
      <trkpt lat="45.43696" lon="4.67291">
        <ele>411.14</ele>
        <time>2019-05-30T10:23:49Z</time>
      </trkpt>
      <trkpt lat="45.43699" lon="4.67263">
        <ele>413.36</ele>
        <time>2019-05-30T10:23:57Z</time>
      </trkpt>
      <trkpt lat="45.437" lon="4.67236">
        <ele>415.94</ele>
        <time>2019-05-30T10:24:05Z</time>
      </trkpt>
      <trkpt lat="45.43693" lon="4.67211">
        <ele>416.89</ele>
        <time>2019-05-30T10:24:12Z</time>
      </trkpt>
      <trkpt lat="45.43684" lon="4.67187">
        <ele>417.26</ele>
        <time>2019-05-30T10:24:19Z</time>
      </trkpt>
      <trkpt lat="45.43677" lon="4.67162">
        <ele>417.75</ele>
        <time>2019-05-30T10:24:26Z</time>
      </trkpt>
      <trkpt lat="45.4367" lon="4.67135">
        <ele>418.55</ele>
        <time>2019-05-30T10:24:33Z</time>
      </trkpt>
      <trkpt lat="45.43662" lon="4.67111">
        <ele>419.43</ele>
        <time>2019-05-30T10:24:39Z</time>
      </trkpt>
      <trkpt lat="45.43657" lon="4.67086">
        <ele>419.82</ele>
        <time>2019-05-30T10:24:45Z</time>
      </trkpt>
      <trkpt lat="45.43649" lon="4.67059">
        <ele>420.76</ele>
        <time>2019-05-30T10:24:52Z</time>
      </trkpt>
      <trkpt lat="45.43642" lon="4.67032">
        <ele>421.95</ele>
        <time>2019-05-30T10:24:59Z</time>
      </trkpt>
      <trkpt lat="45.43635" lon="4.67006">
        <ele>423.17</ele>
        <time>2019-05-30T10:25:06Z</time>
      </trkpt>
      <trkpt lat="45.43631" lon="4.66979">
        <ele>424.86</ele>
        <time>2019-05-30T10:25:14Z</time>
      </trkpt>
      <trkpt lat="45.43628" lon="4.66952">
        <ele>425.91</ele>
        <time>2019-05-30T10:25:21Z</time>
      </trkpt>
      <trkpt lat="45.43624" lon="4.66925">
        <ele>427.79</ele>
        <time>2019-05-30T10:25:29Z</time>
      </trkpt>
      <trkpt lat="45.43617" lon="4.669">
        <ele>428.48</ele>
        <time>2019-05-30T10:25:36Z</time>
      </trkpt>
      <trkpt lat="45.43611" lon="4.66872">
        <ele>429.02</ele>
        <time>2019-05-30T10:25:43Z</time>
      </trkpt>
      <trkpt lat="45.43606" lon="4.66846">
        <ele>428.98</ele>
        <time>2019-05-30T10:25:49Z</time>
      </trkpt>
      <trkpt lat="45.43607" lon="4.6682">
        <ele>428.38</ele>
        <time>2019-05-30T10:25:55Z</time>
      </trkpt>
      <trkpt lat="45.43595" lon="4.66798">
        <ele>428.93</ele>
        <time>2019-05-30T10:26:02Z</time>
      </trkpt>
      <trkpt lat="45.43589" lon="4.66771">
        <ele>430.09</ele>
        <time>2019-05-30T10:26:36Z</time>
      </trkpt>
      <trkpt lat="45.43595" lon="4.66745">
        <ele>431.49</ele>
        <time>2019-05-30T10:26:44Z</time>
      </trkpt>
      <trkpt lat="45.43603" lon="4.6672">
        <ele>432.69</ele>
        <time>2019-05-30T10:26:51Z</time>
      </trkpt>
      <trkpt lat="45.43609" lon="4.66693">
        <ele>434.09</ele>
        <time>2019-05-30T10:26:59Z</time>
      </trkpt>
      <trkpt lat="45.43618" lon="4.66669">
        <ele>435.71</ele>
        <time>2019-05-30T10:27:07Z</time>
      </trkpt>
      <trkpt lat="45.43634" lon="4.66657">
        <ele>436.97</ele>
        <time>2019-05-30T10:27:14Z</time>
      </trkpt>
      <trkpt lat="45.43653" lon="4.66649">
        <ele>438.43</ele>
        <time>2019-05-30T10:27:22Z</time>
      </trkpt>
      <trkpt lat="45.43672" lon="4.66641">
        <ele>440.1</ele>
        <time>2019-05-30T10:27:30Z</time>
      </trkpt>
      <trkpt lat="45.43689" lon="4.66631">
        <ele>441.86</ele>
        <time>2019-05-30T10:27:38Z</time>
      </trkpt>
      <trkpt lat="45.43708" lon="4.66617">
        <ele>443.87</ele>
        <time>2019-05-30T10:27:47Z</time>
      </trkpt>
      <trkpt lat="45.43724" lon="4.66608">
        <ele>445.75</ele>
        <time>2019-05-30T10:27:54Z</time>
      </trkpt>
      <trkpt lat="45.43742" lon="4.66594">
        <ele>448.24</ele>
        <time>2019-05-30T10:28:02Z</time>
      </trkpt>
      <trkpt lat="45.43749" lon="4.66567">
        <ele>450.72</ele>
        <time>2019-05-30T10:28:12Z</time>
      </trkpt>
      <trkpt lat="45.43747" lon="4.6654">
        <ele>452.58</ele>
        <time>2019-05-30T10:28:21Z</time>
      </trkpt>
      <trkpt lat="45.4375" lon="4.66515">
        <ele>454.59</ele>
        <time>2019-05-30T10:28:29Z</time>
      </trkpt>
      <trkpt lat="45.43748" lon="4.66487">
        <ele>455.92</ele>
        <time>2019-05-30T10:28:37Z</time>
      </trkpt>
      <trkpt lat="45.43746" lon="4.6646">
        <ele>457.78</ele>
        <time>2019-05-30T10:28:45Z</time>
      </trkpt>
      <trkpt lat="45.43749" lon="4.66433">
        <ele>459.3</ele>
        <time>2019-05-30T10:28:53Z</time>
      </trkpt>
      <trkpt lat="45.43757" lon="4.66407">
        <ele>460.79</ele>
        <time>2019-05-30T10:29:01Z</time>
      </trkpt>
      <trkpt lat="45.43766" lon="4.66385">
        <ele>462.06</ele>
        <time>2019-05-30T10:29:14Z</time>
      </trkpt>
      <trkpt lat="45.43776" lon="4.66361">
        <ele>463.45</ele>
        <time>2019-05-30T10:29:22Z</time>
      </trkpt>
      <trkpt lat="45.43783" lon="4.66338">
        <ele>465.09</ele>
        <time>2019-05-30T10:29:30Z</time>
      </trkpt>
      <trkpt lat="45.43788" lon="4.66309">
        <ele>466.72</ele>
        <time>2019-05-30T10:29:38Z</time>
      </trkpt>
      <trkpt lat="45.43793" lon="4.66282">
        <ele>468.47</ele>
        <time>2019-05-30T10:29:46Z</time>
      </trkpt>
      <trkpt lat="45.43794" lon="4.66255">
        <ele>470.2</ele>
        <time>2019-05-30T10:29:54Z</time>
      </trkpt>
      <trkpt lat="45.43798" lon="4.6623">
        <ele>471.66</ele>
        <time>2019-05-30T10:30:01Z</time>
      </trkpt>
      <trkpt lat="45.43804" lon="4.66204">
        <ele>473.38</ele>
        <time>2019-05-30T10:30:09Z</time>
      </trkpt>
      <trkpt lat="45.43808" lon="4.66179">
        <ele>474.93</ele>
        <time>2019-05-30T10:30:17Z</time>
      </trkpt>
      <trkpt lat="45.43812" lon="4.66151">
        <ele>476.25</ele>
        <time>2019-05-30T10:30:25Z</time>
      </trkpt>
      <trkpt lat="45.43813" lon="4.66124">
        <ele>477.59</ele>
        <time>2019-05-30T10:30:33Z</time>
      </trkpt>
      <trkpt lat="45.43817" lon="4.66096">
        <ele>479.02</ele>
        <time>2019-05-30T10:30:41Z</time>
      </trkpt>
      <trkpt lat="45.43827" lon="4.66074">
        <ele>480.33</ele>
        <time>2019-05-30T10:30:48Z</time>
      </trkpt>
      <trkpt lat="45.43842" lon="4.66055">
        <ele>481.67</ele>
        <time>2019-05-30T10:30:56Z</time>
      </trkpt>
      <trkpt lat="45.43862" lon="4.66047">
        <ele>483.45</ele>
        <time>2019-05-30T10:31:05Z</time>
      </trkpt>
      <trkpt lat="45.43882" lon="4.6605">
        <ele>484.89</ele>
        <time>2019-05-30T10:31:13Z</time>
      </trkpt>
      <trkpt lat="45.439" lon="4.6605">
        <ele>486.19</ele>
        <time>2019-05-30T10:31:20Z</time>
      </trkpt>
      <trkpt lat="45.43919" lon="4.66054">
        <ele>487.84</ele>
        <time>2019-05-30T10:31:28Z</time>
      </trkpt>
      <trkpt lat="45.43938" lon="4.66053">
        <ele>489.57</ele>
        <time>2019-05-30T10:31:37Z</time>
      </trkpt>
      <trkpt lat="45.43956" lon="4.66052">
        <ele>490.98</ele>
        <time>2019-05-30T10:31:44Z</time>
      </trkpt>
      <trkpt lat="45.43976" lon="4.66045">
        <ele>492.69</ele>
        <time>2019-05-30T10:31:52Z</time>
      </trkpt>
      <trkpt lat="45.43995" lon="4.66051">
        <ele>494</ele>
        <time>2019-05-30T10:31:59Z</time>
      </trkpt>
      <trkpt lat="45.44014" lon="4.66063">
        <ele>495.17</ele>
        <time>2019-05-30T10:32:07Z</time>
      </trkpt>
      <trkpt lat="45.44032" lon="4.6607">
        <ele>497.01</ele>
        <time>2019-05-30T10:32:14Z</time>
      </trkpt>
      <trkpt lat="45.44051" lon="4.66079">
        <ele>497.61</ele>
        <time>2019-05-30T10:32:24Z</time>
      </trkpt>
      <trkpt lat="45.44069" lon="4.6607">
        <ele>497.06</ele>
        <time>2019-05-30T10:32:30Z</time>
      </trkpt>
      <trkpt lat="45.44086" lon="4.66057">
        <ele>496.63</ele>
        <time>2019-05-30T10:32:35Z</time>
      </trkpt>
      <trkpt lat="45.441" lon="4.66035">
        <ele>496</ele>
        <time>2019-05-30T10:32:40Z</time>
      </trkpt>
      <trkpt lat="45.44107" lon="4.66007">
        <ele>495.66</ele>
        <time>2019-05-30T10:32:45Z</time>
      </trkpt>
      <trkpt lat="45.44104" lon="4.65979">
        <ele>495.05</ele>
        <time>2019-05-30T10:32:50Z</time>
      </trkpt>
      <trkpt lat="45.441" lon="4.65951">
        <ele>494.6</ele>
        <time>2019-05-30T10:32:55Z</time>
      </trkpt>
      <trkpt lat="45.44098" lon="4.65922">
        <ele>494.42</ele>
        <time>2019-05-30T10:33:01Z</time>
      </trkpt>
      <trkpt lat="45.44095" lon="4.65894">
        <ele>494.16</ele>
        <time>2019-05-30T10:33:06Z</time>
      </trkpt>
      <trkpt lat="45.4409" lon="4.65869">
        <ele>493.82</ele>
        <time>2019-05-30T10:33:10Z</time>
      </trkpt>
      <trkpt lat="45.44086" lon="4.65839">
        <ele>493.62</ele>
        <time>2019-05-30T10:33:15Z</time>
      </trkpt>
      <trkpt lat="45.44077" lon="4.65809">
        <ele>493.26</ele>
        <time>2019-05-30T10:33:20Z</time>
      </trkpt>
      <trkpt lat="45.44068" lon="4.65785">
        <ele>493.07</ele>
        <time>2019-05-30T10:33:24Z</time>
      </trkpt>
      <trkpt lat="45.44056" lon="4.65763">
        <ele>493.02</ele>
        <time>2019-05-30T10:33:28Z</time>
      </trkpt>
      <trkpt lat="45.44041" lon="4.65738">
        <ele>492.73</ele>
        <time>2019-05-30T10:33:33Z</time>
      </trkpt>
      <trkpt lat="45.4403" lon="4.65711">
        <ele>492.59</ele>
        <time>2019-05-30T10:33:38Z</time>
      </trkpt>
      <trkpt lat="45.44017" lon="4.6569">
        <ele>492.6</ele>
        <time>2019-05-30T10:33:42Z</time>
      </trkpt>
      <trkpt lat="45.44005" lon="4.65668">
        <ele>492.18</ele>
        <time>2019-05-30T10:33:46Z</time>
      </trkpt>
      <trkpt lat="45.43995" lon="4.65646">
        <ele>492.04</ele>
        <time>2019-05-30T10:33:50Z</time>
      </trkpt>
      <trkpt lat="45.43984" lon="4.65625">
        <ele>491.93</ele>
        <time>2019-05-30T10:33:54Z</time>
      </trkpt>
      <trkpt lat="45.43974" lon="4.65601">
        <ele>491.54</ele>
        <time>2019-05-30T10:33:58Z</time>
      </trkpt>
      <trkpt lat="45.43964" lon="4.65578">
        <ele>491.16</ele>
        <time>2019-05-30T10:34:02Z</time>
      </trkpt>
      <trkpt lat="45.43954" lon="4.65552">
        <ele>490.96</ele>
        <time>2019-05-30T10:34:06Z</time>
      </trkpt>
      <trkpt lat="45.4394" lon="4.65529">
        <ele>490.55</ele>
        <time>2019-05-30T10:34:10Z</time>
      </trkpt>
      <trkpt lat="45.43926" lon="4.65509">
        <ele>490</ele>
        <time>2019-05-30T10:34:14Z</time>
      </trkpt>
      <trkpt lat="45.43913" lon="4.65485">
        <ele>489.8</ele>
        <time>2019-05-30T10:34:19Z</time>
      </trkpt>
      <trkpt lat="45.43904" lon="4.65458">
        <ele>489.52</ele>
        <time>2019-05-30T10:34:23Z</time>
      </trkpt>
      <trkpt lat="45.43902" lon="4.6543">
        <ele>489.4</ele>
        <time>2019-05-30T10:34:27Z</time>
      </trkpt>
      <trkpt lat="45.43902" lon="4.65399">
        <ele>489.18</ele>
        <time>2019-05-30T10:34:32Z</time>
      </trkpt>
      <trkpt lat="45.43904" lon="4.65369">
        <ele>488.76</ele>
        <time>2019-05-30T10:34:36Z</time>
      </trkpt>
      <trkpt lat="45.43904" lon="4.6534">
        <ele>488.33</ele>
        <time>2019-05-30T10:34:40Z</time>
      </trkpt>
      <trkpt lat="45.43899" lon="4.65313">
        <ele>487.93</ele>
        <time>2019-05-30T10:34:44Z</time>
      </trkpt>
      <trkpt lat="45.43889" lon="4.65291">
        <ele>487.95</ele>
        <time>2019-05-30T10:34:48Z</time>
      </trkpt>
      <trkpt lat="45.43873" lon="4.65271">
        <ele>487.7</ele>
        <time>2019-05-30T10:34:52Z</time>
      </trkpt>
      <trkpt lat="45.43859" lon="4.65253">
        <ele>487.76</ele>
        <time>2019-05-30T10:34:58Z</time>
      </trkpt>
      <trkpt lat="45.43843" lon="4.65239">
        <ele>487.61</ele>
        <time>2019-05-30T10:35:03Z</time>
      </trkpt>
      <trkpt lat="45.43825" lon="4.65219">
        <ele>487.64</ele>
        <time>2019-05-30T10:35:08Z</time>
      </trkpt>
      <trkpt lat="45.4381" lon="4.65205">
        <ele>487.58</ele>
        <time>2019-05-30T10:35:12Z</time>
      </trkpt>
      <trkpt lat="45.43794" lon="4.65189">
        <ele>487.47</ele>
        <time>2019-05-30T10:35:16Z</time>
      </trkpt>
      <trkpt lat="45.43777" lon="4.65176">
        <ele>487.31</ele>
        <time>2019-05-30T10:35:20Z</time>
      </trkpt>
      <trkpt lat="45.43759" lon="4.65166">
        <ele>487.1</ele>
        <time>2019-05-30T10:35:24Z</time>
      </trkpt>
      <trkpt lat="45.43737" lon="4.65164">
        <ele>486.48</ele>
        <time>2019-05-30T10:35:28Z</time>
      </trkpt>
      <trkpt lat="45.43718" lon="4.65169">
        <ele>486.38</ele>
        <time>2019-05-30T10:35:32Z</time>
      </trkpt>
      <trkpt lat="45.437" lon="4.65182">
        <ele>485.94</ele>
        <time>2019-05-30T10:35:36Z</time>
      </trkpt>
      <trkpt lat="45.43682" lon="4.65194">
        <ele>485.65</ele>
        <time>2019-05-30T10:35:40Z</time>
      </trkpt>
      <trkpt lat="45.43663" lon="4.65207">
        <ele>485.24</ele>
        <time>2019-05-30T10:35:44Z</time>
      </trkpt>
      <trkpt lat="45.43648" lon="4.65225">
        <ele>484.95</ele>
        <time>2019-05-30T10:35:48Z</time>
      </trkpt>
      <trkpt lat="45.4363" lon="4.65238">
        <ele>484.78</ele>
        <time>2019-05-30T10:35:52Z</time>
      </trkpt>
      <trkpt lat="45.43611" lon="4.65248">
        <ele>484.48</ele>
        <time>2019-05-30T10:35:56Z</time>
      </trkpt>
      <trkpt lat="45.43594" lon="4.65263">
        <ele>484.27</ele>
        <time>2019-05-30T10:36:00Z</time>
      </trkpt>
      <trkpt lat="45.43572" lon="4.6527">
        <ele>484.32</ele>
        <time>2019-05-30T10:36:05Z</time>
      </trkpt>
      <trkpt lat="45.43554" lon="4.65271">
        <ele>484.04</ele>
        <time>2019-05-30T10:36:09Z</time>
      </trkpt>
      <trkpt lat="45.43533" lon="4.65272">
        <ele>483.78</ele>
        <time>2019-05-30T10:36:14Z</time>
      </trkpt>
      <trkpt lat="45.43515" lon="4.65274">
        <ele>483.65</ele>
        <time>2019-05-30T10:36:18Z</time>
      </trkpt>
      <trkpt lat="45.43494" lon="4.65283">
        <ele>483.5</ele>
        <time>2019-05-30T10:36:24Z</time>
      </trkpt>
      <trkpt lat="45.43479" lon="4.65298">
        <ele>483.2</ele>
        <time>2019-05-30T10:36:28Z</time>
      </trkpt>
      <trkpt lat="45.43469" lon="4.65322">
        <ele>483.14</ele>
        <time>2019-05-30T10:36:33Z</time>
      </trkpt>
      <trkpt lat="45.43459" lon="4.65346">
        <ele>482.9</ele>
        <time>2019-05-30T10:36:38Z</time>
      </trkpt>
      <trkpt lat="45.4345" lon="4.65371">
        <ele>482.7</ele>
        <time>2019-05-30T10:36:42Z</time>
      </trkpt>
      <trkpt lat="45.4344" lon="4.65397">
        <ele>482.28</ele>
        <time>2019-05-30T10:36:46Z</time>
      </trkpt>
      <trkpt lat="45.43426" lon="4.65422">
        <ele>481.87</ele>
        <time>2019-05-30T10:36:50Z</time>
      </trkpt>
      <trkpt lat="45.43409" lon="4.65444">
        <ele>481.2</ele>
        <time>2019-05-30T10:36:54Z</time>
      </trkpt>
      <trkpt lat="45.4339" lon="4.65449">
        <ele>481.82</ele>
        <time>2019-05-30T10:36:59Z</time>
      </trkpt>
      <trkpt lat="45.4337" lon="4.65452">
        <ele>483.83</ele>
        <time>2019-05-30T10:37:04Z</time>
      </trkpt>
      <trkpt lat="45.43349" lon="4.65452">
        <ele>486.92</ele>
        <time>2019-05-30T10:37:12Z</time>
      </trkpt>
      <trkpt lat="45.43331" lon="4.6545">
        <ele>489.53</ele>
        <time>2019-05-30T10:37:20Z</time>
      </trkpt>
      <trkpt lat="45.43311" lon="4.65454">
        <ele>491.15</ele>
        <time>2019-05-30T10:37:28Z</time>
      </trkpt>
      <trkpt lat="45.43294" lon="4.65466">
        <ele>492.19</ele>
        <time>2019-05-30T10:37:35Z</time>
      </trkpt>
      <trkpt lat="45.43278" lon="4.65483">
        <ele>492.99</ele>
        <time>2019-05-30T10:37:41Z</time>
      </trkpt>
      <trkpt lat="45.43262" lon="4.655">
        <ele>493.82</ele>
        <time>2019-05-30T10:37:48Z</time>
      </trkpt>
      <trkpt lat="45.43244" lon="4.65514">
        <ele>493.99</ele>
        <time>2019-05-30T10:37:54Z</time>
      </trkpt>
      <trkpt lat="45.43224" lon="4.65519">
        <ele>494.62</ele>
        <time>2019-05-30T10:38:01Z</time>
      </trkpt>
      <trkpt lat="45.43206" lon="4.65528">
        <ele>495.53</ele>
        <time>2019-05-30T10:38:07Z</time>
      </trkpt>
      <trkpt lat="45.4319" lon="4.65546">
        <ele>496.99</ele>
        <time>2019-05-30T10:38:13Z</time>
      </trkpt>
      <trkpt lat="45.43177" lon="4.65564">
        <ele>498.84</ele>
        <time>2019-05-30T10:38:20Z</time>
      </trkpt>
      <trkpt lat="45.43165" lon="4.65584">
        <ele>501.03</ele>
        <time>2019-05-30T10:38:28Z</time>
      </trkpt>
      <trkpt lat="45.43147" lon="4.6559">
        <ele>502.34</ele>
        <time>2019-05-30T10:38:35Z</time>
      </trkpt>
      <trkpt lat="45.43127" lon="4.65587">
        <ele>504.33</ele>
        <time>2019-05-30T10:38:44Z</time>
      </trkpt>
      <trkpt lat="45.43109" lon="4.65582">
        <ele>505.93</ele>
        <time>2019-05-30T10:38:51Z</time>
      </trkpt>
      <trkpt lat="45.43089" lon="4.65577">
        <ele>507.82</ele>
        <time>2019-05-30T10:38:59Z</time>
      </trkpt>
      <trkpt lat="45.43072" lon="4.65569">
        <ele>509.18</ele>
        <time>2019-05-30T10:39:06Z</time>
      </trkpt>
      <trkpt lat="45.43055" lon="4.65558">
        <ele>511.86</ele>
        <time>2019-05-30T10:39:16Z</time>
      </trkpt>
      <trkpt lat="45.43036" lon="4.65556">
        <ele>511.75</ele>
        <time>2019-05-30T10:39:25Z</time>
      </trkpt>
      <trkpt lat="45.43016" lon="4.65552">
        <ele>510.53</ele>
        <time>2019-05-30T10:39:30Z</time>
      </trkpt>
      <trkpt lat="45.42995" lon="4.65547">
        <ele>509.45</ele>
        <time>2019-05-30T10:39:35Z</time>
      </trkpt>
      <trkpt lat="45.42977" lon="4.65541">
        <ele>508.43</ele>
        <time>2019-05-30T10:39:40Z</time>
      </trkpt>
      <trkpt lat="45.42997" lon="4.65553">
        <ele>508.81</ele>
        <time>2019-05-30T10:40:28Z</time>
      </trkpt>
      <trkpt lat="45.43017" lon="4.65557">
        <ele>510.13</ele>
        <time>2019-05-30T10:40:36Z</time>
      </trkpt>
      <trkpt lat="45.43035" lon="4.65558">
        <ele>511.83</ele>
        <time>2019-05-30T10:40:44Z</time>
      </trkpt>
      <trkpt lat="45.43053" lon="4.65555">
        <ele>512.43</ele>
        <time>2019-05-30T10:41:49Z</time>
      </trkpt>
      <trkpt lat="45.43071" lon="4.65547">
        <ele>512.96</ele>
        <time>2019-05-30T10:41:58Z</time>
      </trkpt>
      <trkpt lat="45.43089" lon="4.65538">
        <ele>514</ele>
        <time>2019-05-30T10:42:05Z</time>
      </trkpt>
      <trkpt lat="45.43105" lon="4.65522">
        <ele>515.43</ele>
        <time>2019-05-30T10:42:12Z</time>
      </trkpt>
      <trkpt lat="45.43117" lon="4.65499">
        <ele>516.88</ele>
        <time>2019-05-30T10:42:20Z</time>
      </trkpt>
      <trkpt lat="45.43101" lon="4.65484">
        <ele>517.3</ele>
        <time>2019-05-30T10:42:34Z</time>
      </trkpt>
      <trkpt lat="45.43098" lon="4.65456">
        <ele>519.28</ele>
        <time>2019-05-30T10:42:45Z</time>
      </trkpt>
      <trkpt lat="45.43107" lon="4.65434">
        <ele>520.69</ele>
        <time>2019-05-30T10:42:53Z</time>
      </trkpt>
      <trkpt lat="45.43116" lon="4.6541">
        <ele>522.45</ele>
        <time>2019-05-30T10:43:01Z</time>
      </trkpt>
      <trkpt lat="45.43122" lon="4.65385">
        <ele>524.23</ele>
        <time>2019-05-30T10:43:09Z</time>
      </trkpt>
      <trkpt lat="45.43128" lon="4.65358">
        <ele>525.71</ele>
        <time>2019-05-30T10:43:17Z</time>
      </trkpt>
      <trkpt lat="45.43135" lon="4.6533">
        <ele>527.18</ele>
        <time>2019-05-30T10:43:24Z</time>
      </trkpt>
      <trkpt lat="45.43143" lon="4.65307">
        <ele>528.67</ele>
        <time>2019-05-30T10:43:31Z</time>
      </trkpt>
      <trkpt lat="45.43149" lon="4.6528">
        <ele>530.04</ele>
        <time>2019-05-30T10:43:39Z</time>
      </trkpt>
      <trkpt lat="45.43157" lon="4.65253">
        <ele>531.78</ele>
        <time>2019-05-30T10:43:47Z</time>
      </trkpt>
      <trkpt lat="45.43166" lon="4.65227">
        <ele>533.46</ele>
        <time>2019-05-30T10:43:55Z</time>
      </trkpt>
      <trkpt lat="45.43176" lon="4.65204">
        <ele>534.83</ele>
        <time>2019-05-30T10:44:02Z</time>
      </trkpt>
      <trkpt lat="45.43185" lon="4.6518">
        <ele>536.53</ele>
        <time>2019-05-30T10:44:10Z</time>
      </trkpt>
      <trkpt lat="45.43194" lon="4.65157">
        <ele>538.89</ele>
        <time>2019-05-30T10:44:18Z</time>
      </trkpt>
      <trkpt lat="45.43203" lon="4.65132">
        <ele>540.65</ele>
        <time>2019-05-30T10:45:27Z</time>
      </trkpt>
      <trkpt lat="45.43213" lon="4.65107">
        <ele>541.81</ele>
        <time>2019-05-30T10:45:35Z</time>
      </trkpt>
      <trkpt lat="45.43228" lon="4.65094">
        <ele>543.12</ele>
        <time>2019-05-30T10:45:42Z</time>
      </trkpt>
      <trkpt lat="45.43247" lon="4.65082">
        <ele>545.3</ele>
        <time>2019-05-30T10:45:50Z</time>
      </trkpt>
      <trkpt lat="45.43262" lon="4.6507">
        <ele>546.52</ele>
        <time>2019-05-30T10:45:57Z</time>
      </trkpt>
      <trkpt lat="45.43277" lon="4.65051">
        <ele>548.11</ele>
        <time>2019-05-30T10:46:05Z</time>
      </trkpt>
      <trkpt lat="45.43291" lon="4.65033">
        <ele>549.65</ele>
        <time>2019-05-30T10:46:13Z</time>
      </trkpt>
      <trkpt lat="45.43304" lon="4.65013">
        <ele>551.66</ele>
        <time>2019-05-30T10:46:21Z</time>
      </trkpt>
      <trkpt lat="45.43314" lon="4.64986">
        <ele>554.28</ele>
        <time>2019-05-30T10:46:31Z</time>
      </trkpt>
      <trkpt lat="45.43324" lon="4.64962">
        <ele>555.5</ele>
        <time>2019-05-30T10:46:38Z</time>
      </trkpt>
      <trkpt lat="45.43336" lon="4.64941">
        <ele>556.7</ele>
        <time>2019-05-30T10:46:45Z</time>
      </trkpt>
      <trkpt lat="45.43347" lon="4.64918">
        <ele>558.08</ele>
        <time>2019-05-30T10:46:53Z</time>
      </trkpt>
      <trkpt lat="45.43363" lon="4.64901">
        <ele>560.2</ele>
        <time>2019-05-30T10:47:01Z</time>
      </trkpt>
      <trkpt lat="45.43379" lon="4.64883">
        <ele>562.17</ele>
        <time>2019-05-30T10:47:09Z</time>
      </trkpt>
      <trkpt lat="45.43393" lon="4.64865">
        <ele>563.91</ele>
        <time>2019-05-30T10:47:18Z</time>
      </trkpt>
      <trkpt lat="45.43406" lon="4.64846">
        <ele>566.48</ele>
        <time>2019-05-30T10:47:28Z</time>
      </trkpt>
      <trkpt lat="45.4342" lon="4.64826">
        <ele>568.37</ele>
        <time>2019-05-30T10:47:36Z</time>
      </trkpt>
      <trkpt lat="45.43429" lon="4.64803">
        <ele>570.51</ele>
        <time>2019-05-30T10:47:44Z</time>
      </trkpt>
      <trkpt lat="45.43439" lon="4.64782">
        <ele>573.2</ele>
        <time>2019-05-30T10:47:54Z</time>
      </trkpt>
      <trkpt lat="45.43449" lon="4.64757">
        <ele>576.24</ele>
        <time>2019-05-30T10:48:04Z</time>
      </trkpt>
      <trkpt lat="45.43462" lon="4.64737">
        <ele>578.95</ele>
        <time>2019-05-30T10:49:10Z</time>
      </trkpt>
      <trkpt lat="45.43475" lon="4.64716">
        <ele>580.9</ele>
        <time>2019-05-30T10:49:22Z</time>
      </trkpt>
      <trkpt lat="45.43488" lon="4.64693">
        <ele>582.27</ele>
        <time>2019-05-30T10:49:32Z</time>
      </trkpt>
      <trkpt lat="45.435" lon="4.64672">
        <ele>583.49</ele>
        <time>2019-05-30T10:49:40Z</time>
      </trkpt>
      <trkpt lat="45.4351" lon="4.64649">
        <ele>585.39</ele>
        <time>2019-05-30T10:49:49Z</time>
      </trkpt>
      <trkpt lat="45.43521" lon="4.64625">
        <ele>587.8</ele>
        <time>2019-05-30T10:49:59Z</time>
      </trkpt>
      <trkpt lat="45.43535" lon="4.64608">
        <ele>589.7</ele>
        <time>2019-05-30T10:50:06Z</time>
      </trkpt>
      <trkpt lat="45.4355" lon="4.6459">
        <ele>591.86</ele>
        <time>2019-05-30T10:50:14Z</time>
      </trkpt>
      <trkpt lat="45.43563" lon="4.64571">
        <ele>594.66</ele>
        <time>2019-05-30T10:50:22Z</time>
      </trkpt>
      <trkpt lat="45.43577" lon="4.64552">
        <ele>597.48</ele>
        <time>2019-05-30T10:50:31Z</time>
      </trkpt>
      <trkpt lat="45.43591" lon="4.64534">
        <ele>599.92</ele>
        <time>2019-05-30T10:50:40Z</time>
      </trkpt>
      <trkpt lat="45.43602" lon="4.64513">
        <ele>601.68</ele>
        <time>2019-05-30T10:50:48Z</time>
      </trkpt>
      <trkpt lat="45.4361" lon="4.6449">
        <ele>603.43</ele>
        <time>2019-05-30T10:50:56Z</time>
      </trkpt>
      <trkpt lat="45.43614" lon="4.64464">
        <ele>605.68</ele>
        <time>2019-05-30T10:51:06Z</time>
      </trkpt>
      <trkpt lat="45.43619" lon="4.64439">
        <ele>607.78</ele>
        <time>2019-05-30T10:51:15Z</time>
      </trkpt>
      <trkpt lat="45.43622" lon="4.64412">
        <ele>610</ele>
        <time>2019-05-30T10:51:25Z</time>
      </trkpt>
      <trkpt lat="45.43633" lon="4.6439">
        <ele>612.06</ele>
        <time>2019-05-30T10:53:21Z</time>
      </trkpt>
      <trkpt lat="45.43643" lon="4.64369">
        <ele>613.68</ele>
        <time>2019-05-30T10:53:33Z</time>
      </trkpt>
      <trkpt lat="45.43655" lon="4.6435">
        <ele>614.74</ele>
        <time>2019-05-30T10:53:54Z</time>
      </trkpt>
      <trkpt lat="45.43666" lon="4.64329">
        <ele>616.2</ele>
        <time>2019-05-30T10:54:02Z</time>
      </trkpt>
      <trkpt lat="45.43678" lon="4.64308">
        <ele>618.28</ele>
        <time>2019-05-30T10:54:11Z</time>
      </trkpt>
      <trkpt lat="45.4369" lon="4.64289">
        <ele>619.75</ele>
        <time>2019-05-30T10:54:19Z</time>
      </trkpt>
      <trkpt lat="45.43702" lon="4.64266">
        <ele>621.11</ele>
        <time>2019-05-30T10:54:28Z</time>
      </trkpt>
      <trkpt lat="45.43715" lon="4.64244">
        <ele>623.27</ele>
        <time>2019-05-30T10:54:39Z</time>
      </trkpt>
      <trkpt lat="45.43731" lon="4.6423">
        <ele>625.69</ele>
        <time>2019-05-30T10:54:48Z</time>
      </trkpt>
      <trkpt lat="45.43749" lon="4.6422">
        <ele>628.08</ele>
        <time>2019-05-30T10:54:56Z</time>
      </trkpt>
      <trkpt lat="45.43767" lon="4.64211">
        <ele>631.18</ele>
        <time>2019-05-30T10:55:07Z</time>
      </trkpt>
      <trkpt lat="45.43785" lon="4.64206">
        <ele>633.45</ele>
        <time>2019-05-30T10:55:16Z</time>
      </trkpt>
      <trkpt lat="45.43802" lon="4.64196">
        <ele>636.18</ele>
        <time>2019-05-30T10:55:25Z</time>
      </trkpt>
      <trkpt lat="45.43819" lon="4.64185">
        <ele>638.56</ele>
        <time>2019-05-30T10:55:35Z</time>
      </trkpt>
      <trkpt lat="45.43836" lon="4.64178">
        <ele>640.38</ele>
        <time>2019-05-30T10:55:43Z</time>
      </trkpt>
      <trkpt lat="45.43854" lon="4.64165">
        <ele>642.54</ele>
        <time>2019-05-30T10:55:54Z</time>
      </trkpt>
      <trkpt lat="45.43869" lon="4.64152">
        <ele>645</ele>
        <time>2019-05-30T10:56:05Z</time>
      </trkpt>
      <trkpt lat="45.43886" lon="4.64139">
        <ele>647.09</ele>
        <time>2019-05-30T10:56:13Z</time>
      </trkpt>
      <trkpt lat="45.43904" lon="4.64131">
        <ele>649.39</ele>
        <time>2019-05-30T10:56:21Z</time>
      </trkpt>
      <trkpt lat="45.43922" lon="4.64124">
        <ele>652.03</ele>
        <time>2019-05-30T10:56:30Z</time>
      </trkpt>
      <trkpt lat="45.43938" lon="4.64111">
        <ele>654.59</ele>
        <time>2019-05-30T10:56:39Z</time>
      </trkpt>
      <trkpt lat="45.43955" lon="4.64098">
        <ele>656.75</ele>
        <time>2019-05-30T10:56:47Z</time>
      </trkpt>
      <trkpt lat="45.43971" lon="4.64086">
        <ele>658.72</ele>
        <time>2019-05-30T10:56:56Z</time>
      </trkpt>
      <trkpt lat="45.43987" lon="4.64068">
        <ele>660.75</ele>
        <time>2019-05-30T10:57:06Z</time>
      </trkpt>
      <trkpt lat="45.44002" lon="4.64052">
        <ele>662.98</ele>
        <time>2019-05-30T10:57:15Z</time>
      </trkpt>
      <trkpt lat="45.44016" lon="4.64035">
        <ele>665.43</ele>
        <time>2019-05-30T10:57:24Z</time>
      </trkpt>
      <trkpt lat="45.44029" lon="4.64016">
        <ele>667.11</ele>
        <time>2019-05-30T10:57:32Z</time>
      </trkpt>
      <trkpt lat="45.44037" lon="4.63993">
        <ele>668.57</ele>
        <time>2019-05-30T10:57:41Z</time>
      </trkpt>
      <trkpt lat="45.44044" lon="4.63968">
        <ele>669.46</ele>
        <time>2019-05-30T10:57:53Z</time>
      </trkpt>
      <trkpt lat="45.44033" lon="4.63992">
        <ele>670.16</ele>
        <time>2019-05-30T11:00:37Z</time>
      </trkpt>
      <trkpt lat="45.44017" lon="4.64003">
        <ele>671.19</ele>
        <time>2019-05-30T11:00:45Z</time>
      </trkpt>
      <trkpt lat="45.43998" lon="4.64013">
        <ele>672.21</ele>
        <time>2019-05-30T11:00:52Z</time>
      </trkpt>
      <trkpt lat="45.43977" lon="4.64021">
        <ele>673.7</ele>
        <time>2019-05-30T11:00:58Z</time>
      </trkpt>
      <trkpt lat="45.43958" lon="4.64024">
        <ele>674.63</ele>
        <time>2019-05-30T11:01:04Z</time>
      </trkpt>
      <trkpt lat="45.43939" lon="4.64025">
        <ele>675.76</ele>
        <time>2019-05-30T11:01:11Z</time>
      </trkpt>
      <trkpt lat="45.4392" lon="4.64025">
        <ele>677.29</ele>
        <time>2019-05-30T11:01:19Z</time>
      </trkpt>
      <trkpt lat="45.43901" lon="4.64028">
        <ele>678.51</ele>
        <time>2019-05-30T11:01:27Z</time>
      </trkpt>
      <trkpt lat="45.43882" lon="4.6403">
        <ele>680</ele>
        <time>2019-05-30T11:01:35Z</time>
      </trkpt>
      <trkpt lat="45.43863" lon="4.6403">
        <ele>681.55</ele>
        <time>2019-05-30T11:01:43Z</time>
      </trkpt>
      <trkpt lat="45.43844" lon="4.64023">
        <ele>683.13</ele>
        <time>2019-05-30T11:01:51Z</time>
      </trkpt>
      <trkpt lat="45.43827" lon="4.64015">
        <ele>684.32</ele>
        <time>2019-05-30T11:01:58Z</time>
      </trkpt>
      <trkpt lat="45.4381" lon="4.64001">
        <ele>685.33</ele>
        <time>2019-05-30T11:02:06Z</time>
      </trkpt>
      <trkpt lat="45.43794" lon="4.63987">
        <ele>686.25</ele>
        <time>2019-05-30T11:02:13Z</time>
      </trkpt>
      <trkpt lat="45.43776" lon="4.63977">
        <ele>687.94</ele>
        <time>2019-05-30T11:02:22Z</time>
      </trkpt>
      <trkpt lat="45.43758" lon="4.63968">
        <ele>688.79</ele>
        <time>2019-05-30T11:02:30Z</time>
      </trkpt>
      <trkpt lat="45.43739" lon="4.63963">
        <ele>690.02</ele>
        <time>2019-05-30T11:02:37Z</time>
      </trkpt>
      <trkpt lat="45.43719" lon="4.63962">
        <ele>691.6</ele>
        <time>2019-05-30T11:02:45Z</time>
      </trkpt>
      <trkpt lat="45.43701" lon="4.63959">
        <ele>692.91</ele>
        <time>2019-05-30T11:02:53Z</time>
      </trkpt>
      <trkpt lat="45.43681" lon="4.63953">
        <ele>694.17</ele>
        <time>2019-05-30T11:03:03Z</time>
      </trkpt>
      <trkpt lat="45.43661" lon="4.63953">
        <ele>695.35</ele>
        <time>2019-05-30T11:03:11Z</time>
      </trkpt>
      <trkpt lat="45.43642" lon="4.63954">
        <ele>696.75</ele>
        <time>2019-05-30T11:03:19Z</time>
      </trkpt>
      <trkpt lat="45.43624" lon="4.63958">
        <ele>697.87</ele>
        <time>2019-05-30T11:03:27Z</time>
      </trkpt>
      <trkpt lat="45.43605" lon="4.63964">
        <ele>698.84</ele>
        <time>2019-05-30T11:03:35Z</time>
      </trkpt>
      <trkpt lat="45.43587" lon="4.63968">
        <ele>699.24</ele>
        <time>2019-05-30T11:03:42Z</time>
      </trkpt>
      <trkpt lat="45.43568" lon="4.63975">
        <ele>700.14</ele>
        <time>2019-05-30T11:03:50Z</time>
      </trkpt>
      <trkpt lat="45.43551" lon="4.63989">
        <ele>700.86</ele>
        <time>2019-05-30T11:04:36Z</time>
      </trkpt>
      <trkpt lat="45.43535" lon="4.64006">
        <ele>701.23</ele>
        <time>2019-05-30T11:04:43Z</time>
      </trkpt>
      <trkpt lat="45.43521" lon="4.64027">
        <ele>702.06</ele>
        <time>2019-05-30T11:04:51Z</time>
      </trkpt>
      <trkpt lat="45.43503" lon="4.64041">
        <ele>702.84</ele>
        <time>2019-05-30T11:04:58Z</time>
      </trkpt>
      <trkpt lat="45.43488" lon="4.64061">
        <ele>703.81</ele>
        <time>2019-05-30T11:05:06Z</time>
      </trkpt>
      <trkpt lat="45.43473" lon="4.64079">
        <ele>704.65</ele>
        <time>2019-05-30T11:05:14Z</time>
      </trkpt>
      <trkpt lat="45.43457" lon="4.64097">
        <ele>705.74</ele>
        <time>2019-05-30T11:05:22Z</time>
      </trkpt>
      <trkpt lat="45.4344" lon="4.64112">
        <ele>706.43</ele>
        <time>2019-05-30T11:05:30Z</time>
      </trkpt>
      <trkpt lat="45.43422" lon="4.64124">
        <ele>706.9</ele>
        <time>2019-05-30T11:05:37Z</time>
      </trkpt>
      <trkpt lat="45.43405" lon="4.64139">
        <ele>707.98</ele>
        <time>2019-05-30T11:05:45Z</time>
      </trkpt>
      <trkpt lat="45.43391" lon="4.64156">
        <ele>708.63</ele>
        <time>2019-05-30T11:05:53Z</time>
      </trkpt>
      <trkpt lat="45.43377" lon="4.6418">
        <ele>709.47</ele>
        <time>2019-05-30T11:06:48Z</time>
      </trkpt>
      <trkpt lat="45.43369" lon="4.64205">
        <ele>710.43</ele>
        <time>2019-05-30T11:06:57Z</time>
      </trkpt>
      <trkpt lat="45.43354" lon="4.64221">
        <ele>711.25</ele>
        <time>2019-05-30T11:07:03Z</time>
      </trkpt>
      <trkpt lat="45.4334" lon="4.64241">
        <ele>712.2</ele>
        <time>2019-05-30T11:07:10Z</time>
      </trkpt>
      <trkpt lat="45.43324" lon="4.6426">
        <ele>712.84</ele>
        <time>2019-05-30T11:07:17Z</time>
      </trkpt>
      <trkpt lat="45.43313" lon="4.64282">
        <ele>713.45</ele>
        <time>2019-05-30T11:07:23Z</time>
      </trkpt>
      <trkpt lat="45.43299" lon="4.64303">
        <ele>713.62</ele>
        <time>2019-05-30T11:07:29Z</time>
      </trkpt>
      <trkpt lat="45.43289" lon="4.64327">
        <ele>713.45</ele>
        <time>2019-05-30T11:07:34Z</time>
      </trkpt>
      <trkpt lat="45.43289" lon="4.64359">
        <ele>711.31</ele>
        <time>2019-05-30T11:07:39Z</time>
      </trkpt>
      <trkpt lat="45.43279" lon="4.64387">
        <ele>711.66</ele>
        <time>2019-05-30T11:07:44Z</time>
      </trkpt>
      <trkpt lat="45.43263" lon="4.64409">
        <ele>707.98</ele>
        <time>2019-05-30T11:07:47Z</time>
      </trkpt>
      <trkpt lat="45.43252" lon="4.64431">
        <ele>705.99</ele>
        <time>2019-05-30T11:07:51Z</time>
      </trkpt>
      <trkpt lat="45.43233" lon="4.64435">
        <ele>708.08</ele>
        <time>2019-05-30T11:07:58Z</time>
      </trkpt>
      <trkpt lat="45.43214" lon="4.64435">
        <ele>709.09</ele>
        <time>2019-05-30T11:08:06Z</time>
      </trkpt>
      <trkpt lat="45.43192" lon="4.6443">
        <ele>712.19</ele>
        <time>2019-05-30T11:08:23Z</time>
      </trkpt>
      <trkpt lat="45.43173" lon="4.64422">
        <ele>713.35</ele>
        <time>2019-05-30T11:08:28Z</time>
      </trkpt>
      <trkpt lat="45.43154" lon="4.64416">
        <ele>714.09</ele>
        <time>2019-05-30T11:08:34Z</time>
      </trkpt>
      <trkpt lat="45.43136" lon="4.6441">
        <ele>714.66</ele>
        <time>2019-05-30T11:08:41Z</time>
      </trkpt>
      <trkpt lat="45.43116" lon="4.64404">
        <ele>715.47</ele>
        <time>2019-05-30T11:08:48Z</time>
      </trkpt>
      <trkpt lat="45.43099" lon="4.64399">
        <ele>716.1</ele>
        <time>2019-05-30T11:08:53Z</time>
      </trkpt>
      <trkpt lat="45.43081" lon="4.6439">
        <ele>717.34</ele>
        <time>2019-05-30T11:08:59Z</time>
      </trkpt>
      <trkpt lat="45.43064" lon="4.64376">
        <ele>720.74</ele>
        <time>2019-05-30T11:09:09Z</time>
      </trkpt>
      <trkpt lat="45.43048" lon="4.6436">
        <ele>723.14</ele>
        <time>2019-05-30T11:09:19Z</time>
      </trkpt>
      <trkpt lat="45.4303" lon="4.64351">
        <ele>724.69</ele>
        <time>2019-05-30T11:09:27Z</time>
      </trkpt>
      <trkpt lat="45.43013" lon="4.64341">
        <ele>727.08</ele>
        <time>2019-05-30T11:09:39Z</time>
      </trkpt>
      <trkpt lat="45.42994" lon="4.64336">
        <ele>728.4</ele>
        <time>2019-05-30T11:14:20Z</time>
      </trkpt>
      <trkpt lat="45.42977" lon="4.64326">
        <ele>729.96</ele>
        <time>2019-05-30T11:14:29Z</time>
      </trkpt>
      <trkpt lat="45.4296" lon="4.64321">
        <ele>731.46</ele>
        <time>2019-05-30T11:14:37Z</time>
      </trkpt>
      <trkpt lat="45.42939" lon="4.64317">
        <ele>731.53</ele>
        <time>2019-05-30T11:14:47Z</time>
      </trkpt>
      <trkpt lat="45.42919" lon="4.64297">
        <ele>731.66</ele>
        <time>2019-05-30T11:14:55Z</time>
      </trkpt>
      <trkpt lat="45.42901" lon="4.6429">
        <ele>731.79</ele>
        <time>2019-05-30T11:14:59Z</time>
      </trkpt>
      <trkpt lat="45.42885" lon="4.64279">
        <ele>729.99</ele>
        <time>2019-05-30T11:15:08Z</time>
      </trkpt>
      <trkpt lat="45.42865" lon="4.64273">
        <ele>731.06</ele>
        <time>2019-05-30T11:15:14Z</time>
      </trkpt>
      <trkpt lat="45.42845" lon="4.64269">
        <ele>731.4</ele>
        <time>2019-05-30T11:15:21Z</time>
      </trkpt>
      <trkpt lat="45.42825" lon="4.64266">
        <ele>735.41</ele>
        <time>2019-05-30T11:15:35Z</time>
      </trkpt>
      <trkpt lat="45.42806" lon="4.64257">
        <ele>738.05</ele>
        <time>2019-05-30T11:15:44Z</time>
      </trkpt>
      <trkpt lat="45.42788" lon="4.64245">
        <ele>740.89</ele>
        <time>2019-05-30T11:15:55Z</time>
      </trkpt>
      <trkpt lat="45.42772" lon="4.64231">
        <ele>743.15</ele>
        <time>2019-05-30T11:16:05Z</time>
      </trkpt>
      <trkpt lat="45.42757" lon="4.64215">
        <ele>745.85</ele>
        <time>2019-05-30T11:16:16Z</time>
      </trkpt>
      <trkpt lat="45.42749" lon="4.6419">
        <ele>749.15</ele>
        <time>2019-05-30T11:16:28Z</time>
      </trkpt>
      <trkpt lat="45.42741" lon="4.64166">
        <ele>752.09</ele>
        <time>2019-05-30T11:16:39Z</time>
      </trkpt>
      <trkpt lat="45.42737" lon="4.64141">
        <ele>755.03</ele>
        <time>2019-05-30T11:16:51Z</time>
      </trkpt>
      <trkpt lat="45.42733" lon="4.64116">
        <ele>756.6</ele>
        <time>2019-05-30T11:17:01Z</time>
      </trkpt>
      <trkpt lat="45.42729" lon="4.64089">
        <ele>757.68</ele>
        <time>2019-05-30T11:17:12Z</time>
      </trkpt>
      <trkpt lat="45.42728" lon="4.64059">
        <ele>758.14</ele>
        <time>2019-05-30T11:17:21Z</time>
      </trkpt>
      <trkpt lat="45.42723" lon="4.64034">
        <ele>757.84</ele>
        <time>2019-05-30T11:17:28Z</time>
      </trkpt>
      <trkpt lat="45.42725" lon="4.64006">
        <ele>758.21</ele>
        <time>2019-05-30T11:17:37Z</time>
      </trkpt>
      <trkpt lat="45.42732" lon="4.63982">
        <ele>758.2</ele>
        <time>2019-05-30T11:17:45Z</time>
      </trkpt>
      <trkpt lat="45.42734" lon="4.63955">
        <ele>759</ele>
        <time>2019-05-30T11:17:53Z</time>
      </trkpt>
      <trkpt lat="45.4274" lon="4.6393">
        <ele>762.56</ele>
        <time>2019-05-30T11:18:03Z</time>
      </trkpt>
      <trkpt lat="45.42741" lon="4.63902">
        <ele>766.15</ele>
        <time>2019-05-30T11:18:15Z</time>
      </trkpt>
      <trkpt lat="45.4274" lon="4.63875">
        <ele>768.98</ele>
        <time>2019-05-30T11:18:25Z</time>
      </trkpt>
      <trkpt lat="45.42747" lon="4.63849">
        <ele>771.86</ele>
        <time>2019-05-30T11:18:35Z</time>
      </trkpt>
      <trkpt lat="45.42748" lon="4.63821">
        <ele>774.87</ele>
        <time>2019-05-30T11:18:47Z</time>
      </trkpt>
      <trkpt lat="45.42751" lon="4.63795">
        <ele>777.38</ele>
        <time>2019-05-30T11:18:57Z</time>
      </trkpt>
      <trkpt lat="45.42753" lon="4.63769">
        <ele>780.18</ele>
        <time>2019-05-30T11:19:09Z</time>
      </trkpt>
      <trkpt lat="45.42755" lon="4.63741">
        <ele>780.89</ele>
        <time>2019-05-30T11:19:19Z</time>
      </trkpt>
      <trkpt lat="45.42754" lon="4.63714">
        <ele>782.32</ele>
        <time>2019-05-30T11:19:28Z</time>
      </trkpt>
      <trkpt lat="45.42755" lon="4.63686">
        <ele>784.1</ele>
        <time>2019-05-30T11:19:38Z</time>
      </trkpt>
      <trkpt lat="45.42751" lon="4.63658">
        <ele>786.51</ele>
        <time>2019-05-30T11:19:49Z</time>
      </trkpt>
      <trkpt lat="45.42751" lon="4.6363">
        <ele>786.51</ele>
        <time>2019-05-30T11:19:57Z</time>
      </trkpt>
      <trkpt lat="45.42748" lon="4.63603">
        <ele>787.27</ele>
        <time>2019-05-30T11:20:04Z</time>
      </trkpt>
      <trkpt lat="45.42751" lon="4.63575">
        <ele>787.92</ele>
        <time>2019-05-30T11:24:41Z</time>
      </trkpt>
      <trkpt lat="45.42746" lon="4.63549">
        <ele>787.78</ele>
        <time>2019-05-30T11:24:55Z</time>
      </trkpt>
      <trkpt lat="45.42744" lon="4.63524">
        <ele>787.27</ele>
        <time>2019-05-30T11:25:01Z</time>
      </trkpt>
      <trkpt lat="45.42746" lon="4.63497">
        <ele>787.39</ele>
        <time>2019-05-30T11:25:07Z</time>
      </trkpt>
      <trkpt lat="45.42744" lon="4.63468">
        <ele>789.37</ele>
        <time>2019-05-30T11:25:13Z</time>
      </trkpt>
      <trkpt lat="45.42745" lon="4.63441">
        <ele>789.62</ele>
        <time>2019-05-30T11:25:19Z</time>
      </trkpt>
      <trkpt lat="45.42744" lon="4.63415">
        <ele>791.16</ele>
        <time>2019-05-30T11:25:26Z</time>
      </trkpt>
      <trkpt lat="45.42744" lon="4.63387">
        <ele>793.7</ele>
        <time>2019-05-30T11:25:34Z</time>
      </trkpt>
      <trkpt lat="45.42742" lon="4.63359">
        <ele>797.37</ele>
        <time>2019-05-30T11:25:43Z</time>
      </trkpt>
      <trkpt lat="45.42734" lon="4.63336">
        <ele>799.61</ele>
        <time>2019-05-30T11:25:53Z</time>
      </trkpt>
      <trkpt lat="45.42731" lon="4.63307">
        <ele>801.48</ele>
        <time>2019-05-30T11:26:02Z</time>
      </trkpt>
      <trkpt lat="45.42728" lon="4.6328">
        <ele>803</ele>
        <time>2019-05-30T11:26:13Z</time>
      </trkpt>
      <trkpt lat="45.4272" lon="4.63253">
        <ele>804.89</ele>
        <time>2019-05-30T11:26:23Z</time>
      </trkpt>
      <trkpt lat="45.42714" lon="4.63227">
        <ele>806.53</ele>
        <time>2019-05-30T11:26:32Z</time>
      </trkpt>
      <trkpt lat="45.42713" lon="4.632">
        <ele>807.05</ele>
        <time>2019-05-30T11:26:40Z</time>
      </trkpt>
      <trkpt lat="45.42715" lon="4.63174">
        <ele>806.56</ele>
        <time>2019-05-30T11:26:47Z</time>
      </trkpt>
      <trkpt lat="45.42717" lon="4.63146">
        <ele>806.46</ele>
        <time>2019-05-30T11:26:53Z</time>
      </trkpt>
      <trkpt lat="45.42718" lon="4.6312">
        <ele>806.91</ele>
        <time>2019-05-30T11:26:59Z</time>
      </trkpt>
      <trkpt lat="45.42713" lon="4.63095">
        <ele>807.6</ele>
        <time>2019-05-30T11:27:06Z</time>
      </trkpt>
      <trkpt lat="45.42708" lon="4.63068">
        <ele>808.35</ele>
        <time>2019-05-30T11:27:13Z</time>
      </trkpt>
      <trkpt lat="45.42699" lon="4.63046">
        <ele>810.17</ele>
        <time>2019-05-30T11:28:00Z</time>
      </trkpt>
      <trkpt lat="45.42693" lon="4.63021">
        <ele>811.76</ele>
        <time>2019-05-30T11:28:10Z</time>
      </trkpt>
      <trkpt lat="45.42689" lon="4.62995">
        <ele>815.07</ele>
        <time>2019-05-30T11:28:19Z</time>
      </trkpt>
      <trkpt lat="45.42687" lon="4.62968">
        <ele>818.45</ele>
        <time>2019-05-30T11:28:29Z</time>
      </trkpt>
      <trkpt lat="45.42683" lon="4.62942">
        <ele>821.23</ele>
        <time>2019-05-30T11:28:39Z</time>
      </trkpt>
      <trkpt lat="45.42681" lon="4.62916">
        <ele>822.69</ele>
        <time>2019-05-30T11:28:48Z</time>
      </trkpt>
      <trkpt lat="45.42677" lon="4.6289">
        <ele>824.16</ele>
        <time>2019-05-30T11:28:58Z</time>
      </trkpt>
      <trkpt lat="45.42675" lon="4.62864">
        <ele>823.92</ele>
        <time>2019-05-30T11:29:06Z</time>
      </trkpt>
      <trkpt lat="45.42673" lon="4.62837">
        <ele>823.67</ele>
        <time>2019-05-30T11:29:14Z</time>
      </trkpt>
      <trkpt lat="45.42673" lon="4.6281">
        <ele>824.16</ele>
        <time>2019-05-30T11:29:22Z</time>
      </trkpt>
      <trkpt lat="45.42674" lon="4.62781">
        <ele>823.74</ele>
        <time>2019-05-30T11:29:29Z</time>
      </trkpt>
      <trkpt lat="45.4268" lon="4.62751">
        <ele>823.5</ele>
        <time>2019-05-30T11:29:36Z</time>
      </trkpt>
      <trkpt lat="45.42686" lon="4.62725">
        <ele>823.79</ele>
        <time>2019-05-30T11:29:43Z</time>
      </trkpt>
      <trkpt lat="45.42692" lon="4.62698">
        <ele>824.11</ele>
        <time>2019-05-30T11:29:49Z</time>
      </trkpt>
      <trkpt lat="45.42695" lon="4.6267">
        <ele>825.22</ele>
        <time>2019-05-30T11:29:56Z</time>
      </trkpt>
      <trkpt lat="45.42698" lon="4.62643">
        <ele>826.09</ele>
        <time>2019-05-30T11:30:04Z</time>
      </trkpt>
      <trkpt lat="45.42701" lon="4.62617">
        <ele>828.94</ele>
        <time>2019-05-30T11:30:13Z</time>
      </trkpt>
      <trkpt lat="45.42701" lon="4.62588">
        <ele>830.2</ele>
        <time>2019-05-30T11:30:22Z</time>
      </trkpt>
      <trkpt lat="45.42699" lon="4.62561">
        <ele>832.25</ele>
        <time>2019-05-30T11:30:32Z</time>
      </trkpt>
      <trkpt lat="45.42699" lon="4.62535">
        <ele>834.15</ele>
        <time>2019-05-30T11:30:40Z</time>
      </trkpt>
      <trkpt lat="45.42699" lon="4.62507">
        <ele>836.1</ele>
        <time>2019-05-30T11:30:49Z</time>
      </trkpt>
      <trkpt lat="45.42703" lon="4.62481">
        <ele>838.49</ele>
        <time>2019-05-30T11:30:59Z</time>
      </trkpt>
      <trkpt lat="45.42701" lon="4.62455">
        <ele>841.2</ele>
        <time>2019-05-30T11:31:08Z</time>
      </trkpt>
      <trkpt lat="45.42702" lon="4.62429">
        <ele>842.28</ele>
        <time>2019-05-30T11:31:16Z</time>
      </trkpt>
      <trkpt lat="45.42698" lon="4.62401">
        <ele>844.13</ele>
        <time>2019-05-30T11:31:25Z</time>
      </trkpt>
      <trkpt lat="45.42697" lon="4.62375">
        <ele>844.6</ele>
        <time>2019-05-30T11:31:32Z</time>
      </trkpt>
      <trkpt lat="45.42698" lon="4.62349">
        <ele>845.43</ele>
        <time>2019-05-30T11:31:39Z</time>
      </trkpt>
      <trkpt lat="45.42697" lon="4.62323">
        <ele>846.27</ele>
        <time>2019-05-30T11:31:46Z</time>
      </trkpt>
      <trkpt lat="45.42697" lon="4.62294">
        <ele>848.02</ele>
        <time>2019-05-30T11:31:55Z</time>
      </trkpt>
      <trkpt lat="45.42693" lon="4.62266">
        <ele>848.47</ele>
        <time>2019-05-30T11:32:02Z</time>
      </trkpt>
      <trkpt lat="45.42686" lon="4.62237">
        <ele>850.28</ele>
        <time>2019-05-30T11:32:10Z</time>
      </trkpt>
      <trkpt lat="45.42683" lon="4.62208">
        <ele>850.67</ele>
        <time>2019-05-30T11:32:17Z</time>
      </trkpt>
      <trkpt lat="45.42675" lon="4.62181">
        <ele>850.25</ele>
        <time>2019-05-30T11:33:59Z</time>
      </trkpt>
      <trkpt lat="45.42667" lon="4.62158">
        <ele>849.04</ele>
        <time>2019-05-30T11:34:04Z</time>
      </trkpt>
      <trkpt lat="45.42658" lon="4.6213">
        <ele>848.95</ele>
        <time>2019-05-30T11:34:09Z</time>
      </trkpt>
      <trkpt lat="45.42649" lon="4.62106">
        <ele>849.03</ele>
        <time>2019-05-30T11:34:14Z</time>
      </trkpt>
      <trkpt lat="45.42639" lon="4.62081">
        <ele>849.1</ele>
        <time>2019-05-30T11:34:19Z</time>
      </trkpt>
      <trkpt lat="45.42632" lon="4.6205">
        <ele>849.43</ele>
        <time>2019-05-30T11:34:24Z</time>
      </trkpt>
      <trkpt lat="45.42624" lon="4.62025">
        <ele>850.29</ele>
        <time>2019-05-30T11:34:29Z</time>
      </trkpt>
      <trkpt lat="45.42618" lon="4.61996">
        <ele>851.26</ele>
        <time>2019-05-30T11:34:36Z</time>
      </trkpt>
      <trkpt lat="45.42605" lon="4.61976">
        <ele>852.17</ele>
        <time>2019-05-30T11:34:43Z</time>
      </trkpt>
      <trkpt lat="45.42591" lon="4.61955">
        <ele>853.04</ele>
        <time>2019-05-30T11:34:49Z</time>
      </trkpt>
      <trkpt lat="45.4258" lon="4.61934">
        <ele>854.39</ele>
        <time>2019-05-30T11:34:56Z</time>
      </trkpt>
      <trkpt lat="45.42569" lon="4.61913">
        <ele>856.52</ele>
        <time>2019-05-30T11:35:04Z</time>
      </trkpt>
      <trkpt lat="45.42556" lon="4.61895">
        <ele>858.77</ele>
        <time>2019-05-30T11:35:12Z</time>
      </trkpt>
      <trkpt lat="45.42543" lon="4.61876">
        <ele>861.28</ele>
        <time>2019-05-30T11:35:21Z</time>
      </trkpt>
      <trkpt lat="45.42532" lon="4.61856">
        <ele>863.4</ele>
        <time>2019-05-30T11:35:30Z</time>
      </trkpt>
      <trkpt lat="45.42521" lon="4.61834">
        <ele>866.34</ele>
        <time>2019-05-30T11:35:39Z</time>
      </trkpt>
      <trkpt lat="45.42504" lon="4.61822">
        <ele>868.01</ele>
        <time>2019-05-30T11:35:54Z</time>
      </trkpt>
      <trkpt lat="45.42488" lon="4.6181">
        <ele>868.67</ele>
        <time>2019-05-30T11:36:49Z</time>
      </trkpt>
      <trkpt lat="45.42497" lon="4.61786">
        <ele>870.12</ele>
        <time>2019-05-30T11:36:59Z</time>
      </trkpt>
      <trkpt lat="45.42508" lon="4.61763">
        <ele>872.38</ele>
        <time>2019-05-30T11:37:09Z</time>
      </trkpt>
      <trkpt lat="45.42513" lon="4.61738">
        <ele>873.21</ele>
        <time>2019-05-30T11:37:20Z</time>
      </trkpt>
      <trkpt lat="45.42529" lon="4.61726">
        <ele>873.43</ele>
        <time>2019-05-30T11:40:08Z</time>
      </trkpt>
      <trkpt lat="45.42511" lon="4.61734">
        <ele>873.34</ele>
        <time>2019-05-30T12:39:54Z</time>
      </trkpt>
      <trkpt lat="45.42491" lon="4.61743">
        <ele>873.92</ele>
        <time>2019-05-30T12:40:00Z</time>
      </trkpt>
      <trkpt lat="45.42472" lon="4.61752">
        <ele>875.02</ele>
        <time>2019-05-30T12:40:06Z</time>
      </trkpt>
      <trkpt lat="45.42452" lon="4.6176">
        <ele>876.02</ele>
        <time>2019-05-30T12:40:12Z</time>
      </trkpt>
      <trkpt lat="45.42432" lon="4.61768">
        <ele>877.22</ele>
        <time>2019-05-30T12:40:18Z</time>
      </trkpt>
      <trkpt lat="45.42413" lon="4.61773">
        <ele>878.74</ele>
        <time>2019-05-30T12:40:25Z</time>
      </trkpt>
      <trkpt lat="45.42396" lon="4.6179">
        <ele>880.14</ele>
        <time>2019-05-30T12:40:31Z</time>
      </trkpt>
      <trkpt lat="45.42377" lon="4.61802">
        <ele>881.71</ele>
        <time>2019-05-30T12:40:38Z</time>
      </trkpt>
      <trkpt lat="45.4236" lon="4.61813">
        <ele>883.01</ele>
        <time>2019-05-30T12:40:44Z</time>
      </trkpt>
      <trkpt lat="45.42343" lon="4.6182">
        <ele>884.7</ele>
        <time>2019-05-30T12:40:50Z</time>
      </trkpt>
      <trkpt lat="45.42323" lon="4.61825">
        <ele>886.72</ele>
        <time>2019-05-30T12:40:57Z</time>
      </trkpt>
      <trkpt lat="45.42304" lon="4.61835">
        <ele>888.33</ele>
        <time>2019-05-30T12:41:04Z</time>
      </trkpt>
      <trkpt lat="45.42286" lon="4.61845">
        <ele>889.4</ele>
        <time>2019-05-30T12:41:11Z</time>
      </trkpt>
      <trkpt lat="45.42268" lon="4.61855">
        <ele>890.89</ele>
        <time>2019-05-30T12:41:19Z</time>
      </trkpt>
      <trkpt lat="45.42251" lon="4.61866">
        <ele>892.09</ele>
        <time>2019-05-30T12:41:26Z</time>
      </trkpt>
      <trkpt lat="45.42235" lon="4.61877">
        <ele>893.07</ele>
        <time>2019-05-30T12:41:33Z</time>
      </trkpt>
      <trkpt lat="45.42217" lon="4.61891">
        <ele>894.4</ele>
        <time>2019-05-30T12:41:41Z</time>
      </trkpt>
      <trkpt lat="45.422" lon="4.61906">
        <ele>895.73</ele>
        <time>2019-05-30T12:41:49Z</time>
      </trkpt>
      <trkpt lat="45.42183" lon="4.61919">
        <ele>897.52</ele>
        <time>2019-05-30T12:41:57Z</time>
      </trkpt>
      <trkpt lat="45.42166" lon="4.61935">
        <ele>899.11</ele>
        <time>2019-05-30T12:42:05Z</time>
      </trkpt>
      <trkpt lat="45.42149" lon="4.61946">
        <ele>900.58</ele>
        <time>2019-05-30T12:42:13Z</time>
      </trkpt>
      <trkpt lat="45.4213" lon="4.61958">
        <ele>902.13</ele>
        <time>2019-05-30T12:42:21Z</time>
      </trkpt>
      <trkpt lat="45.42112" lon="4.6197">
        <ele>903.82</ele>
        <time>2019-05-30T12:42:29Z</time>
      </trkpt>
      <trkpt lat="45.42095" lon="4.61981">
        <ele>905.3</ele>
        <time>2019-05-30T12:42:37Z</time>
      </trkpt>
      <trkpt lat="45.42075" lon="4.6199">
        <ele>907.06</ele>
        <time>2019-05-30T12:42:45Z</time>
      </trkpt>
      <trkpt lat="45.42056" lon="4.62001">
        <ele>908.16</ele>
        <time>2019-05-30T12:42:53Z</time>
      </trkpt>
      <trkpt lat="45.42037" lon="4.62009">
        <ele>909.71</ele>
        <time>2019-05-30T12:43:01Z</time>
      </trkpt>
      <trkpt lat="45.42018" lon="4.62018">
        <ele>911.4</ele>
        <time>2019-05-30T12:43:09Z</time>
      </trkpt>
      <trkpt lat="45.41999" lon="4.62029">
        <ele>913.15</ele>
        <time>2019-05-30T12:43:17Z</time>
      </trkpt>
      <trkpt lat="45.41981" lon="4.62038">
        <ele>914.83</ele>
        <time>2019-05-30T12:43:25Z</time>
      </trkpt>
      <trkpt lat="45.41963" lon="4.62049">
        <ele>916.32</ele>
        <time>2019-05-30T12:43:33Z</time>
      </trkpt>
      <trkpt lat="45.41946" lon="4.62058">
        <ele>918.13</ele>
        <time>2019-05-30T12:43:41Z</time>
      </trkpt>
      <trkpt lat="45.41927" lon="4.62063">
        <ele>919.62</ele>
        <time>2019-05-30T12:43:48Z</time>
      </trkpt>
      <trkpt lat="45.41909" lon="4.62063">
        <ele>921.32</ele>
        <time>2019-05-30T12:43:56Z</time>
      </trkpt>
      <trkpt lat="45.4189" lon="4.62056">
        <ele>923.33</ele>
        <time>2019-05-30T12:44:05Z</time>
      </trkpt>
      <trkpt lat="45.41873" lon="4.62047">
        <ele>925.58</ele>
        <time>2019-05-30T12:44:15Z</time>
      </trkpt>
      <trkpt lat="45.41855" lon="4.62041">
        <ele>927.1</ele>
        <time>2019-05-30T12:44:22Z</time>
      </trkpt>
      <trkpt lat="45.41837" lon="4.62037">
        <ele>928.78</ele>
        <time>2019-05-30T12:44:29Z</time>
      </trkpt>
      <trkpt lat="45.41816" lon="4.62034">
        <ele>930.21</ele>
        <time>2019-05-30T12:44:37Z</time>
      </trkpt>
      <trkpt lat="45.41797" lon="4.62034">
        <ele>931.3</ele>
        <time>2019-05-30T12:44:44Z</time>
      </trkpt>
      <trkpt lat="45.41779" lon="4.62035">
        <ele>932.56</ele>
        <time>2019-05-30T12:44:51Z</time>
      </trkpt>
      <trkpt lat="45.4176" lon="4.62035">
        <ele>933.76</ele>
        <time>2019-05-30T12:45:00Z</time>
      </trkpt>
      <trkpt lat="45.41741" lon="4.62033">
        <ele>934.81</ele>
        <time>2019-05-30T12:45:08Z</time>
      </trkpt>
      <trkpt lat="45.41721" lon="4.62036">
        <ele>936.27</ele>
        <time>2019-05-30T12:45:16Z</time>
      </trkpt>
      <trkpt lat="45.41702" lon="4.62037">
        <ele>937.98</ele>
        <time>2019-05-30T12:45:24Z</time>
      </trkpt>
      <trkpt lat="45.41683" lon="4.62039">
        <ele>939.37</ele>
        <time>2019-05-30T12:45:31Z</time>
      </trkpt>
      <trkpt lat="45.41663" lon="4.62039">
        <ele>941.18</ele>
        <time>2019-05-30T12:45:40Z</time>
      </trkpt>
      <trkpt lat="45.41643" lon="4.62045">
        <ele>942.5</ele>
        <time>2019-05-30T12:45:47Z</time>
      </trkpt>
      <trkpt lat="45.41626" lon="4.6205">
        <ele>943.92</ele>
        <time>2019-05-30T12:45:55Z</time>
      </trkpt>
      <trkpt lat="45.41607" lon="4.62058">
        <ele>945.71</ele>
        <time>2019-05-30T12:46:04Z</time>
      </trkpt>
      <trkpt lat="45.41587" lon="4.62065">
        <ele>947.38</ele>
        <time>2019-05-30T12:46:12Z</time>
      </trkpt>
      <trkpt lat="45.41573" lon="4.62083">
        <ele>949.17</ele>
        <time>2019-05-30T12:46:21Z</time>
      </trkpt>
      <trkpt lat="45.41557" lon="4.62097">
        <ele>950.23</ele>
        <time>2019-05-30T12:46:27Z</time>
      </trkpt>
      <trkpt lat="45.41542" lon="4.62111">
        <ele>951.21</ele>
        <time>2019-05-30T12:46:34Z</time>
      </trkpt>
      <trkpt lat="45.41526" lon="4.62127">
        <ele>952.54</ele>
        <time>2019-05-30T12:46:41Z</time>
      </trkpt>
      <trkpt lat="45.41509" lon="4.62144">
        <ele>954.01</ele>
        <time>2019-05-30T12:46:49Z</time>
      </trkpt>
      <trkpt lat="45.41491" lon="4.62156">
        <ele>955.53</ele>
        <time>2019-05-30T12:46:57Z</time>
      </trkpt>
      <trkpt lat="45.41475" lon="4.62171">
        <ele>956.87</ele>
        <time>2019-05-30T12:48:54Z</time>
      </trkpt>
      <trkpt lat="45.41457" lon="4.62185">
        <ele>957.65</ele>
        <time>2019-05-30T12:49:04Z</time>
      </trkpt>
      <trkpt lat="45.41439" lon="4.62196">
        <ele>959.14</ele>
        <time>2019-05-30T12:49:11Z</time>
      </trkpt>
      <trkpt lat="45.41419" lon="4.62209">
        <ele>960.81</ele>
        <time>2019-05-30T12:49:18Z</time>
      </trkpt>
      <trkpt lat="45.41403" lon="4.62225">
        <ele>962.28</ele>
        <time>2019-05-30T12:49:25Z</time>
      </trkpt>
      <trkpt lat="45.41387" lon="4.62239">
        <ele>963.7</ele>
        <time>2019-05-30T12:49:32Z</time>
      </trkpt>
      <trkpt lat="45.4137" lon="4.62256">
        <ele>964.97</ele>
        <time>2019-05-30T12:49:39Z</time>
      </trkpt>
      <trkpt lat="45.41355" lon="4.62269">
        <ele>966.65</ele>
        <time>2019-05-30T12:49:46Z</time>
      </trkpt>
      <trkpt lat="45.41341" lon="4.62289">
        <ele>968.26</ele>
        <time>2019-05-30T12:49:53Z</time>
      </trkpt>
      <trkpt lat="45.41328" lon="4.62308">
        <ele>969.48</ele>
        <time>2019-05-30T12:49:59Z</time>
      </trkpt>
      <trkpt lat="45.41313" lon="4.62329">
        <ele>970.81</ele>
        <time>2019-05-30T12:50:06Z</time>
      </trkpt>
      <trkpt lat="45.413" lon="4.62347">
        <ele>972.48</ele>
        <time>2019-05-30T12:50:13Z</time>
      </trkpt>
      <trkpt lat="45.41284" lon="4.62361">
        <ele>974.34</ele>
        <time>2019-05-30T12:50:20Z</time>
      </trkpt>
      <trkpt lat="45.41267" lon="4.62351">
        <ele>975.94</ele>
        <time>2019-05-30T12:50:28Z</time>
      </trkpt>
      <trkpt lat="45.41254" lon="4.62333">
        <ele>977.28</ele>
        <time>2019-05-30T12:50:35Z</time>
      </trkpt>
      <trkpt lat="45.41242" lon="4.62314">
        <ele>978.91</ele>
        <time>2019-05-30T12:50:42Z</time>
      </trkpt>
      <trkpt lat="45.41229" lon="4.62294">
        <ele>980.23</ele>
        <time>2019-05-30T12:50:49Z</time>
      </trkpt>
      <trkpt lat="45.41217" lon="4.62272">
        <ele>982.54</ele>
        <time>2019-05-30T12:50:58Z</time>
      </trkpt>
      <trkpt lat="45.41206" lon="4.62251">
        <ele>984.07</ele>
        <time>2019-05-30T12:51:05Z</time>
      </trkpt>
      <trkpt lat="45.41192" lon="4.62231">
        <ele>986.07</ele>
        <time>2019-05-30T12:51:13Z</time>
      </trkpt>
      <trkpt lat="45.4118" lon="4.6221">
        <ele>987.62</ele>
        <time>2019-05-30T12:51:21Z</time>
      </trkpt>
      <trkpt lat="45.41169" lon="4.62189">
        <ele>989.26</ele>
        <time>2019-05-30T12:51:28Z</time>
      </trkpt>
      <trkpt lat="45.41158" lon="4.62167">
        <ele>991.26</ele>
        <time>2019-05-30T12:51:36Z</time>
      </trkpt>
      <trkpt lat="45.41144" lon="4.62148">
        <ele>992.94</ele>
        <time>2019-05-30T12:51:44Z</time>
      </trkpt>
      <trkpt lat="45.41129" lon="4.62132">
        <ele>994.66</ele>
        <time>2019-05-30T12:51:52Z</time>
      </trkpt>
      <trkpt lat="45.41112" lon="4.62119">
        <ele>996.38</ele>
        <time>2019-05-30T12:52:00Z</time>
      </trkpt>
      <trkpt lat="45.41095" lon="4.62105">
        <ele>998.02</ele>
        <time>2019-05-30T12:52:08Z</time>
      </trkpt>
      <trkpt lat="45.41078" lon="4.62091">
        <ele>999.47</ele>
        <time>2019-05-30T12:52:16Z</time>
      </trkpt>
      <trkpt lat="45.41061" lon="4.62077">
        <ele>1000.91</ele>
        <time>2019-05-30T12:52:24Z</time>
      </trkpt>
      <trkpt lat="45.41046" lon="4.6206">
        <ele>1002.59</ele>
        <time>2019-05-30T12:52:32Z</time>
      </trkpt>
      <trkpt lat="45.41032" lon="4.62042">
        <ele>1004.43</ele>
        <time>2019-05-30T12:52:40Z</time>
      </trkpt>
      <trkpt lat="45.41016" lon="4.62026">
        <ele>1005.92</ele>
        <time>2019-05-30T12:52:48Z</time>
      </trkpt>
      <trkpt lat="45.40999" lon="4.62013">
        <ele>1007.2</ele>
        <time>2019-05-30T12:52:56Z</time>
      </trkpt>
      <trkpt lat="45.40984" lon="4.61998">
        <ele>1008.55</ele>
        <time>2019-05-30T12:53:04Z</time>
      </trkpt>
      <trkpt lat="45.40968" lon="4.61982">
        <ele>1009.91</ele>
        <time>2019-05-30T12:53:12Z</time>
      </trkpt>
      <trkpt lat="45.40952" lon="4.61967">
        <ele>1011.69</ele>
        <time>2019-05-30T12:53:20Z</time>
      </trkpt>
      <trkpt lat="45.40934" lon="4.61956">
        <ele>1013.4</ele>
        <time>2019-05-30T12:53:29Z</time>
      </trkpt>
      <trkpt lat="45.40917" lon="4.61946">
        <ele>1014.59</ele>
        <time>2019-05-30T12:53:36Z</time>
      </trkpt>
      <trkpt lat="45.40901" lon="4.61931">
        <ele>1016.26</ele>
        <time>2019-05-30T12:53:44Z</time>
      </trkpt>
      <trkpt lat="45.40886" lon="4.61916">
        <ele>1018.24</ele>
        <time>2019-05-30T12:53:52Z</time>
      </trkpt>
      <trkpt lat="45.40868" lon="4.61904">
        <ele>1020.13</ele>
        <time>2019-05-30T12:54:01Z</time>
      </trkpt>
      <trkpt lat="45.40853" lon="4.6189">
        <ele>1021.74</ele>
        <time>2019-05-30T12:54:09Z</time>
      </trkpt>
      <trkpt lat="45.40834" lon="4.61879">
        <ele>1023.28</ele>
        <time>2019-05-30T12:54:17Z</time>
      </trkpt>
      <trkpt lat="45.40817" lon="4.6187">
        <ele>1025.2</ele>
        <time>2019-05-30T12:54:25Z</time>
      </trkpt>
      <trkpt lat="45.408" lon="4.61859">
        <ele>1026.65</ele>
        <time>2019-05-30T12:54:33Z</time>
      </trkpt>
      <trkpt lat="45.40781" lon="4.6185">
        <ele>1028.51</ele>
        <time>2019-05-30T12:54:42Z</time>
      </trkpt>
      <trkpt lat="45.40762" lon="4.61847">
        <ele>1030.22</ele>
        <time>2019-05-30T12:54:51Z</time>
      </trkpt>
      <trkpt lat="45.40744" lon="4.61845">
        <ele>1031.54</ele>
        <time>2019-05-30T12:54:58Z</time>
      </trkpt>
      <trkpt lat="45.40724" lon="4.61843">
        <ele>1033.68</ele>
        <time>2019-05-30T12:55:08Z</time>
      </trkpt>
      <trkpt lat="45.40704" lon="4.61839">
        <ele>1035.78</ele>
        <time>2019-05-30T12:55:18Z</time>
      </trkpt>
      <trkpt lat="45.40686" lon="4.61842">
        <ele>1037.37</ele>
        <time>2019-05-30T12:55:26Z</time>
      </trkpt>
      <trkpt lat="45.40667" lon="4.61843">
        <ele>1038.56</ele>
        <time>2019-05-30T12:55:33Z</time>
      </trkpt>
      <trkpt lat="45.40647" lon="4.61842">
        <ele>1040.32</ele>
        <time>2019-05-30T12:55:42Z</time>
      </trkpt>
      <trkpt lat="45.40629" lon="4.61847">
        <ele>1041.97</ele>
        <time>2019-05-30T12:55:50Z</time>
      </trkpt>
      <trkpt lat="45.4061" lon="4.61852">
        <ele>1043.73</ele>
        <time>2019-05-30T12:55:59Z</time>
      </trkpt>
      <trkpt lat="45.40592" lon="4.61853">
        <ele>1045.28</ele>
        <time>2019-05-30T12:56:07Z</time>
      </trkpt>
      <trkpt lat="45.40572" lon="4.61853">
        <ele>1046.5</ele>
        <time>2019-05-30T12:56:15Z</time>
      </trkpt>
      <trkpt lat="45.40552" lon="4.61851">
        <ele>1047.81</ele>
        <time>2019-05-30T12:56:23Z</time>
      </trkpt>
      <trkpt lat="45.40531" lon="4.61849">
        <ele>1049.03</ele>
        <time>2019-05-30T12:56:31Z</time>
      </trkpt>
      <trkpt lat="45.40514" lon="4.61842">
        <ele>1050.11</ele>
        <time>2019-05-30T12:56:38Z</time>
      </trkpt>
      <trkpt lat="45.40496" lon="4.61837">
        <ele>1051.43</ele>
        <time>2019-05-30T12:56:45Z</time>
      </trkpt>
      <trkpt lat="45.40477" lon="4.61829">
        <ele>1053.01</ele>
        <time>2019-05-30T12:56:53Z</time>
      </trkpt>
      <trkpt lat="45.40459" lon="4.61823">
        <ele>1054.45</ele>
        <time>2019-05-30T12:57:01Z</time>
      </trkpt>
      <trkpt lat="45.40442" lon="4.61817">
        <ele>1055.87</ele>
        <time>2019-05-30T12:57:09Z</time>
      </trkpt>
      <trkpt lat="45.40422" lon="4.61815">
        <ele>1057.59</ele>
        <time>2019-05-30T12:57:17Z</time>
      </trkpt>
      <trkpt lat="45.40403" lon="4.61815">
        <ele>1059.48</ele>
        <time>2019-05-30T12:57:25Z</time>
      </trkpt>
      <trkpt lat="45.40384" lon="4.61812">
        <ele>1061.27</ele>
        <time>2019-05-30T12:57:34Z</time>
      </trkpt>
      <trkpt lat="45.40366" lon="4.6181">
        <ele>1062.78</ele>
        <time>2019-05-30T12:57:41Z</time>
      </trkpt>
      <trkpt lat="45.40346" lon="4.61807">
        <ele>1064.44</ele>
        <time>2019-05-30T12:57:49Z</time>
      </trkpt>
      <trkpt lat="45.40327" lon="4.61808">
        <ele>1066.12</ele>
        <time>2019-05-30T12:57:57Z</time>
      </trkpt>
      <trkpt lat="45.40309" lon="4.61813">
        <ele>1067.77</ele>
        <time>2019-05-30T12:58:04Z</time>
      </trkpt>
      <trkpt lat="45.40289" lon="4.61818">
        <ele>1069.56</ele>
        <time>2019-05-30T12:58:12Z</time>
      </trkpt>
      <trkpt lat="45.40271" lon="4.61828">
        <ele>1071.28</ele>
        <time>2019-05-30T12:58:20Z</time>
      </trkpt>
      <trkpt lat="45.40256" lon="4.61843">
        <ele>1072.85</ele>
        <time>2019-05-30T12:58:27Z</time>
      </trkpt>
      <trkpt lat="45.40241" lon="4.61862">
        <ele>1074.55</ele>
        <time>2019-05-30T12:58:35Z</time>
      </trkpt>
      <trkpt lat="45.40227" lon="4.61881">
        <ele>1076.1</ele>
        <time>2019-05-30T12:58:43Z</time>
      </trkpt>
      <trkpt lat="45.40214" lon="4.61902">
        <ele>1077.66</ele>
        <time>2019-05-30T12:58:51Z</time>
      </trkpt>
      <trkpt lat="45.40202" lon="4.61922">
        <ele>1079.14</ele>
        <time>2019-05-30T12:58:59Z</time>
      </trkpt>
      <trkpt lat="45.40188" lon="4.61943">
        <ele>1081.06</ele>
        <time>2019-05-30T12:59:07Z</time>
      </trkpt>
      <trkpt lat="45.40174" lon="4.61962">
        <ele>1082.7</ele>
        <time>2019-05-30T12:59:15Z</time>
      </trkpt>
      <trkpt lat="45.40159" lon="4.61978">
        <ele>1084.53</ele>
        <time>2019-05-30T12:59:23Z</time>
      </trkpt>
      <trkpt lat="45.40143" lon="4.61993">
        <ele>1086.33</ele>
        <time>2019-05-30T12:59:31Z</time>
      </trkpt>
      <trkpt lat="45.40127" lon="4.62009">
        <ele>1088.31</ele>
        <time>2019-05-30T12:59:40Z</time>
      </trkpt>
      <trkpt lat="45.40111" lon="4.62022">
        <ele>1090.71</ele>
        <time>2019-05-30T12:59:49Z</time>
      </trkpt>
      <trkpt lat="45.40093" lon="4.62016">
        <ele>1092.84</ele>
        <time>2019-05-30T12:59:57Z</time>
      </trkpt>
      <trkpt lat="45.40077" lon="4.62002">
        <ele>1094.29</ele>
        <time>2019-05-30T13:00:05Z</time>
      </trkpt>
      <trkpt lat="45.4006" lon="4.61987">
        <ele>1096.09</ele>
        <time>2019-05-30T13:00:13Z</time>
      </trkpt>
      <trkpt lat="45.40043" lon="4.61973">
        <ele>1097.29</ele>
        <time>2019-05-30T13:00:21Z</time>
      </trkpt>
      <trkpt lat="45.40026" lon="4.61966">
        <ele>1098.86</ele>
        <time>2019-05-30T13:00:28Z</time>
      </trkpt>
      <trkpt lat="45.40008" lon="4.61952">
        <ele>1100.42</ele>
        <time>2019-05-30T13:00:36Z</time>
      </trkpt>
      <trkpt lat="45.39993" lon="4.61933">
        <ele>1102.34</ele>
        <time>2019-05-30T13:00:44Z</time>
      </trkpt>
      <trkpt lat="45.39982" lon="4.61912">
        <ele>1103.97</ele>
        <time>2019-05-30T13:00:51Z</time>
      </trkpt>
      <trkpt lat="45.39971" lon="4.61888">
        <ele>1105.34</ele>
        <time>2019-05-30T13:00:59Z</time>
      </trkpt>
      <trkpt lat="45.39961" lon="4.61866">
        <ele>1106.79</ele>
        <time>2019-05-30T13:01:06Z</time>
      </trkpt>
      <trkpt lat="45.39949" lon="4.61842">
        <ele>1108.76</ele>
        <time>2019-05-30T13:01:14Z</time>
      </trkpt>
      <trkpt lat="45.39939" lon="4.61821">
        <ele>1110.4</ele>
        <time>2019-05-30T13:01:21Z</time>
      </trkpt>
      <trkpt lat="45.39927" lon="4.61797">
        <ele>1112.21</ele>
        <time>2019-05-30T13:01:29Z</time>
      </trkpt>
      <trkpt lat="45.39915" lon="4.61773">
        <ele>1113.9</ele>
        <time>2019-05-30T13:01:37Z</time>
      </trkpt>
      <trkpt lat="45.39901" lon="4.61752">
        <ele>1115.94</ele>
        <time>2019-05-30T13:01:45Z</time>
      </trkpt>
      <trkpt lat="45.39886" lon="4.61732">
        <ele>1118.23</ele>
        <time>2019-05-30T13:01:53Z</time>
      </trkpt>
      <trkpt lat="45.39872" lon="4.61715">
        <ele>1119.86</ele>
        <time>2019-05-30T13:02:00Z</time>
      </trkpt>
      <trkpt lat="45.39856" lon="4.61697">
        <ele>1121.94</ele>
        <time>2019-05-30T13:02:07Z</time>
      </trkpt>
      <trkpt lat="45.39843" lon="4.61678">
        <ele>1123.31</ele>
        <time>2019-05-30T13:02:14Z</time>
      </trkpt>
      <trkpt lat="45.39829" lon="4.61657">
        <ele>1124.86</ele>
        <time>2019-05-30T13:02:21Z</time>
      </trkpt>
      <trkpt lat="45.39815" lon="4.6164">
        <ele>1126.6</ele>
        <time>2019-05-30T13:02:28Z</time>
      </trkpt>
      <trkpt lat="45.398" lon="4.61623">
        <ele>1128.41</ele>
        <time>2019-05-30T13:02:35Z</time>
      </trkpt>
      <trkpt lat="45.39783" lon="4.6161">
        <ele>1130.11</ele>
        <time>2019-05-30T13:02:41Z</time>
      </trkpt>
      <trkpt lat="45.39767" lon="4.61598">
        <ele>1131.77</ele>
        <time>2019-05-30T13:02:47Z</time>
      </trkpt>
      <trkpt lat="45.39751" lon="4.61587">
        <ele>1133.43</ele>
        <time>2019-05-30T13:02:53Z</time>
      </trkpt>
      <trkpt lat="45.39733" lon="4.61579">
        <ele>1134.58</ele>
        <time>2019-05-30T13:02:59Z</time>
      </trkpt>
      <trkpt lat="45.39715" lon="4.61575">
        <ele>1136.23</ele>
        <time>2019-05-30T13:03:05Z</time>
      </trkpt>
      <trkpt lat="45.39695" lon="4.61569">
        <ele>1137.79</ele>
        <time>2019-05-30T13:03:12Z</time>
      </trkpt>
      <trkpt lat="45.39705" lon="4.61548">
        <ele>1139.17</ele>
        <time>2019-05-30T13:09:58Z</time>
      </trkpt>
      <trkpt lat="45.39689" lon="4.61561">
        <ele>1140.2</ele>
        <time>2019-05-30T13:15:37Z</time>
      </trkpt>
      <trkpt lat="45.39667" lon="4.61559">
        <ele>1141.18</ele>
        <time>2019-05-30T13:15:43Z</time>
      </trkpt>
      <trkpt lat="45.39648" lon="4.61554">
        <ele>1141.89</ele>
        <time>2019-05-30T13:15:48Z</time>
      </trkpt>
      <trkpt lat="45.39626" lon="4.61549">
        <ele>1142.74</ele>
        <time>2019-05-30T13:15:53Z</time>
      </trkpt>
      <trkpt lat="45.39607" lon="4.61544">
        <ele>1143.51</ele>
        <time>2019-05-30T13:15:57Z</time>
      </trkpt>
      <trkpt lat="45.39589" lon="4.6154">
        <ele>1144.03</ele>
        <time>2019-05-30T13:16:01Z</time>
      </trkpt>
      <trkpt lat="45.39567" lon="4.61536">
        <ele>1144.82</ele>
        <time>2019-05-30T13:16:06Z</time>
      </trkpt>
      <trkpt lat="45.39549" lon="4.61535">
        <ele>1145.37</ele>
        <time>2019-05-30T13:16:10Z</time>
      </trkpt>
      <trkpt lat="45.39531" lon="4.61535">
        <ele>1145.75</ele>
        <time>2019-05-30T13:16:14Z</time>
      </trkpt>
      <trkpt lat="45.39512" lon="4.61535">
        <ele>1146.26</ele>
        <time>2019-05-30T13:16:18Z</time>
      </trkpt>
      <trkpt lat="45.39492" lon="4.61533">
        <ele>1146.51</ele>
        <time>2019-05-30T13:16:23Z</time>
      </trkpt>
      <trkpt lat="45.3947" lon="4.61532">
        <ele>1146.93</ele>
        <time>2019-05-30T13:16:28Z</time>
      </trkpt>
      <trkpt lat="45.39449" lon="4.61537">
        <ele>1148.05</ele>
        <time>2019-05-30T13:16:33Z</time>
      </trkpt>
      <trkpt lat="45.39428" lon="4.61544">
        <ele>1149.04</ele>
        <time>2019-05-30T13:16:38Z</time>
      </trkpt>
      <trkpt lat="45.39409" lon="4.61544">
        <ele>1149.94</ele>
        <time>2019-05-30T13:16:43Z</time>
      </trkpt>
      <trkpt lat="45.39391" lon="4.61554">
        <ele>1150.58</ele>
        <time>2019-05-30T13:16:48Z</time>
      </trkpt>
      <trkpt lat="45.39372" lon="4.6156">
        <ele>1151.31</ele>
        <time>2019-05-30T13:16:53Z</time>
      </trkpt>
      <trkpt lat="45.39354" lon="4.61567">
        <ele>1151.81</ele>
        <time>2019-05-30T13:16:58Z</time>
      </trkpt>
      <trkpt lat="45.39336" lon="4.61573">
        <ele>1152.28</ele>
        <time>2019-05-30T13:17:03Z</time>
      </trkpt>
      <trkpt lat="45.39318" lon="4.61575">
        <ele>1152.65</ele>
        <time>2019-05-30T13:17:08Z</time>
      </trkpt>
      <trkpt lat="45.393" lon="4.61577">
        <ele>1152.98</ele>
        <time>2019-05-30T13:17:13Z</time>
      </trkpt>
      <trkpt lat="45.39281" lon="4.61582">
        <ele>1153.17</ele>
        <time>2019-05-30T13:17:18Z</time>
      </trkpt>
      <trkpt lat="45.39262" lon="4.61583">
        <ele>1153.65</ele>
        <time>2019-05-30T13:17:23Z</time>
      </trkpt>
      <trkpt lat="45.39242" lon="4.61583">
        <ele>1154.1</ele>
        <time>2019-05-30T13:17:28Z</time>
      </trkpt>
      <trkpt lat="45.39222" lon="4.6158">
        <ele>1154.46</ele>
        <time>2019-05-30T13:17:33Z</time>
      </trkpt>
      <trkpt lat="45.39203" lon="4.61576">
        <ele>1154.64</ele>
        <time>2019-05-30T13:17:38Z</time>
      </trkpt>
      <trkpt lat="45.39183" lon="4.61572">
        <ele>1155.17</ele>
        <time>2019-05-30T13:17:43Z</time>
      </trkpt>
      <trkpt lat="45.39162" lon="4.6157">
        <ele>1155.59</ele>
        <time>2019-05-30T13:17:48Z</time>
      </trkpt>
      <trkpt lat="45.39141" lon="4.61569">
        <ele>1156.13</ele>
        <time>2019-05-30T13:17:53Z</time>
      </trkpt>
      <trkpt lat="45.39119" lon="4.6157">
        <ele>1156.68</ele>
        <time>2019-05-30T13:17:58Z</time>
      </trkpt>
      <trkpt lat="45.39098" lon="4.61571">
        <ele>1157.32</ele>
        <time>2019-05-30T13:18:03Z</time>
      </trkpt>
      <trkpt lat="45.39077" lon="4.61574">
        <ele>1157.73</ele>
        <time>2019-05-30T13:18:08Z</time>
      </trkpt>
      <trkpt lat="45.39056" lon="4.61574">
        <ele>1158.68</ele>
        <time>2019-05-30T13:18:14Z</time>
      </trkpt>
      <trkpt lat="45.39038" lon="4.61574">
        <ele>1159.36</ele>
        <time>2019-05-30T13:18:19Z</time>
      </trkpt>
      <trkpt lat="45.39019" lon="4.61576">
        <ele>1159.62</ele>
        <time>2019-05-30T13:18:24Z</time>
      </trkpt>
      <trkpt lat="45.39" lon="4.61577">
        <ele>1160.42</ele>
        <time>2019-05-30T13:18:29Z</time>
      </trkpt>
      <trkpt lat="45.38979" lon="4.61581">
        <ele>1160.82</ele>
        <time>2019-05-30T13:18:34Z</time>
      </trkpt>
      <trkpt lat="45.38958" lon="4.61583">
        <ele>1161.05</ele>
        <time>2019-05-30T13:18:39Z</time>
      </trkpt>
      <trkpt lat="45.3894" lon="4.61584">
        <ele>1161.57</ele>
        <time>2019-05-30T13:18:44Z</time>
      </trkpt>
      <trkpt lat="45.3892" lon="4.61582">
        <ele>1162.02</ele>
        <time>2019-05-30T13:18:50Z</time>
      </trkpt>
      <trkpt lat="45.38902" lon="4.61579">
        <ele>1162.55</ele>
        <time>2019-05-30T13:19:00Z</time>
      </trkpt>
      <trkpt lat="45.38919" lon="4.61588">
        <ele>1160.16</ele>
        <time>2019-05-30T13:20:47Z</time>
      </trkpt>
      <trkpt lat="45.38901" lon="4.61581">
        <ele>1161.06</ele>
        <time>2019-05-30T13:23:23Z</time>
      </trkpt>
      <trkpt lat="45.38889" lon="4.61558">
        <ele>1162.93</ele>
        <time>2019-05-30T13:23:31Z</time>
      </trkpt>
      <trkpt lat="45.38893" lon="4.61533">
        <ele>1164.7</ele>
        <time>2019-05-30T13:23:39Z</time>
      </trkpt>
      <trkpt lat="45.38902" lon="4.61507">
        <ele>1166.31</ele>
        <time>2019-05-30T13:23:48Z</time>
      </trkpt>
      <trkpt lat="45.38911" lon="4.61482">
        <ele>1168.15</ele>
        <time>2019-05-30T13:23:57Z</time>
      </trkpt>
      <trkpt lat="45.3892" lon="4.61458">
        <ele>1169.87</ele>
        <time>2019-05-30T13:24:06Z</time>
      </trkpt>
      <trkpt lat="45.38928" lon="4.61434">
        <ele>1171.65</ele>
        <time>2019-05-30T13:24:15Z</time>
      </trkpt>
      <trkpt lat="45.38934" lon="4.61408">
        <ele>1173.26</ele>
        <time>2019-05-30T13:24:24Z</time>
      </trkpt>
      <trkpt lat="45.38941" lon="4.61382">
        <ele>1175.27</ele>
        <time>2019-05-30T13:24:33Z</time>
      </trkpt>
      <trkpt lat="45.38945" lon="4.61356">
        <ele>1177.51</ele>
        <time>2019-05-30T13:24:42Z</time>
      </trkpt>
      <trkpt lat="45.38947" lon="4.6133">
        <ele>1179.44</ele>
        <time>2019-05-30T13:24:53Z</time>
      </trkpt>
      <trkpt lat="45.38953" lon="4.61304">
        <ele>1180.9</ele>
        <time>2019-05-30T13:25:11Z</time>
      </trkpt>
      <trkpt lat="45.38958" lon="4.61277">
        <ele>1183.04</ele>
        <time>2019-05-30T13:25:21Z</time>
      </trkpt>
      <trkpt lat="45.38963" lon="4.61252">
        <ele>1185.29</ele>
        <time>2019-05-30T13:25:30Z</time>
      </trkpt>
      <trkpt lat="45.38968" lon="4.61227">
        <ele>1187.34</ele>
        <time>2019-05-30T13:25:39Z</time>
      </trkpt>
      <trkpt lat="45.38971" lon="4.61199">
        <ele>1188.98</ele>
        <time>2019-05-30T13:25:48Z</time>
      </trkpt>
      <trkpt lat="45.38967" lon="4.61174">
        <ele>1190.29</ele>
        <time>2019-05-30T13:25:57Z</time>
      </trkpt>
      <trkpt lat="45.38973" lon="4.61148">
        <ele>1192.56</ele>
        <time>2019-05-30T13:26:07Z</time>
      </trkpt>
      <trkpt lat="45.38989" lon="4.6116">
        <ele>1195.48</ele>
        <time>2019-05-30T13:26:19Z</time>
      </trkpt>
      <trkpt lat="45.38996" lon="4.61185">
        <ele>1197.67</ele>
        <time>2019-05-30T13:26:28Z</time>
      </trkpt>
      <trkpt lat="45.39005" lon="4.61208">
        <ele>1199.15</ele>
        <time>2019-05-30T13:26:37Z</time>
      </trkpt>
      <trkpt lat="45.39015" lon="4.61232">
        <ele>1201.37</ele>
        <time>2019-05-30T13:26:46Z</time>
      </trkpt>
      <trkpt lat="45.39026" lon="4.61256">
        <ele>1202.75</ele>
        <time>2019-05-30T13:26:55Z</time>
      </trkpt>
      <trkpt lat="45.39035" lon="4.61279">
        <ele>1204.6</ele>
        <time>2019-05-30T13:27:03Z</time>
      </trkpt>
      <trkpt lat="45.39043" lon="4.61302">
        <ele>1206.45</ele>
        <time>2019-05-30T13:27:12Z</time>
      </trkpt>
      <trkpt lat="45.39051" lon="4.61326">
        <ele>1207.56</ele>
        <time>2019-05-30T13:27:20Z</time>
      </trkpt>
      <trkpt lat="45.39057" lon="4.6135">
        <ele>1208.27</ele>
        <time>2019-05-30T13:27:28Z</time>
      </trkpt>
      <trkpt lat="45.39075" lon="4.61358">
        <ele>1210.31</ele>
        <time>2019-05-30T13:27:37Z</time>
      </trkpt>
      <trkpt lat="45.39084" lon="4.61335">
        <ele>1211.83</ele>
        <time>2019-05-30T13:27:48Z</time>
      </trkpt>
      <trkpt lat="45.39083" lon="4.61307">
        <ele>1213.27</ele>
        <time>2019-05-30T13:27:58Z</time>
      </trkpt>
      <trkpt lat="45.39082" lon="4.61281">
        <ele>1215.15</ele>
        <time>2019-05-30T13:28:06Z</time>
      </trkpt>
      <trkpt lat="45.3908" lon="4.61255">
        <ele>1217.25</ele>
        <time>2019-05-30T13:28:15Z</time>
      </trkpt>
      <trkpt lat="45.3908" lon="4.61229">
        <ele>1218.72</ele>
        <time>2019-05-30T13:28:24Z</time>
      </trkpt>
      <trkpt lat="45.39081" lon="4.61202">
        <ele>1220.4</ele>
        <time>2019-05-30T13:28:33Z</time>
      </trkpt>
      <trkpt lat="45.39085" lon="4.61175">
        <ele>1223.21</ele>
        <time>2019-05-30T13:28:43Z</time>
      </trkpt>
      <trkpt lat="45.39091" lon="4.61149">
        <ele>1225.22</ele>
        <time>2019-05-30T13:28:53Z</time>
      </trkpt>
      <trkpt lat="45.39096" lon="4.61124">
        <ele>1227</ele>
        <time>2019-05-30T13:29:02Z</time>
      </trkpt>
      <trkpt lat="45.39101" lon="4.61098">
        <ele>1228.82</ele>
        <time>2019-05-30T13:29:11Z</time>
      </trkpt>
      <trkpt lat="45.39107" lon="4.61072">
        <ele>1230.84</ele>
        <time>2019-05-30T13:29:21Z</time>
      </trkpt>
      <trkpt lat="45.39112" lon="4.61046">
        <ele>1232.33</ele>
        <time>2019-05-30T13:29:30Z</time>
      </trkpt>
      <trkpt lat="45.39121" lon="4.61022">
        <ele>1234.36</ele>
        <time>2019-05-30T13:29:39Z</time>
      </trkpt>
      <trkpt lat="45.39121" lon="4.60994">
        <ele>1236.68</ele>
        <time>2019-05-30T13:29:49Z</time>
      </trkpt>
      <trkpt lat="45.39124" lon="4.60967">
        <ele>1238.41</ele>
        <time>2019-05-30T13:29:58Z</time>
      </trkpt>
      <trkpt lat="45.39124" lon="4.60941">
        <ele>1240.46</ele>
        <time>2019-05-30T13:30:07Z</time>
      </trkpt>
      <trkpt lat="45.39128" lon="4.60913">
        <ele>1242.22</ele>
        <time>2019-05-30T13:30:16Z</time>
      </trkpt>
      <trkpt lat="45.39129" lon="4.60886">
        <ele>1244.07</ele>
        <time>2019-05-30T13:30:25Z</time>
      </trkpt>
      <trkpt lat="45.39129" lon="4.6086">
        <ele>1246.18</ele>
        <time>2019-05-30T13:33:20Z</time>
      </trkpt>
      <trkpt lat="45.39146" lon="4.60844">
        <ele>1247.3</ele>
        <time>2019-05-30T13:36:31Z</time>
      </trkpt>
      <trkpt lat="45.39165" lon="4.60839">
        <ele>1249.06</ele>
        <time>2019-05-30T13:36:40Z</time>
      </trkpt>
      <trkpt lat="45.39183" lon="4.60842">
        <ele>1250.75</ele>
        <time>2019-05-30T13:36:48Z</time>
      </trkpt>
      <trkpt lat="45.39201" lon="4.60854">
        <ele>1253.14</ele>
        <time>2019-05-30T13:36:59Z</time>
      </trkpt>
      <trkpt lat="45.39218" lon="4.60867">
        <ele>1254.67</ele>
        <time>2019-05-30T13:37:08Z</time>
      </trkpt>
      <trkpt lat="45.39233" lon="4.6088">
        <ele>1256.58</ele>
        <time>2019-05-30T13:37:16Z</time>
      </trkpt>
      <trkpt lat="45.39245" lon="4.60901">
        <ele>1258.46</ele>
        <time>2019-05-30T13:37:25Z</time>
      </trkpt>
      <trkpt lat="45.39255" lon="4.60925">
        <ele>1260.51</ele>
        <time>2019-05-30T13:37:34Z</time>
      </trkpt>
      <trkpt lat="45.39265" lon="4.60947">
        <ele>1262.35</ele>
        <time>2019-05-30T13:37:43Z</time>
      </trkpt>
      <trkpt lat="45.39277" lon="4.60968">
        <ele>1263.88</ele>
        <time>2019-05-30T13:37:52Z</time>
      </trkpt>
      <trkpt lat="45.39284" lon="4.60992">
        <ele>1265.27</ele>
        <time>2019-05-30T13:38:00Z</time>
      </trkpt>
      <trkpt lat="45.39266" lon="4.60984">
        <ele>1269.06</ele>
        <time>2019-05-30T13:38:13Z</time>
      </trkpt>
      <trkpt lat="45.3925" lon="4.6097">
        <ele>1272.44</ele>
        <time>2019-05-30T13:38:22Z</time>
      </trkpt>
      <trkpt lat="45.39231" lon="4.60975">
        <ele>1273.1</ele>
        <time>2019-05-30T13:38:33Z</time>
      </trkpt>
      <trkpt lat="45.39224" lon="4.60999">
        <ele>1274.61</ele>
        <time>2019-05-30T13:38:41Z</time>
      </trkpt>
      <trkpt lat="45.39225" lon="4.61027">
        <ele>1276.07</ele>
        <time>2019-05-30T13:38:51Z</time>
      </trkpt>
      <trkpt lat="45.3922" lon="4.61053">
        <ele>1276.96</ele>
        <time>2019-05-30T13:39:02Z</time>
      </trkpt>
      <trkpt lat="45.39227" lon="4.61028">
        <ele>1276.19</ele>
        <time>2019-05-30T13:39:57Z</time>
      </trkpt>
      <trkpt lat="45.39245" lon="4.61021">
        <ele>1277.9</ele>
        <time>2019-05-30T13:40:05Z</time>
      </trkpt>
      <trkpt lat="45.39256" lon="4.61043">
        <ele>1282.14</ele>
        <time>2019-05-30T13:40:20Z</time>
      </trkpt>
      <trkpt lat="45.39264" lon="4.61067">
        <ele>1283.45</ele>
        <time>2019-05-30T13:40:28Z</time>
      </trkpt>
      <trkpt lat="45.39268" lon="4.61094">
        <ele>1284.29</ele>
        <time>2019-05-30T13:40:36Z</time>
      </trkpt>
      <trkpt lat="45.39269" lon="4.6112">
        <ele>1284.82</ele>
        <time>2019-05-30T13:40:45Z</time>
      </trkpt>
      <trkpt lat="45.39277" lon="4.61145">
        <ele>1286.56</ele>
        <time>2019-05-30T13:40:53Z</time>
      </trkpt>
      <trkpt lat="45.39271" lon="4.6117">
        <ele>1287.33</ele>
        <time>2019-05-30T13:41:06Z</time>
      </trkpt>
      <trkpt lat="45.39269" lon="4.61196">
        <ele>1288.58</ele>
        <time>2019-05-30T13:41:50Z</time>
      </trkpt>
      <trkpt lat="45.39279" lon="4.6122">
        <ele>1284.93</ele>
        <time>2019-05-30T13:49:38Z</time>
      </trkpt>
      <trkpt lat="45.39294" lon="4.61238">
        <ele>1277.6</ele>
        <time>2019-05-30T13:50:39Z</time>
      </trkpt>
      <trkpt lat="45.39308" lon="4.61255">
        <ele>1268.54</ele>
        <time>2019-05-30T13:51:15Z</time>
      </trkpt>
      <trkpt lat="45.39318" lon="4.61277">
        <ele>1259.26</ele>
        <time>2019-05-30T13:52:42Z</time>
      </trkpt>
      <trkpt lat="45.39337" lon="4.61279">
        <ele>1258.8</ele>
        <time>2019-05-30T13:52:55Z</time>
      </trkpt>
      <trkpt lat="45.39353" lon="4.61292">
        <ele>1254.76</ele>
        <time>2019-05-30T13:53:00Z</time>
      </trkpt>
      <trkpt lat="45.39373" lon="4.61301">
        <ele>1251.84</ele>
        <time>2019-05-30T13:53:04Z</time>
      </trkpt>
      <trkpt lat="45.39394" lon="4.61298">
        <ele>1247.58</ele>
        <time>2019-05-30T13:54:01Z</time>
      </trkpt>
      <trkpt lat="45.39412" lon="4.61309">
        <ele>1243.42</ele>
        <time>2019-05-30T13:54:08Z</time>
      </trkpt>
      <trkpt lat="45.39431" lon="4.6131">
        <ele>1240.24</ele>
        <time>2019-05-30T13:54:13Z</time>
      </trkpt>
      <trkpt lat="45.3945" lon="4.61311">
        <ele>1237.63</ele>
        <time>2019-05-30T13:54:17Z</time>
      </trkpt>
      <trkpt lat="45.39473" lon="4.61314">
        <ele>1231.15</ele>
        <time>2019-05-30T13:54:24Z</time>
      </trkpt>
      <trkpt lat="45.39495" lon="4.61316">
        <ele>1229.89</ele>
        <time>2019-05-30T13:54:29Z</time>
      </trkpt>
      <trkpt lat="45.39516" lon="4.61308">
        <ele>1224.08</ele>
        <time>2019-05-30T13:54:34Z</time>
      </trkpt>
      <trkpt lat="45.39536" lon="4.61312">
        <ele>1223.37</ele>
        <time>2019-05-30T13:54:39Z</time>
      </trkpt>
      <trkpt lat="45.39552" lon="4.61326">
        <ele>1219.58</ele>
        <time>2019-05-30T13:54:46Z</time>
      </trkpt>
      <trkpt lat="45.39571" lon="4.61336">
        <ele>1216.96</ele>
        <time>2019-05-30T13:54:53Z</time>
      </trkpt>
      <trkpt lat="45.39592" lon="4.61344">
        <ele>1211.58</ele>
        <time>2019-05-30T13:55:01Z</time>
      </trkpt>
      <trkpt lat="45.3961" lon="4.61351">
        <ele>1210.75</ele>
        <time>2019-05-30T13:55:05Z</time>
      </trkpt>
      <trkpt lat="45.39628" lon="4.61356">
        <ele>1209.33</ele>
        <time>2019-05-30T13:55:08Z</time>
      </trkpt>
      <trkpt lat="45.39648" lon="4.61363">
        <ele>1204.01</ele>
        <time>2019-05-30T13:55:19Z</time>
      </trkpt>
      <trkpt lat="45.39666" lon="4.61367">
        <ele>1203.57</ele>
        <time>2019-05-30T13:55:25Z</time>
      </trkpt>
      <trkpt lat="45.39687" lon="4.61369">
        <ele>1203.44</ele>
        <time>2019-05-30T13:55:30Z</time>
      </trkpt>
      <trkpt lat="45.39707" lon="4.61376">
        <ele>1201.08</ele>
        <time>2019-05-30T13:55:38Z</time>
      </trkpt>
      <trkpt lat="45.39724" lon="4.61384">
        <ele>1200.95</ele>
        <time>2019-05-30T13:55:43Z</time>
      </trkpt>
      <trkpt lat="45.39742" lon="4.61387">
        <ele>1201.19</ele>
        <time>2019-05-30T13:55:49Z</time>
      </trkpt>
      <trkpt lat="45.39763" lon="4.61389">
        <ele>1202.73</ele>
        <time>2019-05-30T13:57:21Z</time>
      </trkpt>
      <trkpt lat="45.39781" lon="4.61394">
        <ele>1202.41</ele>
        <time>2019-05-30T13:57:32Z</time>
      </trkpt>
      <trkpt lat="45.39803" lon="4.61406">
        <ele>1200.83</ele>
        <time>2019-05-30T13:57:36Z</time>
      </trkpt>
      <trkpt lat="45.39826" lon="4.6142">
        <ele>1196.36</ele>
        <time>2019-05-30T13:57:40Z</time>
      </trkpt>
      <trkpt lat="45.39847" lon="4.61428">
        <ele>1194.39</ele>
        <time>2019-05-30T13:57:45Z</time>
      </trkpt>
      <trkpt lat="45.39865" lon="4.61441">
        <ele>1194.94</ele>
        <time>2019-05-30T13:57:50Z</time>
      </trkpt>
      <trkpt lat="45.39885" lon="4.61454">
        <ele>1192.2</ele>
        <time>2019-05-30T13:57:54Z</time>
      </trkpt>
      <trkpt lat="45.39904" lon="4.61472">
        <ele>1192.41</ele>
        <time>2019-05-30T13:57:58Z</time>
      </trkpt>
      <trkpt lat="45.39919" lon="4.6149">
        <ele>1191.72</ele>
        <time>2019-05-30T13:58:01Z</time>
      </trkpt>
      <trkpt lat="45.39934" lon="4.61509">
        <ele>1192.07</ele>
        <time>2019-05-30T13:58:04Z</time>
      </trkpt>
      <trkpt lat="45.39951" lon="4.61521">
        <ele>1191.83</ele>
        <time>2019-05-30T13:58:07Z</time>
      </trkpt>
      <trkpt lat="45.39969" lon="4.61529">
        <ele>1189.19</ele>
        <time>2019-05-30T13:58:11Z</time>
      </trkpt>
      <trkpt lat="45.39987" lon="4.61541">
        <ele>1189.36</ele>
        <time>2019-05-30T13:58:15Z</time>
      </trkpt>
      <trkpt lat="45.40007" lon="4.61545">
        <ele>1187.61</ele>
        <time>2019-05-30T13:58:19Z</time>
      </trkpt>
      <trkpt lat="45.40022" lon="4.61562">
        <ele>1185.88</ele>
        <time>2019-05-30T13:58:22Z</time>
      </trkpt>
      <trkpt lat="45.40042" lon="4.61574">
        <ele>1183.24</ele>
        <time>2019-05-30T13:58:25Z</time>
      </trkpt>
      <trkpt lat="45.40054" lon="4.61548">
        <ele>1180.46</ele>
        <time>2019-05-30T13:58:29Z</time>
      </trkpt>
      <trkpt lat="45.4007" lon="4.61535">
        <ele>1180.1</ele>
        <time>2019-05-30T13:58:32Z</time>
      </trkpt>
      <trkpt lat="45.40089" lon="4.61526">
        <ele>1179.99</ele>
        <time>2019-05-30T13:58:36Z</time>
      </trkpt>
      <trkpt lat="45.40107" lon="4.61518">
        <ele>1180.13</ele>
        <time>2019-05-30T13:58:40Z</time>
      </trkpt>
      <trkpt lat="45.40127" lon="4.61499">
        <ele>1178.43</ele>
        <time>2019-05-30T13:58:45Z</time>
      </trkpt>
      <trkpt lat="45.40146" lon="4.61478">
        <ele>1178.93</ele>
        <time>2019-05-30T13:58:49Z</time>
      </trkpt>
      <trkpt lat="45.40166" lon="4.61464">
        <ele>1179.76</ele>
        <time>2019-05-30T13:58:53Z</time>
      </trkpt>
      <trkpt lat="45.40187" lon="4.61455">
        <ele>1179.71</ele>
        <time>2019-05-30T13:58:57Z</time>
      </trkpt>
      <trkpt lat="45.40205" lon="4.61446">
        <ele>1180.02</ele>
        <time>2019-05-30T13:59:02Z</time>
      </trkpt>
      <trkpt lat="45.40224" lon="4.6144">
        <ele>1181.58</ele>
        <time>2019-05-30T13:59:09Z</time>
      </trkpt>
      <trkpt lat="45.40241" lon="4.61427">
        <ele>1183.04</ele>
        <time>2019-05-30T13:59:15Z</time>
      </trkpt>
      <trkpt lat="45.40261" lon="4.61425">
        <ele>1184.14</ele>
        <time>2019-05-30T13:59:21Z</time>
      </trkpt>
      <trkpt lat="45.40281" lon="4.61427">
        <ele>1184.44</ele>
        <time>2019-05-30T13:59:26Z</time>
      </trkpt>
      <trkpt lat="45.403" lon="4.61429">
        <ele>1184.81</ele>
        <time>2019-05-30T13:59:31Z</time>
      </trkpt>
      <trkpt lat="45.40319" lon="4.61428">
        <ele>1185.12</ele>
        <time>2019-05-30T13:59:36Z</time>
      </trkpt>
      <trkpt lat="45.4034" lon="4.61429">
        <ele>1184.88</ele>
        <time>2019-05-30T13:59:42Z</time>
      </trkpt>
      <trkpt lat="45.4036" lon="4.61429">
        <ele>1185.21</ele>
        <time>2019-05-30T13:59:47Z</time>
      </trkpt>
      <trkpt lat="45.4038" lon="4.61427">
        <ele>1185.9</ele>
        <time>2019-05-30T13:59:53Z</time>
      </trkpt>
      <trkpt lat="45.40399" lon="4.61422">
        <ele>1185.57</ele>
        <time>2019-05-30T14:00:00Z</time>
      </trkpt>
      <trkpt lat="45.40419" lon="4.61421">
        <ele>1184.7</ele>
        <time>2019-05-30T14:00:34Z</time>
      </trkpt>
      <trkpt lat="45.40436" lon="4.61415">
        <ele>1184.71</ele>
        <time>2019-05-30T14:00:38Z</time>
      </trkpt>
      <trkpt lat="45.40456" lon="4.61416">
        <ele>1181.29</ele>
        <time>2019-05-30T14:00:43Z</time>
      </trkpt>
      <trkpt lat="45.40477" lon="4.61417">
        <ele>1176.83</ele>
        <time>2019-05-30T14:00:49Z</time>
      </trkpt>
      <trkpt lat="45.40497" lon="4.61419">
        <ele>1174.34</ele>
        <time>2019-05-30T14:00:54Z</time>
      </trkpt>
      <trkpt lat="45.40515" lon="4.6142">
        <ele>1172.71</ele>
        <time>2019-05-30T14:00:57Z</time>
      </trkpt>
      <trkpt lat="45.40536" lon="4.61423">
        <ele>1170.34</ele>
        <time>2019-05-30T14:01:00Z</time>
      </trkpt>
      <trkpt lat="45.40555" lon="4.61426">
        <ele>1167.72</ele>
        <time>2019-05-30T14:01:03Z</time>
      </trkpt>
      <trkpt lat="45.40573" lon="4.61418">
        <ele>1163.85</ele>
        <time>2019-05-30T14:01:07Z</time>
      </trkpt>
      <trkpt lat="45.40591" lon="4.61416">
        <ele>1159.08</ele>
        <time>2019-05-30T14:01:12Z</time>
      </trkpt>
      <trkpt lat="45.40609" lon="4.61423">
        <ele>1155.32</ele>
        <time>2019-05-30T14:01:17Z</time>
      </trkpt>
      <trkpt lat="45.40629" lon="4.61425">
        <ele>1148.63</ele>
        <time>2019-05-30T14:01:24Z</time>
      </trkpt>
      <trkpt lat="45.40649" lon="4.61421">
        <ele>1145.94</ele>
        <time>2019-05-30T14:01:30Z</time>
      </trkpt>
      <trkpt lat="45.40667" lon="4.61427">
        <ele>1140.82</ele>
        <time>2019-05-30T14:01:42Z</time>
      </trkpt>
      <trkpt lat="45.40685" lon="4.61431">
        <ele>1140.38</ele>
        <time>2019-05-30T14:02:10Z</time>
      </trkpt>
      <trkpt lat="45.40703" lon="4.61437">
        <ele>1139.32</ele>
        <time>2019-05-30T14:02:16Z</time>
      </trkpt>
      <trkpt lat="45.40722" lon="4.61442">
        <ele>1141.26</ele>
        <time>2019-05-30T14:04:00Z</time>
      </trkpt>
      <trkpt lat="45.4074" lon="4.61451">
        <ele>1142.95</ele>
        <time>2019-05-30T14:04:10Z</time>
      </trkpt>
      <trkpt lat="45.40759" lon="4.61453">
        <ele>1145.96</ele>
        <time>2019-05-30T14:04:19Z</time>
      </trkpt>
      <trkpt lat="45.40778" lon="4.61452">
        <ele>1148.74</ele>
        <time>2019-05-30T14:04:30Z</time>
      </trkpt>
      <trkpt lat="45.40797" lon="4.61449">
        <ele>1151.15</ele>
        <time>2019-05-30T14:04:40Z</time>
      </trkpt>
      <trkpt lat="45.40816" lon="4.6144">
        <ele>1154.11</ele>
        <time>2019-05-30T14:04:50Z</time>
      </trkpt>
      <trkpt lat="45.40833" lon="4.61432">
        <ele>1157.83</ele>
        <time>2019-05-30T14:04:58Z</time>
      </trkpt>
      <trkpt lat="45.40853" lon="4.61434">
        <ele>1160.39</ele>
        <time>2019-05-30T14:05:08Z</time>
      </trkpt>
      <trkpt lat="45.40872" lon="4.61442">
        <ele>1162.86</ele>
        <time>2019-05-30T14:05:18Z</time>
      </trkpt>
      <trkpt lat="45.4089" lon="4.61445">
        <ele>1168.3</ele>
        <time>2019-05-30T14:05:44Z</time>
      </trkpt>
      <trkpt lat="45.40909" lon="4.61447">
        <ele>1173.62</ele>
        <time>2019-05-30T14:06:16Z</time>
      </trkpt>
      <trkpt lat="45.40927" lon="4.6145">
        <ele>1178.83</ele>
        <time>2019-05-30T14:06:41Z</time>
      </trkpt>
      <trkpt lat="45.40946" lon="4.61448">
        <ele>1184.31</ele>
        <time>2019-05-30T14:07:05Z</time>
      </trkpt>
      <trkpt lat="45.40962" lon="4.61458">
        <ele>1189.48</ele>
        <time>2019-05-30T14:07:46Z</time>
      </trkpt>
      <trkpt lat="45.4098" lon="4.61467">
        <ele>1192.1</ele>
        <time>2019-05-30T14:10:46Z</time>
      </trkpt>
      <trkpt lat="45.40996" lon="4.61481">
        <ele>1194.18</ele>
        <time>2019-05-30T14:10:55Z</time>
      </trkpt>
      <trkpt lat="45.41014" lon="4.61494">
        <ele>1197.63</ele>
        <time>2019-05-30T14:11:07Z</time>
      </trkpt>
      <trkpt lat="45.41032" lon="4.61501">
        <ele>1200.43</ele>
        <time>2019-05-30T14:11:16Z</time>
      </trkpt>
      <trkpt lat="45.41051" lon="4.61504">
        <ele>1202.79</ele>
        <time>2019-05-30T14:11:25Z</time>
      </trkpt>
      <trkpt lat="45.4107" lon="4.6151">
        <ele>1205.5</ele>
        <time>2019-05-30T14:11:34Z</time>
      </trkpt>
      <trkpt lat="45.41088" lon="4.61511">
        <ele>1208.41</ele>
        <time>2019-05-30T14:11:43Z</time>
      </trkpt>
      <trkpt lat="45.41109" lon="4.6151">
        <ele>1209.27</ele>
        <time>2019-05-30T14:11:53Z</time>
      </trkpt>
      <trkpt lat="45.41128" lon="4.61506">
        <ele>1208.85</ele>
        <time>2019-05-30T14:12:00Z</time>
      </trkpt>
      <trkpt lat="45.41146" lon="4.61498">
        <ele>1208.83</ele>
        <time>2019-05-30T14:12:06Z</time>
      </trkpt>
      <trkpt lat="45.41164" lon="4.61489">
        <ele>1209.58</ele>
        <time>2019-05-30T14:12:12Z</time>
      </trkpt>
      <trkpt lat="45.41183" lon="4.6148">
        <ele>1211.06</ele>
        <time>2019-05-30T14:12:19Z</time>
      </trkpt>
      <trkpt lat="45.41201" lon="4.61476">
        <ele>1212.08</ele>
        <time>2019-05-30T14:12:26Z</time>
      </trkpt>
      <trkpt lat="45.4122" lon="4.61468">
        <ele>1212.9</ele>
        <time>2019-05-30T14:12:34Z</time>
      </trkpt>
      <trkpt lat="45.41238" lon="4.61453">
        <ele>1212.56</ele>
        <time>2019-05-30T14:12:41Z</time>
      </trkpt>
      <trkpt lat="45.41255" lon="4.61443">
        <ele>1211.75</ele>
        <time>2019-05-30T14:13:47Z</time>
      </trkpt>
      <trkpt lat="45.41277" lon="4.61439">
        <ele>1211.88</ele>
        <time>2019-05-30T14:14:57Z</time>
      </trkpt>
      <trkpt lat="45.41296" lon="4.61434">
        <ele>1210.67</ele>
        <time>2019-05-30T14:15:00Z</time>
      </trkpt>
      <trkpt lat="45.41319" lon="4.61441">
        <ele>1206</ele>
        <time>2019-05-30T14:15:03Z</time>
      </trkpt>
      <trkpt lat="45.41337" lon="4.61457">
        <ele>1204.71</ele>
        <time>2019-05-30T14:15:06Z</time>
      </trkpt>
      <trkpt lat="45.41359" lon="4.61466">
        <ele>1202.21</ele>
        <time>2019-05-30T14:15:09Z</time>
      </trkpt>
      <trkpt lat="45.41379" lon="4.61468">
        <ele>1194.57</ele>
        <time>2019-05-30T14:15:13Z</time>
      </trkpt>
      <trkpt lat="45.41399" lon="4.61466">
        <ele>1190.5</ele>
        <time>2019-05-30T14:15:17Z</time>
      </trkpt>
      <trkpt lat="45.41421" lon="4.61468">
        <ele>1186.13</ele>
        <time>2019-05-30T14:15:21Z</time>
      </trkpt>
      <trkpt lat="45.41439" lon="4.61476">
        <ele>1180.17</ele>
        <time>2019-05-30T14:15:25Z</time>
      </trkpt>
      <trkpt lat="45.41458" lon="4.6147">
        <ele>1176.09</ele>
        <time>2019-05-30T14:15:53Z</time>
      </trkpt>
      <trkpt lat="45.41482" lon="4.61469">
        <ele>1174.31</ele>
        <time>2019-05-30T14:15:57Z</time>
      </trkpt>
      <trkpt lat="45.41507" lon="4.61471">
        <ele>1171.48</ele>
        <time>2019-05-30T14:16:00Z</time>
      </trkpt>
      <trkpt lat="45.41525" lon="4.61474">
        <ele>1167.17</ele>
        <time>2019-05-30T14:16:03Z</time>
      </trkpt>
      <trkpt lat="45.41515" lon="4.615">
        <ele>1161.48</ele>
        <time>2019-05-30T14:16:30Z</time>
      </trkpt>
      <trkpt lat="45.415" lon="4.61519">
        <ele>1162.18</ele>
        <time>2019-05-30T14:16:35Z</time>
      </trkpt>
      <trkpt lat="45.41487" lon="4.61538">
        <ele>1163.03</ele>
        <time>2019-05-30T14:16:40Z</time>
      </trkpt>
      <trkpt lat="45.4147" lon="4.61557">
        <ele>1162.66</ele>
        <time>2019-05-30T14:16:45Z</time>
      </trkpt>
      <trkpt lat="45.41455" lon="4.61574">
        <ele>1162.58</ele>
        <time>2019-05-30T14:16:49Z</time>
      </trkpt>
      <trkpt lat="45.41474" lon="4.61573">
        <ele>1157.8</ele>
        <time>2019-05-30T14:17:26Z</time>
      </trkpt>
      <trkpt lat="45.41502" lon="4.61568">
        <ele>1155.54</ele>
        <time>2019-05-30T14:17:30Z</time>
      </trkpt>
      <trkpt lat="45.41527" lon="4.61563">
        <ele>1150.23</ele>
        <time>2019-05-30T14:17:33Z</time>
      </trkpt>
      <trkpt lat="45.41544" lon="4.61548">
        <ele>1144.71</ele>
        <time>2019-05-30T14:17:39Z</time>
      </trkpt>
      <trkpt lat="45.4156" lon="4.61533">
        <ele>1143.31</ele>
        <time>2019-05-30T14:17:44Z</time>
      </trkpt>
      <trkpt lat="45.41562" lon="4.61558">
        <ele>1138.06</ele>
        <time>2019-05-30T14:17:51Z</time>
      </trkpt>
      <trkpt lat="45.41549" lon="4.61582">
        <ele>1136.22</ele>
        <time>2019-05-30T14:17:54Z</time>
      </trkpt>
      <trkpt lat="45.4157" lon="4.61576">
        <ele>1128.5</ele>
        <time>2019-05-30T14:18:02Z</time>
      </trkpt>
      <trkpt lat="45.41587" lon="4.61562">
        <ele>1127.07</ele>
        <time>2019-05-30T14:18:05Z</time>
      </trkpt>
      <trkpt lat="45.41601" lon="4.61545">
        <ele>1126.01</ele>
        <time>2019-05-30T14:18:08Z</time>
      </trkpt>
      <trkpt lat="45.41615" lon="4.61528">
        <ele>1123.55</ele>
        <time>2019-05-30T14:18:11Z</time>
      </trkpt>
      <trkpt lat="45.41607" lon="4.61553">
        <ele>1120.05</ele>
        <time>2019-05-30T14:18:17Z</time>
      </trkpt>
      <trkpt lat="45.41597" lon="4.61576">
        <ele>1119.01</ele>
        <time>2019-05-30T14:18:20Z</time>
      </trkpt>
      <trkpt lat="45.41581" lon="4.61601">
        <ele>1117.68</ele>
        <time>2019-05-30T14:18:24Z</time>
      </trkpt>
      <trkpt lat="45.41567" lon="4.6162">
        <ele>1115.8</ele>
        <time>2019-05-30T14:18:27Z</time>
      </trkpt>
      <trkpt lat="45.4155" lon="4.61635">
        <ele>1115.15</ele>
        <time>2019-05-30T14:18:30Z</time>
      </trkpt>
      <trkpt lat="45.4153" lon="4.61649">
        <ele>1113.98</ele>
        <time>2019-05-30T14:18:33Z</time>
      </trkpt>
      <trkpt lat="45.41508" lon="4.61663">
        <ele>1112.88</ele>
        <time>2019-05-30T14:18:36Z</time>
      </trkpt>
      <trkpt lat="45.41485" lon="4.61675">
        <ele>1111.08</ele>
        <time>2019-05-30T14:18:39Z</time>
      </trkpt>
      <trkpt lat="45.41466" lon="4.61683">
        <ele>1109.52</ele>
        <time>2019-05-30T14:18:41Z</time>
      </trkpt>
      <trkpt lat="45.41441" lon="4.61679">
        <ele>1107.43</ele>
        <time>2019-05-30T14:18:44Z</time>
      </trkpt>
      <trkpt lat="45.41415" lon="4.61685">
        <ele>1106.2</ele>
        <time>2019-05-30T14:18:47Z</time>
      </trkpt>
      <trkpt lat="45.41392" lon="4.61698">
        <ele>1104.38</ele>
        <time>2019-05-30T14:18:50Z</time>
      </trkpt>
      <trkpt lat="45.41368" lon="4.61716">
        <ele>1101.67</ele>
        <time>2019-05-30T14:18:53Z</time>
      </trkpt>
      <trkpt lat="45.41353" lon="4.61732">
        <ele>1100.4</ele>
        <time>2019-05-30T14:18:55Z</time>
      </trkpt>
      <trkpt lat="45.41338" lon="4.61749">
        <ele>1099.23</ele>
        <time>2019-05-30T14:18:57Z</time>
      </trkpt>
      <trkpt lat="45.41322" lon="4.61764">
        <ele>1097.46</ele>
        <time>2019-05-30T14:18:59Z</time>
      </trkpt>
      <trkpt lat="45.41306" lon="4.6178">
        <ele>1095.89</ele>
        <time>2019-05-30T14:19:01Z</time>
      </trkpt>
      <trkpt lat="45.41289" lon="4.61796">
        <ele>1094.54</ele>
        <time>2019-05-30T14:19:03Z</time>
      </trkpt>
      <trkpt lat="45.4127" lon="4.61809">
        <ele>1092.95</ele>
        <time>2019-05-30T14:19:05Z</time>
      </trkpt>
      <trkpt lat="45.4125" lon="4.61823">
        <ele>1091.61</ele>
        <time>2019-05-30T14:19:07Z</time>
      </trkpt>
      <trkpt lat="45.41228" lon="4.61831">
        <ele>1087.5</ele>
        <time>2019-05-30T14:19:10Z</time>
      </trkpt>
      <trkpt lat="45.4121" lon="4.61837">
        <ele>1084.87</ele>
        <time>2019-05-30T14:19:18Z</time>
      </trkpt>
      <trkpt lat="45.41228" lon="4.61841">
        <ele>1084.04</ele>
        <time>2019-05-30T14:19:41Z</time>
      </trkpt>
      <trkpt lat="45.41247" lon="4.61838">
        <ele>1083.42</ele>
        <time>2019-05-30T14:19:45Z</time>
      </trkpt>
      <trkpt lat="45.41266" lon="4.61834">
        <ele>1082.64</ele>
        <time>2019-05-30T14:19:49Z</time>
      </trkpt>
      <trkpt lat="45.41286" lon="4.61823">
        <ele>1081.17</ele>
        <time>2019-05-30T14:19:53Z</time>
      </trkpt>
      <trkpt lat="45.41308" lon="4.61815">
        <ele>1079.44</ele>
        <time>2019-05-30T14:19:57Z</time>
      </trkpt>
      <trkpt lat="45.41329" lon="4.61808">
        <ele>1076.69</ele>
        <time>2019-05-30T14:20:00Z</time>
      </trkpt>
      <trkpt lat="45.4135" lon="4.61806">
        <ele>1075.18</ele>
        <time>2019-05-30T14:20:03Z</time>
      </trkpt>
      <trkpt lat="45.41367" lon="4.61801">
        <ele>1074.34</ele>
        <time>2019-05-30T14:20:05Z</time>
      </trkpt>
      <trkpt lat="45.41392" lon="4.61793">
        <ele>1072.69</ele>
        <time>2019-05-30T14:20:08Z</time>
      </trkpt>
      <trkpt lat="45.41415" lon="4.61784">
        <ele>1070.48</ele>
        <time>2019-05-30T14:20:11Z</time>
      </trkpt>
      <trkpt lat="45.41436" lon="4.61774">
        <ele>1069.96</ele>
        <time>2019-05-30T14:20:14Z</time>
      </trkpt>
      <trkpt lat="45.41458" lon="4.61763">
        <ele>1069.55</ele>
        <time>2019-05-30T14:20:17Z</time>
      </trkpt>
      <trkpt lat="45.41481" lon="4.6176">
        <ele>1068.63</ele>
        <time>2019-05-30T14:20:20Z</time>
      </trkpt>
      <trkpt lat="45.41503" lon="4.61762">
        <ele>1066.21</ele>
        <time>2019-05-30T14:20:23Z</time>
      </trkpt>
      <trkpt lat="45.41523" lon="4.61765">
        <ele>1064.11</ele>
        <time>2019-05-30T14:20:26Z</time>
      </trkpt>
      <trkpt lat="45.41542" lon="4.61761">
        <ele>1064.18</ele>
        <time>2019-05-30T14:20:29Z</time>
      </trkpt>
      <trkpt lat="45.41563" lon="4.61753">
        <ele>1062.87</ele>
        <time>2019-05-30T14:20:32Z</time>
      </trkpt>
      <trkpt lat="45.41584" lon="4.61741">
        <ele>1061.52</ele>
        <time>2019-05-30T14:20:35Z</time>
      </trkpt>
      <trkpt lat="45.41604" lon="4.61728">
        <ele>1060.64</ele>
        <time>2019-05-30T14:20:38Z</time>
      </trkpt>
      <trkpt lat="45.41626" lon="4.6172">
        <ele>1059.53</ele>
        <time>2019-05-30T14:20:41Z</time>
      </trkpt>
      <trkpt lat="45.41648" lon="4.61709">
        <ele>1058.02</ele>
        <time>2019-05-30T14:20:44Z</time>
      </trkpt>
      <trkpt lat="45.41666" lon="4.6169">
        <ele>1056.47</ele>
        <time>2019-05-30T14:20:47Z</time>
      </trkpt>
      <trkpt lat="45.41687" lon="4.61678">
        <ele>1055.39</ele>
        <time>2019-05-30T14:20:50Z</time>
      </trkpt>
      <trkpt lat="45.41705" lon="4.61675">
        <ele>1053.6</ele>
        <time>2019-05-30T14:20:52Z</time>
      </trkpt>
      <trkpt lat="45.41729" lon="4.61677">
        <ele>1051.25</ele>
        <time>2019-05-30T14:20:55Z</time>
      </trkpt>
      <trkpt lat="45.41748" lon="4.61683">
        <ele>1050.64</ele>
        <time>2019-05-30T14:20:57Z</time>
      </trkpt>
      <trkpt lat="45.41772" lon="4.61692">
        <ele>1047.98</ele>
        <time>2019-05-30T14:21:00Z</time>
      </trkpt>
      <trkpt lat="45.41794" lon="4.61697">
        <ele>1047.11</ele>
        <time>2019-05-30T14:21:03Z</time>
      </trkpt>
      <trkpt lat="45.41816" lon="4.61707">
        <ele>1046.71</ele>
        <time>2019-05-30T14:21:06Z</time>
      </trkpt>
      <trkpt lat="45.41838" lon="4.61708">
        <ele>1044.27</ele>
        <time>2019-05-30T14:21:09Z</time>
      </trkpt>
      <trkpt lat="45.41862" lon="4.61705">
        <ele>1042.9</ele>
        <time>2019-05-30T14:21:12Z</time>
      </trkpt>
      <trkpt lat="45.4188" lon="4.61688">
        <ele>1041.96</ele>
        <time>2019-05-30T14:21:15Z</time>
      </trkpt>
      <trkpt lat="45.419" lon="4.61674">
        <ele>1040.28</ele>
        <time>2019-05-30T14:21:18Z</time>
      </trkpt>
      <trkpt lat="45.41897" lon="4.61705">
        <ele>1038.2</ele>
        <time>2019-05-30T14:21:29Z</time>
      </trkpt>
      <trkpt lat="45.41885" lon="4.61728">
        <ele>1034.27</ele>
        <time>2019-05-30T14:21:32Z</time>
      </trkpt>
      <trkpt lat="45.41906" lon="4.6173">
        <ele>1032.58</ele>
        <time>2019-05-30T14:22:47Z</time>
      </trkpt>
      <trkpt lat="45.41926" lon="4.61729">
        <ele>1028.78</ele>
        <time>2019-05-30T14:22:52Z</time>
      </trkpt>
      <trkpt lat="45.41947" lon="4.61734">
        <ele>1017.34</ele>
        <time>2019-05-30T14:22:58Z</time>
      </trkpt>
      <trkpt lat="45.41969" lon="4.6173">
        <ele>1011.22</ele>
        <time>2019-05-30T14:23:02Z</time>
      </trkpt>
      <trkpt lat="45.41981" lon="4.61752">
        <ele>1004.95</ele>
        <time>2019-05-30T14:23:08Z</time>
      </trkpt>
      <trkpt lat="45.4199" lon="4.61776">
        <ele>996.09</ele>
        <time>2019-05-30T14:23:18Z</time>
      </trkpt>
      <trkpt lat="45.42009" lon="4.61776">
        <ele>989.57</ele>
        <time>2019-05-30T14:23:26Z</time>
      </trkpt>
      <trkpt lat="45.42028" lon="4.61772">
        <ele>985.83</ele>
        <time>2019-05-30T14:23:30Z</time>
      </trkpt>
      <trkpt lat="45.42047" lon="4.61766">
        <ele>981.71</ele>
        <time>2019-05-30T14:23:33Z</time>
      </trkpt>
      <trkpt lat="45.42065" lon="4.61754">
        <ele>976.4</ele>
        <time>2019-05-30T14:23:36Z</time>
      </trkpt>
      <trkpt lat="45.42084" lon="4.61745">
        <ele>972.18</ele>
        <time>2019-05-30T14:23:39Z</time>
      </trkpt>
      <trkpt lat="45.42107" lon="4.61737">
        <ele>968.62</ele>
        <time>2019-05-30T14:23:43Z</time>
      </trkpt>
      <trkpt lat="45.42127" lon="4.61728">
        <ele>965.72</ele>
        <time>2019-05-30T14:23:46Z</time>
      </trkpt>
      <trkpt lat="45.42148" lon="4.61719">
        <ele>959.21</ele>
        <time>2019-05-30T14:23:51Z</time>
      </trkpt>
      <trkpt lat="45.42168" lon="4.61709">
        <ele>955.15</ele>
        <time>2019-05-30T14:23:56Z</time>
      </trkpt>
      <trkpt lat="45.42189" lon="4.61711">
        <ele>948.89</ele>
        <time>2019-05-30T14:24:01Z</time>
      </trkpt>
      <trkpt lat="45.42208" lon="4.61715">
        <ele>944.13</ele>
        <time>2019-05-30T14:24:05Z</time>
      </trkpt>
      <trkpt lat="45.42224" lon="4.61699">
        <ele>937.38</ele>
        <time>2019-05-30T14:24:11Z</time>
      </trkpt>
      <trkpt lat="45.42242" lon="4.61694">
        <ele>931.26</ele>
        <time>2019-05-30T14:24:20Z</time>
      </trkpt>
      <trkpt lat="45.42261" lon="4.61692">
        <ele>926.16</ele>
        <time>2019-05-30T14:24:26Z</time>
      </trkpt>
      <trkpt lat="45.42278" lon="4.61702">
        <ele>919.55</ele>
        <time>2019-05-30T14:24:35Z</time>
      </trkpt>
      <trkpt lat="45.42297" lon="4.61707">
        <ele>913.67</ele>
        <time>2019-05-30T14:24:42Z</time>
      </trkpt>
      <trkpt lat="45.42316" lon="4.61705">
        <ele>908.66</ele>
        <time>2019-05-30T14:25:46Z</time>
      </trkpt>
      <trkpt lat="45.42335" lon="4.61697">
        <ele>903.46</ele>
        <time>2019-05-30T14:25:54Z</time>
      </trkpt>
      <trkpt lat="45.42357" lon="4.61696">
        <ele>899.09</ele>
        <time>2019-05-30T14:26:01Z</time>
      </trkpt>
      <trkpt lat="45.42375" lon="4.61693">
        <ele>892.45</ele>
        <time>2019-05-30T14:26:07Z</time>
      </trkpt>
      <trkpt lat="45.42394" lon="4.61693">
        <ele>886.97</ele>
        <time>2019-05-30T14:26:17Z</time>
      </trkpt>
      <trkpt lat="45.42413" lon="4.61707">
        <ele>884.11</ele>
        <time>2019-05-30T14:26:23Z</time>
      </trkpt>
      <trkpt lat="45.42429" lon="4.6172">
        <ele>882.36</ele>
        <time>2019-05-30T14:26:27Z</time>
      </trkpt>
      <trkpt lat="45.42449" lon="4.61724">
        <ele>881.61</ele>
        <time>2019-05-30T14:26:30Z</time>
      </trkpt>
      <trkpt lat="45.42475" lon="4.61723">
        <ele>878.08</ele>
        <time>2019-05-30T14:26:33Z</time>
      </trkpt>
      <trkpt lat="45.42493" lon="4.61726">
        <ele>873.76</ele>
        <time>2019-05-30T14:26:54Z</time>
      </trkpt>
      <trkpt lat="45.42513" lon="4.61735">
        <ele>874.08</ele>
        <time>2019-05-30T14:27:30Z</time>
      </trkpt>
      <trkpt lat="45.42524" lon="4.61757">
        <ele>874.09</ele>
        <time>2019-05-30T14:27:38Z</time>
      </trkpt>
      <trkpt lat="45.42519" lon="4.61787">
        <ele>873.65</ele>
        <time>2019-05-30T14:27:45Z</time>
      </trkpt>
      <trkpt lat="45.42507" lon="4.61808">
        <ele>871.82</ele>
        <time>2019-05-30T14:27:50Z</time>
      </trkpt>
      <trkpt lat="45.4252" lon="4.61828">
        <ele>869.74</ele>
        <time>2019-05-30T14:27:59Z</time>
      </trkpt>
      <trkpt lat="45.42538" lon="4.61844">
        <ele>869.21</ele>
        <time>2019-05-30T14:28:04Z</time>
      </trkpt>
      <trkpt lat="45.42554" lon="4.61858">
        <ele>868.73</ele>
        <time>2019-05-30T14:28:09Z</time>
      </trkpt>
      <trkpt lat="45.42569" lon="4.61872">
        <ele>868.29</ele>
        <time>2019-05-30T14:28:13Z</time>
      </trkpt>
      <trkpt lat="45.42586" lon="4.61886">
        <ele>868.03</ele>
        <time>2019-05-30T14:28:17Z</time>
      </trkpt>
      <trkpt lat="45.42603" lon="4.61903">
        <ele>867.46</ele>
        <time>2019-05-30T14:28:21Z</time>
      </trkpt>
      <trkpt lat="45.42617" lon="4.61919">
        <ele>866.74</ele>
        <time>2019-05-30T14:28:25Z</time>
      </trkpt>
      <trkpt lat="45.4263" lon="4.61945">
        <ele>866.15</ele>
        <time>2019-05-30T14:28:29Z</time>
      </trkpt>
      <trkpt lat="45.42641" lon="4.61968">
        <ele>865.56</ele>
        <time>2019-05-30T14:28:34Z</time>
      </trkpt>
      <trkpt lat="45.42654" lon="4.61989">
        <ele>864.86</ele>
        <time>2019-05-30T14:28:38Z</time>
      </trkpt>
      <trkpt lat="45.42663" lon="4.62016">
        <ele>864.3</ele>
        <time>2019-05-30T14:28:43Z</time>
      </trkpt>
      <trkpt lat="45.42671" lon="4.6204">
        <ele>863.91</ele>
        <time>2019-05-30T14:28:47Z</time>
      </trkpt>
      <trkpt lat="45.42682" lon="4.62069">
        <ele>863.36</ele>
        <time>2019-05-30T14:28:51Z</time>
      </trkpt>
      <trkpt lat="45.42696" lon="4.62094">
        <ele>862.57</ele>
        <time>2019-05-30T14:28:55Z</time>
      </trkpt>
      <trkpt lat="45.42702" lon="4.62122">
        <ele>862.08</ele>
        <time>2019-05-30T14:28:59Z</time>
      </trkpt>
      <trkpt lat="45.42708" lon="4.62151">
        <ele>860.38</ele>
        <time>2019-05-30T14:29:03Z</time>
      </trkpt>
      <trkpt lat="45.42713" lon="4.62179">
        <ele>860.17</ele>
        <time>2019-05-30T14:29:06Z</time>
      </trkpt>
      <trkpt lat="45.42714" lon="4.62212">
        <ele>859.21</ele>
        <time>2019-05-30T14:29:10Z</time>
      </trkpt>
      <trkpt lat="45.42714" lon="4.62245">
        <ele>857.99</ele>
        <time>2019-05-30T14:29:14Z</time>
      </trkpt>
      <trkpt lat="45.42719" lon="4.62274">
        <ele>857.37</ele>
        <time>2019-05-30T14:29:18Z</time>
      </trkpt>
      <trkpt lat="45.42723" lon="4.62307">
        <ele>856.7</ele>
        <time>2019-05-30T14:29:23Z</time>
      </trkpt>
      <trkpt lat="45.42724" lon="4.62334">
        <ele>855.61</ele>
        <time>2019-05-30T14:29:26Z</time>
      </trkpt>
      <trkpt lat="45.42723" lon="4.62361">
        <ele>854.69</ele>
        <time>2019-05-30T14:29:29Z</time>
      </trkpt>
      <trkpt lat="45.42723" lon="4.62386">
        <ele>854.32</ele>
        <time>2019-05-30T14:29:32Z</time>
      </trkpt>
      <trkpt lat="45.42722" lon="4.62413">
        <ele>853.78</ele>
        <time>2019-05-30T14:29:35Z</time>
      </trkpt>
      <trkpt lat="45.4272" lon="4.62446">
        <ele>852.71</ele>
        <time>2019-05-30T14:29:39Z</time>
      </trkpt>
      <trkpt lat="45.42724" lon="4.62473">
        <ele>852.35</ele>
        <time>2019-05-30T14:29:42Z</time>
      </trkpt>
      <trkpt lat="45.42729" lon="4.62506">
        <ele>852.84</ele>
        <time>2019-05-30T14:29:46Z</time>
      </trkpt>
      <trkpt lat="45.42736" lon="4.62534">
        <ele>852.02</ele>
        <time>2019-05-30T14:29:50Z</time>
      </trkpt>
      <trkpt lat="45.42741" lon="4.62562">
        <ele>851.21</ele>
        <time>2019-05-30T14:29:54Z</time>
      </trkpt>
      <trkpt lat="45.42744" lon="4.62595">
        <ele>850.06</ele>
        <time>2019-05-30T14:29:58Z</time>
      </trkpt>
      <trkpt lat="45.42749" lon="4.62621">
        <ele>850.2</ele>
        <time>2019-05-30T14:30:01Z</time>
      </trkpt>
      <trkpt lat="45.42751" lon="4.62652">
        <ele>849.95</ele>
        <time>2019-05-30T14:30:05Z</time>
      </trkpt>
      <trkpt lat="45.4275" lon="4.62684">
        <ele>848.4</ele>
        <time>2019-05-30T14:30:09Z</time>
      </trkpt>
      <trkpt lat="45.42745" lon="4.62717">
        <ele>847.37</ele>
        <time>2019-05-30T14:30:13Z</time>
      </trkpt>
      <trkpt lat="45.42742" lon="4.62743">
        <ele>846.75</ele>
        <time>2019-05-30T14:30:17Z</time>
      </trkpt>
      <trkpt lat="45.42736" lon="4.62769">
        <ele>845.23</ele>
        <time>2019-05-30T14:30:21Z</time>
      </trkpt>
      <trkpt lat="45.42729" lon="4.62797">
        <ele>844.68</ele>
        <time>2019-05-30T14:30:25Z</time>
      </trkpt>
      <trkpt lat="45.42726" lon="4.62827">
        <ele>844.39</ele>
        <time>2019-05-30T14:30:29Z</time>
      </trkpt>
      <trkpt lat="45.42725" lon="4.62855">
        <ele>843.43</ele>
        <time>2019-05-30T14:30:33Z</time>
      </trkpt>
      <trkpt lat="45.42727" lon="4.62882">
        <ele>843.03</ele>
        <time>2019-05-30T14:30:38Z</time>
      </trkpt>
      <trkpt lat="45.42728" lon="4.6291">
        <ele>842.89</ele>
        <time>2019-05-30T14:30:42Z</time>
      </trkpt>
      <trkpt lat="45.42732" lon="4.62938">
        <ele>842.21</ele>
        <time>2019-05-30T14:30:46Z</time>
      </trkpt>
      <trkpt lat="45.42734" lon="4.62966">
        <ele>841.73</ele>
        <time>2019-05-30T14:30:50Z</time>
      </trkpt>
      <trkpt lat="45.4274" lon="4.62993">
        <ele>841.01</ele>
        <time>2019-05-30T14:30:54Z</time>
      </trkpt>
      <trkpt lat="45.42747" lon="4.63021">
        <ele>840.14</ele>
        <time>2019-05-30T14:30:58Z</time>
      </trkpt>
      <trkpt lat="45.42757" lon="4.63052">
        <ele>839.81</ele>
        <time>2019-05-30T14:31:02Z</time>
      </trkpt>
      <trkpt lat="45.42766" lon="4.6308">
        <ele>838.8</ele>
        <time>2019-05-30T14:31:06Z</time>
      </trkpt>
      <trkpt lat="45.42773" lon="4.63108">
        <ele>838.46</ele>
        <time>2019-05-30T14:31:10Z</time>
      </trkpt>
      <trkpt lat="45.42774" lon="4.63139">
        <ele>838.01</ele>
        <time>2019-05-30T14:31:14Z</time>
      </trkpt>
      <trkpt lat="45.42776" lon="4.63165">
        <ele>837.18</ele>
        <time>2019-05-30T14:31:17Z</time>
      </trkpt>
      <trkpt lat="45.42783" lon="4.63197">
        <ele>836.69</ele>
        <time>2019-05-30T14:31:21Z</time>
      </trkpt>
      <trkpt lat="45.42788" lon="4.63227">
        <ele>835.71</ele>
        <time>2019-05-30T14:31:25Z</time>
      </trkpt>
      <trkpt lat="45.42793" lon="4.63253">
        <ele>834.99</ele>
        <time>2019-05-30T14:31:28Z</time>
      </trkpt>
      <trkpt lat="45.42796" lon="4.63281">
        <ele>834.69</ele>
        <time>2019-05-30T14:31:32Z</time>
      </trkpt>
      <trkpt lat="45.42802" lon="4.63309">
        <ele>833.69</ele>
        <time>2019-05-30T14:31:36Z</time>
      </trkpt>
      <trkpt lat="45.42807" lon="4.63339">
        <ele>833.01</ele>
        <time>2019-05-30T14:31:40Z</time>
      </trkpt>
      <trkpt lat="45.42812" lon="4.63367">
        <ele>832.2</ele>
        <time>2019-05-30T14:31:45Z</time>
      </trkpt>
      <trkpt lat="45.42814" lon="4.63397">
        <ele>831.55</ele>
        <time>2019-05-30T14:31:49Z</time>
      </trkpt>
      <trkpt lat="45.42817" lon="4.63426">
        <ele>831.48</ele>
        <time>2019-05-30T14:31:53Z</time>
      </trkpt>
      <trkpt lat="45.42822" lon="4.63454">
        <ele>830.17</ele>
        <time>2019-05-30T14:31:57Z</time>
      </trkpt>
      <trkpt lat="45.42827" lon="4.63479">
        <ele>830.07</ele>
        <time>2019-05-30T14:32:01Z</time>
      </trkpt>
      <trkpt lat="45.42829" lon="4.63507">
        <ele>829.97</ele>
        <time>2019-05-30T14:32:05Z</time>
      </trkpt>
      <trkpt lat="45.42833" lon="4.63539">
        <ele>829.61</ele>
        <time>2019-05-30T14:32:09Z</time>
      </trkpt>
      <trkpt lat="45.42834" lon="4.63566">
        <ele>828.79</ele>
        <time>2019-05-30T14:32:12Z</time>
      </trkpt>
      <trkpt lat="45.42833" lon="4.63593">
        <ele>828.2</ele>
        <time>2019-05-30T14:32:15Z</time>
      </trkpt>
      <trkpt lat="45.42835" lon="4.63619">
        <ele>828.11</ele>
        <time>2019-05-30T14:32:18Z</time>
      </trkpt>
      <trkpt lat="45.42834" lon="4.6365">
        <ele>827.17</ele>
        <time>2019-05-30T14:32:22Z</time>
      </trkpt>
      <trkpt lat="45.42833" lon="4.63684">
        <ele>826.83</ele>
        <time>2019-05-30T14:32:26Z</time>
      </trkpt>
      <trkpt lat="45.42834" lon="4.63717">
        <ele>826.58</ele>
        <time>2019-05-30T14:32:30Z</time>
      </trkpt>
      <trkpt lat="45.42834" lon="4.6375">
        <ele>824.82</ele>
        <time>2019-05-30T14:32:34Z</time>
      </trkpt>
      <trkpt lat="45.42836" lon="4.63789">
        <ele>823.27</ele>
        <time>2019-05-30T14:32:40Z</time>
      </trkpt>
      <trkpt lat="45.42838" lon="4.63817">
        <ele>823.14</ele>
        <time>2019-05-30T14:32:43Z</time>
      </trkpt>
      <trkpt lat="45.42842" lon="4.63845">
        <ele>822.53</ele>
        <time>2019-05-30T14:32:46Z</time>
      </trkpt>
      <trkpt lat="45.42847" lon="4.63873">
        <ele>820.75</ele>
        <time>2019-05-30T14:32:49Z</time>
      </trkpt>
      <trkpt lat="45.42854" lon="4.63899">
        <ele>819.55</ele>
        <time>2019-05-30T14:32:52Z</time>
      </trkpt>
      <trkpt lat="45.42863" lon="4.63925">
        <ele>818.19</ele>
        <time>2019-05-30T14:32:56Z</time>
      </trkpt>
      <trkpt lat="45.42871" lon="4.63952">
        <ele>817.06</ele>
        <time>2019-05-30T14:33:01Z</time>
      </trkpt>
      <trkpt lat="45.42877" lon="4.63982">
        <ele>816.04</ele>
        <time>2019-05-30T14:33:05Z</time>
      </trkpt>
      <trkpt lat="45.42891" lon="4.64003">
        <ele>814.89</ele>
        <time>2019-05-30T14:33:09Z</time>
      </trkpt>
      <trkpt lat="45.42913" lon="4.64009">
        <ele>813.75</ele>
        <time>2019-05-30T14:33:13Z</time>
      </trkpt>
      <trkpt lat="45.42933" lon="4.64017">
        <ele>813.66</ele>
        <time>2019-05-30T14:33:16Z</time>
      </trkpt>
      <trkpt lat="45.42956" lon="4.64022">
        <ele>812.42</ele>
        <time>2019-05-30T14:33:20Z</time>
      </trkpt>
      <trkpt lat="45.42982" lon="4.64021">
        <ele>810.92</ele>
        <time>2019-05-30T14:33:24Z</time>
      </trkpt>
      <trkpt lat="45.43004" lon="4.64024">
        <ele>810.09</ele>
        <time>2019-05-30T14:33:27Z</time>
      </trkpt>
      <trkpt lat="45.43025" lon="4.64029">
        <ele>809.29</ele>
        <time>2019-05-30T14:33:30Z</time>
      </trkpt>
      <trkpt lat="45.43047" lon="4.64038">
        <ele>807.27</ele>
        <time>2019-05-30T14:33:34Z</time>
      </trkpt>
      <trkpt lat="45.43069" lon="4.64042">
        <ele>806.74</ele>
        <time>2019-05-30T14:33:37Z</time>
      </trkpt>
      <trkpt lat="45.43088" lon="4.64044">
        <ele>805.09</ele>
        <time>2019-05-30T14:33:40Z</time>
      </trkpt>
      <trkpt lat="45.43106" lon="4.64052">
        <ele>803.04</ele>
        <time>2019-05-30T14:33:45Z</time>
      </trkpt>
      <trkpt lat="45.4313" lon="4.64056">
        <ele>801.39</ele>
        <time>2019-05-30T14:33:50Z</time>
      </trkpt>
      <trkpt lat="45.43151" lon="4.64063">
        <ele>800.55</ele>
        <time>2019-05-30T14:33:54Z</time>
      </trkpt>
      <trkpt lat="45.43172" lon="4.64062">
        <ele>799.9</ele>
        <time>2019-05-30T14:33:57Z</time>
      </trkpt>
      <trkpt lat="45.43191" lon="4.64063">
        <ele>800.04</ele>
        <time>2019-05-30T14:34:00Z</time>
      </trkpt>
      <trkpt lat="45.4321" lon="4.6407">
        <ele>798.72</ele>
        <time>2019-05-30T14:34:03Z</time>
      </trkpt>
      <trkpt lat="45.43229" lon="4.64063">
        <ele>797.32</ele>
        <time>2019-05-30T14:34:07Z</time>
      </trkpt>
      <trkpt lat="45.43247" lon="4.64047">
        <ele>795.51</ele>
        <time>2019-05-30T14:34:13Z</time>
      </trkpt>
      <trkpt lat="45.43266" lon="4.64032">
        <ele>794.59</ele>
        <time>2019-05-30T14:34:18Z</time>
      </trkpt>
      <trkpt lat="45.4328" lon="4.64006">
        <ele>793.05</ele>
        <time>2019-05-30T14:34:22Z</time>
      </trkpt>
      <trkpt lat="45.4329" lon="4.63982">
        <ele>792.18</ele>
        <time>2019-05-30T14:34:25Z</time>
      </trkpt>
      <trkpt lat="45.43299" lon="4.63952">
        <ele>791.79</ele>
        <time>2019-05-30T14:34:29Z</time>
      </trkpt>
      <trkpt lat="45.43312" lon="4.63927">
        <ele>790.37</ele>
        <time>2019-05-30T14:34:33Z</time>
      </trkpt>
      <trkpt lat="45.43325" lon="4.63901">
        <ele>789.55</ele>
        <time>2019-05-30T14:34:37Z</time>
      </trkpt>
      <trkpt lat="45.43338" lon="4.63881">
        <ele>787.34</ele>
        <time>2019-05-30T14:34:40Z</time>
      </trkpt>
      <trkpt lat="45.43349" lon="4.63852">
        <ele>786.1</ele>
        <time>2019-05-30T14:34:44Z</time>
      </trkpt>
      <trkpt lat="45.43362" lon="4.63825">
        <ele>786.11</ele>
        <time>2019-05-30T14:34:48Z</time>
      </trkpt>
      <trkpt lat="45.43367" lon="4.63797">
        <ele>786.46</ele>
        <time>2019-05-30T14:34:52Z</time>
      </trkpt>
      <trkpt lat="45.43377" lon="4.63774">
        <ele>787.07</ele>
        <time>2019-05-30T14:34:57Z</time>
      </trkpt>
      <trkpt lat="45.43387" lon="4.63748">
        <ele>787.89</ele>
        <time>2019-05-30T14:35:03Z</time>
      </trkpt>
      <trkpt lat="45.43395" lon="4.63721">
        <ele>789.22</ele>
        <time>2019-05-30T14:35:09Z</time>
      </trkpt>
      <trkpt lat="45.43409" lon="4.63699">
        <ele>790.31</ele>
        <time>2019-05-30T14:35:15Z</time>
      </trkpt>
      <trkpt lat="45.43426" lon="4.63683">
        <ele>790.57</ele>
        <time>2019-05-30T14:35:21Z</time>
      </trkpt>
      <trkpt lat="45.43442" lon="4.63667">
        <ele>790.72</ele>
        <time>2019-05-30T14:35:26Z</time>
      </trkpt>
      <trkpt lat="45.43456" lon="4.63647">
        <ele>790.74</ele>
        <time>2019-05-30T14:35:31Z</time>
      </trkpt>
      <trkpt lat="45.43474" lon="4.63629">
        <ele>790.81</ele>
        <time>2019-05-30T14:35:36Z</time>
      </trkpt>
      <trkpt lat="45.43495" lon="4.63617">
        <ele>790.76</ele>
        <time>2019-05-30T14:35:41Z</time>
      </trkpt>
      <trkpt lat="45.43511" lon="4.63603">
        <ele>790.59</ele>
        <time>2019-05-30T14:35:45Z</time>
      </trkpt>
      <trkpt lat="45.4353" lon="4.63595">
        <ele>789.91</ele>
        <time>2019-05-30T14:35:49Z</time>
      </trkpt>
      <trkpt lat="45.43547" lon="4.63585">
        <ele>789.4</ele>
        <time>2019-05-30T14:35:54Z</time>
      </trkpt>
      <trkpt lat="45.43566" lon="4.63577">
        <ele>788.83</ele>
        <time>2019-05-30T14:35:59Z</time>
      </trkpt>
      <trkpt lat="45.43587" lon="4.63573">
        <ele>789.4</ele>
        <time>2019-05-30T14:36:03Z</time>
      </trkpt>
      <trkpt lat="45.43609" lon="4.63571">
        <ele>788.31</ele>
        <time>2019-05-30T14:36:08Z</time>
      </trkpt>
      <trkpt lat="45.43629" lon="4.63574">
        <ele>787.9</ele>
        <time>2019-05-30T14:36:12Z</time>
      </trkpt>
      <trkpt lat="45.43651" lon="4.63577">
        <ele>788.16</ele>
        <time>2019-05-30T14:36:17Z</time>
      </trkpt>
      <trkpt lat="45.4367" lon="4.63583">
        <ele>789.76</ele>
        <time>2019-05-30T14:36:23Z</time>
      </trkpt>
      <trkpt lat="45.43691" lon="4.63591">
        <ele>790.57</ele>
        <time>2019-05-30T14:36:29Z</time>
      </trkpt>
      <trkpt lat="45.43709" lon="4.636">
        <ele>791.57</ele>
        <time>2019-05-30T14:36:35Z</time>
      </trkpt>
      <trkpt lat="45.43729" lon="4.63612">
        <ele>792.87</ele>
        <time>2019-05-30T14:36:41Z</time>
      </trkpt>
      <trkpt lat="45.43746" lon="4.63623">
        <ele>793.42</ele>
        <time>2019-05-30T14:36:46Z</time>
      </trkpt>
      <trkpt lat="45.43765" lon="4.63636">
        <ele>795.14</ele>
        <time>2019-05-30T14:36:53Z</time>
      </trkpt>
      <trkpt lat="45.43783" lon="4.63642">
        <ele>795.52</ele>
        <time>2019-05-30T14:36:58Z</time>
      </trkpt>
      <trkpt lat="45.43804" lon="4.63651">
        <ele>796.23</ele>
        <time>2019-05-30T14:37:03Z</time>
      </trkpt>
      <trkpt lat="45.43825" lon="4.63656">
        <ele>797.6</ele>
        <time>2019-05-30T14:37:09Z</time>
      </trkpt>
      <trkpt lat="45.43844" lon="4.63651">
        <ele>797.96</ele>
        <time>2019-05-30T14:37:15Z</time>
      </trkpt>
      <trkpt lat="45.43864" lon="4.63649">
        <ele>797.79</ele>
        <time>2019-05-30T14:37:20Z</time>
      </trkpt>
      <trkpt lat="45.43882" lon="4.63643">
        <ele>797.72</ele>
        <time>2019-05-30T14:37:25Z</time>
      </trkpt>
      <trkpt lat="45.43898" lon="4.63631">
        <ele>796.19</ele>
        <time>2019-05-30T14:37:51Z</time>
      </trkpt>
      <trkpt lat="45.43915" lon="4.63614">
        <ele>795.55</ele>
        <time>2019-05-30T14:37:58Z</time>
      </trkpt>
      <trkpt lat="45.43933" lon="4.63602">
        <ele>794.1</ele>
        <time>2019-05-30T14:38:02Z</time>
      </trkpt>
      <trkpt lat="45.43955" lon="4.63586">
        <ele>793.04</ele>
        <time>2019-05-30T14:38:06Z</time>
      </trkpt>
      <trkpt lat="45.43975" lon="4.63573">
        <ele>792.21</ele>
        <time>2019-05-30T14:38:09Z</time>
      </trkpt>
      <trkpt lat="45.43993" lon="4.63551">
        <ele>789.12</ele>
        <time>2019-05-30T14:38:12Z</time>
      </trkpt>
      <trkpt lat="45.44007" lon="4.63524">
        <ele>786.95</ele>
        <time>2019-05-30T14:38:15Z</time>
      </trkpt>
      <trkpt lat="45.44022" lon="4.63499">
        <ele>784.88</ele>
        <time>2019-05-30T14:38:18Z</time>
      </trkpt>
      <trkpt lat="45.44028" lon="4.63465">
        <ele>783.66</ele>
        <time>2019-05-30T14:38:21Z</time>
      </trkpt>
      <trkpt lat="45.44032" lon="4.63438">
        <ele>783.13</ele>
        <time>2019-05-30T14:38:25Z</time>
      </trkpt>
      <trkpt lat="45.44049" lon="4.63427">
        <ele>779.77</ele>
        <time>2019-05-30T14:38:29Z</time>
      </trkpt>
      <trkpt lat="45.44072" lon="4.63411">
        <ele>776.21</ele>
        <time>2019-05-30T14:38:32Z</time>
      </trkpt>
      <trkpt lat="45.4409" lon="4.634">
        <ele>774.91</ele>
        <time>2019-05-30T14:38:34Z</time>
      </trkpt>
      <trkpt lat="45.44108" lon="4.63386">
        <ele>773.4</ele>
        <time>2019-05-30T14:38:36Z</time>
      </trkpt>
      <trkpt lat="45.44127" lon="4.63369">
        <ele>769.58</ele>
        <time>2019-05-30T14:38:38Z</time>
      </trkpt>
      <trkpt lat="45.44146" lon="4.63345">
        <ele>763.22</ele>
        <time>2019-05-30T14:38:41Z</time>
      </trkpt>
      <trkpt lat="45.44169" lon="4.63331">
        <ele>758.02</ele>
        <time>2019-05-30T14:38:44Z</time>
      </trkpt>
      <trkpt lat="45.44187" lon="4.63322">
        <ele>755.36</ele>
        <time>2019-05-30T14:38:46Z</time>
      </trkpt>
      <trkpt lat="45.44211" lon="4.63315">
        <ele>751.22</ele>
        <time>2019-05-30T14:38:49Z</time>
      </trkpt>
      <trkpt lat="45.44233" lon="4.63309">
        <ele>749.15</ele>
        <time>2019-05-30T14:38:53Z</time>
      </trkpt>
      <trkpt lat="45.44251" lon="4.63293">
        <ele>749.55</ele>
        <time>2019-05-30T14:38:58Z</time>
      </trkpt>
      <trkpt lat="45.44268" lon="4.63281">
        <ele>751.21</ele>
        <time>2019-05-30T14:39:04Z</time>
      </trkpt>
      <trkpt lat="45.44282" lon="4.63261">
        <ele>753.62</ele>
        <time>2019-05-30T14:39:11Z</time>
      </trkpt>
      <trkpt lat="45.44295" lon="4.63239">
        <ele>755.47</ele>
        <time>2019-05-30T14:39:20Z</time>
      </trkpt>
      <trkpt lat="45.44317" lon="4.63243">
        <ele>755.44</ele>
        <time>2019-05-30T14:39:27Z</time>
      </trkpt>
      <trkpt lat="45.44335" lon="4.63243">
        <ele>755</ele>
        <time>2019-05-30T14:39:32Z</time>
      </trkpt>
      <trkpt lat="45.44354" lon="4.63235">
        <ele>754.22</ele>
        <time>2019-05-30T14:39:37Z</time>
      </trkpt>
      <trkpt lat="45.44375" lon="4.6323">
        <ele>753.19</ele>
        <time>2019-05-30T14:39:40Z</time>
      </trkpt>
      <trkpt lat="45.44397" lon="4.63224">
        <ele>751.35</ele>
        <time>2019-05-30T14:39:43Z</time>
      </trkpt>
      <trkpt lat="45.44417" lon="4.63222">
        <ele>749.52</ele>
        <time>2019-05-30T14:39:45Z</time>
      </trkpt>
      <trkpt lat="45.44437" lon="4.63222">
        <ele>747.6</ele>
        <time>2019-05-30T14:39:47Z</time>
      </trkpt>
      <trkpt lat="45.44459" lon="4.63224">
        <ele>745.71</ele>
        <time>2019-05-30T14:39:49Z</time>
      </trkpt>
      <trkpt lat="45.44482" lon="4.63228">
        <ele>742.71</ele>
        <time>2019-05-30T14:39:52Z</time>
      </trkpt>
      <trkpt lat="45.44501" lon="4.63231">
        <ele>740.4</ele>
        <time>2019-05-30T14:39:55Z</time>
      </trkpt>
      <trkpt lat="45.44518" lon="4.63242">
        <ele>739.67</ele>
        <time>2019-05-30T14:40:01Z</time>
      </trkpt>
      <trkpt lat="45.44513" lon="4.63273">
        <ele>740.2</ele>
        <time>2019-05-30T14:40:08Z</time>
      </trkpt>
      <trkpt lat="45.44511" lon="4.633">
        <ele>739.41</ele>
        <time>2019-05-30T14:40:12Z</time>
      </trkpt>
      <trkpt lat="45.44511" lon="4.6333">
        <ele>738.52</ele>
        <time>2019-05-30T14:40:16Z</time>
      </trkpt>
      <trkpt lat="45.44513" lon="4.6336">
        <ele>737.62</ele>
        <time>2019-05-30T14:40:19Z</time>
      </trkpt>
      <trkpt lat="45.44518" lon="4.63394">
        <ele>736.15</ele>
        <time>2019-05-30T14:40:22Z</time>
      </trkpt>
      <trkpt lat="45.44525" lon="4.63427">
        <ele>734.78</ele>
        <time>2019-05-30T14:40:25Z</time>
      </trkpt>
      <trkpt lat="45.44532" lon="4.63462">
        <ele>733.06</ele>
        <time>2019-05-30T14:40:28Z</time>
      </trkpt>
      <trkpt lat="45.44538" lon="4.63499">
        <ele>731.72</ele>
        <time>2019-05-30T14:40:31Z</time>
      </trkpt>
      <trkpt lat="45.44544" lon="4.63526">
        <ele>730.48</ele>
        <time>2019-05-30T14:40:33Z</time>
      </trkpt>
      <trkpt lat="45.44548" lon="4.63553">
        <ele>729.28</ele>
        <time>2019-05-30T14:40:35Z</time>
      </trkpt>
      <trkpt lat="45.44553" lon="4.63581">
        <ele>728.08</ele>
        <time>2019-05-30T14:40:37Z</time>
      </trkpt>
      <trkpt lat="45.44558" lon="4.63606">
        <ele>726.79</ele>
        <time>2019-05-30T14:40:39Z</time>
      </trkpt>
      <trkpt lat="45.44564" lon="4.63636">
        <ele>725.6</ele>
        <time>2019-05-30T14:40:41Z</time>
      </trkpt>
      <trkpt lat="45.4457" lon="4.63666">
        <ele>724.55</ele>
        <time>2019-05-30T14:40:43Z</time>
      </trkpt>
      <trkpt lat="45.4458" lon="4.63696">
        <ele>723.44</ele>
        <time>2019-05-30T14:40:45Z</time>
      </trkpt>
      <trkpt lat="45.44589" lon="4.63719">
        <ele>723.09</ele>
        <time>2019-05-30T14:40:47Z</time>
      </trkpt>
      <trkpt lat="45.44602" lon="4.63746">
        <ele>727.1</ele>
        <time>2019-05-30T14:40:51Z</time>
      </trkpt>
      <trkpt lat="45.44613" lon="4.63767">
        <ele>728.49</ele>
        <time>2019-05-30T14:40:57Z</time>
      </trkpt>
      <trkpt lat="45.44622" lon="4.63791">
        <ele>730.49</ele>
        <time>2019-05-30T14:41:04Z</time>
      </trkpt>
      <trkpt lat="45.44635" lon="4.63809">
        <ele>732.4</ele>
        <time>2019-05-30T14:41:11Z</time>
      </trkpt>
      <trkpt lat="45.44644" lon="4.63832">
        <ele>735.21</ele>
        <time>2019-05-30T14:41:21Z</time>
      </trkpt>
      <trkpt lat="45.44656" lon="4.63854">
        <ele>737.98</ele>
        <time>2019-05-30T14:41:30Z</time>
      </trkpt>
      <trkpt lat="45.44668" lon="4.63874">
        <ele>740.27</ele>
        <time>2019-05-30T14:41:39Z</time>
      </trkpt>
      <trkpt lat="45.44682" lon="4.63893">
        <ele>742.99</ele>
        <time>2019-05-30T14:41:50Z</time>
      </trkpt>
      <trkpt lat="45.44692" lon="4.63915">
        <ele>745.47</ele>
        <time>2019-05-30T14:41:59Z</time>
      </trkpt>
      <trkpt lat="45.44703" lon="4.63936">
        <ele>748.13</ele>
        <time>2019-05-30T14:42:10Z</time>
      </trkpt>
      <trkpt lat="45.44712" lon="4.63959">
        <ele>750.64</ele>
        <time>2019-05-30T14:42:20Z</time>
      </trkpt>
      <trkpt lat="45.44721" lon="4.63982">
        <ele>753.08</ele>
        <time>2019-05-30T14:42:29Z</time>
      </trkpt>
      <trkpt lat="45.44731" lon="4.64005">
        <ele>755.96</ele>
        <time>2019-05-30T14:42:40Z</time>
      </trkpt>
      <trkpt lat="45.44742" lon="4.64027">
        <ele>758.1</ele>
        <time>2019-05-30T14:42:50Z</time>
      </trkpt>
      <trkpt lat="45.44751" lon="4.64053">
        <ele>759.96</ele>
        <time>2019-05-30T14:43:01Z</time>
      </trkpt>
      <trkpt lat="45.44762" lon="4.64075">
        <ele>761.75</ele>
        <time>2019-05-30T14:43:10Z</time>
      </trkpt>
      <trkpt lat="45.44772" lon="4.64101">
        <ele>763.7</ele>
        <time>2019-05-30T14:43:20Z</time>
      </trkpt>
      <trkpt lat="45.44782" lon="4.64125">
        <ele>765.51</ele>
        <time>2019-05-30T14:43:30Z</time>
      </trkpt>
      <trkpt lat="45.4479" lon="4.64148">
        <ele>767.26</ele>
        <time>2019-05-30T14:43:39Z</time>
      </trkpt>
      <trkpt lat="45.44795" lon="4.64173">
        <ele>768.99</ele>
        <time>2019-05-30T14:43:50Z</time>
      </trkpt>
      <trkpt lat="45.44807" lon="4.64197">
        <ele>770.46</ele>
        <time>2019-05-30T14:43:59Z</time>
      </trkpt>
      <trkpt lat="45.44811" lon="4.64222">
        <ele>771.79</ele>
        <time>2019-05-30T14:44:07Z</time>
      </trkpt>
      <trkpt lat="45.44818" lon="4.64247">
        <ele>772.72</ele>
        <time>2019-05-30T14:44:15Z</time>
      </trkpt>
      <trkpt lat="45.44825" lon="4.64271">
        <ele>773.39</ele>
        <time>2019-05-30T14:44:23Z</time>
      </trkpt>
      <trkpt lat="45.44829" lon="4.64297">
        <ele>774.58</ele>
        <time>2019-05-30T14:44:31Z</time>
      </trkpt>
      <trkpt lat="45.44835" lon="4.64323">
        <ele>775.8</ele>
        <time>2019-05-30T14:44:39Z</time>
      </trkpt>
      <trkpt lat="45.44841" lon="4.64347">
        <ele>776.68</ele>
        <time>2019-05-30T14:44:47Z</time>
      </trkpt>
      <trkpt lat="45.44848" lon="4.64374">
        <ele>777.7</ele>
        <time>2019-05-30T14:44:55Z</time>
      </trkpt>
      <trkpt lat="45.44856" lon="4.64397">
        <ele>779.04</ele>
        <time>2019-05-30T14:45:04Z</time>
      </trkpt>
      <trkpt lat="45.44864" lon="4.64423">
        <ele>780.83</ele>
        <time>2019-05-30T14:45:12Z</time>
      </trkpt>
      <trkpt lat="45.44869" lon="4.64449">
        <ele>782.41</ele>
        <time>2019-05-30T14:45:20Z</time>
      </trkpt>
      <trkpt lat="45.44876" lon="4.64475">
        <ele>783.73</ele>
        <time>2019-05-30T14:45:28Z</time>
      </trkpt>
      <trkpt lat="45.44887" lon="4.64498">
        <ele>785.57</ele>
        <time>2019-05-30T14:45:36Z</time>
      </trkpt>
      <trkpt lat="45.44896" lon="4.64522">
        <ele>787.67</ele>
        <time>2019-05-30T14:45:45Z</time>
      </trkpt>
      <trkpt lat="45.44907" lon="4.64542">
        <ele>789.96</ele>
        <time>2019-05-30T14:45:53Z</time>
      </trkpt>
      <trkpt lat="45.44917" lon="4.64566">
        <ele>791.47</ele>
        <time>2019-05-30T14:46:05Z</time>
      </trkpt>
      <trkpt lat="45.44924" lon="4.6459">
        <ele>790.78</ele>
        <time>2019-05-30T14:56:30Z</time>
      </trkpt>
      <trkpt lat="45.44932" lon="4.64615">
        <ele>788.47</ele>
        <time>2019-05-30T14:56:46Z</time>
      </trkpt>
      <trkpt lat="45.44935" lon="4.64643">
        <ele>786.02</ele>
        <time>2019-05-30T14:57:03Z</time>
      </trkpt>
      <trkpt lat="45.44938" lon="4.64673">
        <ele>785.68</ele>
        <time>2019-05-30T14:57:08Z</time>
      </trkpt>
      <trkpt lat="45.44937" lon="4.64708">
        <ele>783.86</ele>
        <time>2019-05-30T14:57:12Z</time>
      </trkpt>
      <trkpt lat="45.44939" lon="4.64734">
        <ele>778.77</ele>
        <time>2019-05-30T14:57:46Z</time>
      </trkpt>
      <trkpt lat="45.44942" lon="4.6476">
        <ele>777.39</ele>
        <time>2019-05-30T14:57:55Z</time>
      </trkpt>
      <trkpt lat="45.44947" lon="4.64786">
        <ele>775.47</ele>
        <time>2019-05-30T14:58:00Z</time>
      </trkpt>
      <trkpt lat="45.44951" lon="4.64818">
        <ele>773.52</ele>
        <time>2019-05-30T14:58:05Z</time>
      </trkpt>
      <trkpt lat="45.4496" lon="4.64842">
        <ele>768.45</ele>
        <time>2019-05-30T14:58:20Z</time>
      </trkpt>
      <trkpt lat="45.44972" lon="4.64863">
        <ele>767.93</ele>
        <time>2019-05-30T14:58:25Z</time>
      </trkpt>
      <trkpt lat="45.44986" lon="4.64888">
        <ele>766.82</ele>
        <time>2019-05-30T14:58:29Z</time>
      </trkpt>
      <trkpt lat="45.44999" lon="4.64909">
        <ele>764.97</ele>
        <time>2019-05-30T14:58:32Z</time>
      </trkpt>
      <trkpt lat="45.45009" lon="4.64937">
        <ele>762.29</ele>
        <time>2019-05-30T14:58:36Z</time>
      </trkpt>
      <trkpt lat="45.45024" lon="4.64956">
        <ele>761.16</ele>
        <time>2019-05-30T14:58:39Z</time>
      </trkpt>
      <trkpt lat="45.45039" lon="4.64978">
        <ele>759.37</ele>
        <time>2019-05-30T14:58:42Z</time>
      </trkpt>
      <trkpt lat="45.45055" lon="4.64999">
        <ele>753.77</ele>
        <time>2019-05-30T14:58:46Z</time>
      </trkpt>
      <trkpt lat="45.4507" lon="4.65022">
        <ele>750.4</ele>
        <time>2019-05-30T14:58:50Z</time>
      </trkpt>
      <trkpt lat="45.45083" lon="4.65042">
        <ele>743.93</ele>
        <time>2019-05-30T14:58:59Z</time>
      </trkpt>
      <trkpt lat="45.45096" lon="4.65061">
        <ele>743.55</ele>
        <time>2019-05-30T14:59:04Z</time>
      </trkpt>
      <trkpt lat="45.4511" lon="4.65083">
        <ele>741.98</ele>
        <time>2019-05-30T14:59:09Z</time>
      </trkpt>
      <trkpt lat="45.45122" lon="4.65103">
        <ele>739.8</ele>
        <time>2019-05-30T14:59:13Z</time>
      </trkpt>
      <trkpt lat="45.45135" lon="4.65127">
        <ele>739.17</ele>
        <time>2019-05-30T14:59:17Z</time>
      </trkpt>
      <trkpt lat="45.45151" lon="4.65146">
        <ele>738.05</ele>
        <time>2019-05-30T14:59:21Z</time>
      </trkpt>
      <trkpt lat="45.45166" lon="4.65169">
        <ele>735.36</ele>
        <time>2019-05-30T14:59:25Z</time>
      </trkpt>
      <trkpt lat="45.45181" lon="4.6519">
        <ele>734.86</ele>
        <time>2019-05-30T14:59:29Z</time>
      </trkpt>
      <trkpt lat="45.45199" lon="4.65214">
        <ele>733.3</ele>
        <time>2019-05-30T14:59:33Z</time>
      </trkpt>
      <trkpt lat="45.45212" lon="4.65232">
        <ele>731.88</ele>
        <time>2019-05-30T14:59:36Z</time>
      </trkpt>
      <trkpt lat="45.45225" lon="4.6525">
        <ele>731.41</ele>
        <time>2019-05-30T14:59:41Z</time>
      </trkpt>
      <trkpt lat="45.45239" lon="4.65271">
        <ele>729.16</ele>
        <time>2019-05-30T14:59:45Z</time>
      </trkpt>
      <trkpt lat="45.45253" lon="4.65298">
        <ele>728.4</ele>
        <time>2019-05-30T14:59:50Z</time>
      </trkpt>
      <trkpt lat="45.45264" lon="4.65324">
        <ele>725.15</ele>
        <time>2019-05-30T14:59:55Z</time>
      </trkpt>
      <trkpt lat="45.45276" lon="4.65357">
        <ele>722.09</ele>
        <time>2019-05-30T14:59:58Z</time>
      </trkpt>
      <trkpt lat="45.45282" lon="4.65383">
        <ele>720.02</ele>
        <time>2019-05-30T15:00:01Z</time>
      </trkpt>
      <trkpt lat="45.45289" lon="4.65411">
        <ele>719.42</ele>
        <time>2019-05-30T15:00:05Z</time>
      </trkpt>
      <trkpt lat="45.45294" lon="4.65436">
        <ele>720.8</ele>
        <time>2019-05-30T15:00:10Z</time>
      </trkpt>
      <trkpt lat="45.45304" lon="4.6546">
        <ele>721.72</ele>
        <time>2019-05-30T15:00:15Z</time>
      </trkpt>
      <trkpt lat="45.45311" lon="4.65486">
        <ele>723.41</ele>
        <time>2019-05-30T15:00:21Z</time>
      </trkpt>
      <trkpt lat="45.45319" lon="4.6551">
        <ele>724.46</ele>
        <time>2019-05-30T15:00:27Z</time>
      </trkpt>
      <trkpt lat="45.45325" lon="4.65535">
        <ele>722.93</ele>
        <time>2019-05-30T15:00:32Z</time>
      </trkpt>
      <trkpt lat="45.45337" lon="4.65555">
        <ele>718.58</ele>
        <time>2019-05-30T15:00:38Z</time>
      </trkpt>
      <trkpt lat="45.45361" lon="4.65561">
        <ele>716.45</ele>
        <time>2019-05-30T15:00:43Z</time>
      </trkpt>
      <trkpt lat="45.45382" lon="4.65559">
        <ele>711.37</ele>
        <time>2019-05-30T15:00:46Z</time>
      </trkpt>
      <trkpt lat="45.45405" lon="4.65554">
        <ele>702.97</ele>
        <time>2019-05-30T15:00:50Z</time>
      </trkpt>
      <trkpt lat="45.45422" lon="4.65563">
        <ele>694.17</ele>
        <time>2019-05-30T15:00:57Z</time>
      </trkpt>
      <trkpt lat="45.45429" lon="4.65591">
        <ele>695.29</ele>
        <time>2019-05-30T15:01:18Z</time>
      </trkpt>
      <trkpt lat="45.45435" lon="4.65617">
        <ele>694.83</ele>
        <time>2019-05-30T15:01:23Z</time>
      </trkpt>
      <trkpt lat="45.45439" lon="4.65647">
        <ele>694.01</ele>
        <time>2019-05-30T15:01:28Z</time>
      </trkpt>
      <trkpt lat="45.45437" lon="4.65676">
        <ele>693.49</ele>
        <time>2019-05-30T15:01:32Z</time>
      </trkpt>
      <trkpt lat="45.45433" lon="4.65702">
        <ele>692.81</ele>
        <time>2019-05-30T15:01:35Z</time>
      </trkpt>
      <trkpt lat="45.45427" lon="4.65728">
        <ele>692.12</ele>
        <time>2019-05-30T15:01:38Z</time>
      </trkpt>
      <trkpt lat="45.4542" lon="4.65753">
        <ele>691.32</ele>
        <time>2019-05-30T15:01:41Z</time>
      </trkpt>
      <trkpt lat="45.45402" lon="4.65775">
        <ele>690.32</ele>
        <time>2019-05-30T15:01:44Z</time>
      </trkpt>
      <trkpt lat="45.45389" lon="4.65804">
        <ele>688.88</ele>
        <time>2019-05-30T15:01:47Z</time>
      </trkpt>
      <trkpt lat="45.45384" lon="4.65832">
        <ele>688.13</ele>
        <time>2019-05-30T15:01:50Z</time>
      </trkpt>
      <trkpt lat="45.45389" lon="4.65858">
        <ele>687.81</ele>
        <time>2019-05-30T15:01:53Z</time>
      </trkpt>
      <trkpt lat="45.45394" lon="4.65884">
        <ele>687.72</ele>
        <time>2019-05-30T15:01:56Z</time>
      </trkpt>
      <trkpt lat="45.45404" lon="4.65907">
        <ele>687.66</ele>
        <time>2019-05-30T15:01:59Z</time>
      </trkpt>
      <trkpt lat="45.45411" lon="4.65938">
        <ele>686.96</ele>
        <time>2019-05-30T15:02:03Z</time>
      </trkpt>
      <trkpt lat="45.45421" lon="4.65963">
        <ele>686.12</ele>
        <time>2019-05-30T15:02:07Z</time>
      </trkpt>
      <trkpt lat="45.45433" lon="4.65983">
        <ele>685.55</ele>
        <time>2019-05-30T15:02:10Z</time>
      </trkpt>
      <trkpt lat="45.45447" lon="4.66002">
        <ele>685.3</ele>
        <time>2019-05-30T15:02:13Z</time>
      </trkpt>
      <trkpt lat="45.45464" lon="4.66017">
        <ele>684.6</ele>
        <time>2019-05-30T15:02:16Z</time>
      </trkpt>
      <trkpt lat="45.45481" lon="4.66035">
        <ele>684.17</ele>
        <time>2019-05-30T15:02:19Z</time>
      </trkpt>
      <trkpt lat="45.45497" lon="4.6605">
        <ele>683.58</ele>
        <time>2019-05-30T15:02:22Z</time>
      </trkpt>
      <trkpt lat="45.45516" lon="4.66065">
        <ele>683.15</ele>
        <time>2019-05-30T15:02:26Z</time>
      </trkpt>
      <trkpt lat="45.45533" lon="4.66079">
        <ele>681.99</ele>
        <time>2019-05-30T15:02:30Z</time>
      </trkpt>
      <trkpt lat="45.45552" lon="4.6609">
        <ele>681.4</ele>
        <time>2019-05-30T15:02:33Z</time>
      </trkpt>
      <trkpt lat="45.45569" lon="4.661">
        <ele>681.18</ele>
        <time>2019-05-30T15:02:36Z</time>
      </trkpt>
      <trkpt lat="45.45588" lon="4.66113">
        <ele>680.46</ele>
        <time>2019-05-30T15:02:39Z</time>
      </trkpt>
      <trkpt lat="45.45608" lon="4.66124">
        <ele>679.55</ele>
        <time>2019-05-30T15:02:42Z</time>
      </trkpt>
      <trkpt lat="45.45629" lon="4.66136">
        <ele>677.81</ele>
        <time>2019-05-30T15:02:46Z</time>
      </trkpt>
      <trkpt lat="45.45646" lon="4.6615">
        <ele>676.97</ele>
        <time>2019-05-30T15:02:49Z</time>
      </trkpt>
      <trkpt lat="45.45665" lon="4.66168">
        <ele>675.98</ele>
        <time>2019-05-30T15:02:52Z</time>
      </trkpt>
      <trkpt lat="45.45686" lon="4.66185">
        <ele>674.81</ele>
        <time>2019-05-30T15:02:55Z</time>
      </trkpt>
      <trkpt lat="45.45701" lon="4.66205">
        <ele>673.89</ele>
        <time>2019-05-30T15:02:58Z</time>
      </trkpt>
      <trkpt lat="45.45721" lon="4.66223">
        <ele>673.29</ele>
        <time>2019-05-30T15:03:01Z</time>
      </trkpt>
      <trkpt lat="45.45738" lon="4.66246">
        <ele>672.57</ele>
        <time>2019-05-30T15:03:04Z</time>
      </trkpt>
      <trkpt lat="45.45753" lon="4.66266">
        <ele>672.05</ele>
        <time>2019-05-30T15:03:07Z</time>
      </trkpt>
      <trkpt lat="45.45771" lon="4.66293">
        <ele>671.86</ele>
        <time>2019-05-30T15:03:10Z</time>
      </trkpt>
      <trkpt lat="45.45784" lon="4.66315">
        <ele>671.6</ele>
        <time>2019-05-30T15:03:13Z</time>
      </trkpt>
      <trkpt lat="45.458" lon="4.66333">
        <ele>671.5</ele>
        <time>2019-05-30T15:03:16Z</time>
      </trkpt>
      <trkpt lat="45.45812" lon="4.66357">
        <ele>671.18</ele>
        <time>2019-05-30T15:03:20Z</time>
      </trkpt>
      <trkpt lat="45.45828" lon="4.66381">
        <ele>670.7</ele>
        <time>2019-05-30T15:03:24Z</time>
      </trkpt>
      <trkpt lat="45.45847" lon="4.664">
        <ele>669.88</ele>
        <time>2019-05-30T15:03:28Z</time>
      </trkpt>
      <trkpt lat="45.45861" lon="4.66417">
        <ele>669.24</ele>
        <time>2019-05-30T15:03:32Z</time>
      </trkpt>
      <trkpt lat="45.45878" lon="4.66437">
        <ele>668.35</ele>
        <time>2019-05-30T15:03:35Z</time>
      </trkpt>
      <trkpt lat="45.45893" lon="4.66459">
        <ele>667.54</ele>
        <time>2019-05-30T15:03:38Z</time>
      </trkpt>
      <trkpt lat="45.45912" lon="4.66477">
        <ele>665.98</ele>
        <time>2019-05-30T15:03:41Z</time>
      </trkpt>
      <trkpt lat="45.45932" lon="4.66499">
        <ele>664.26</ele>
        <time>2019-05-30T15:03:44Z</time>
      </trkpt>
      <trkpt lat="45.4595" lon="4.66526">
        <ele>662.28</ele>
        <time>2019-05-30T15:03:47Z</time>
      </trkpt>
      <trkpt lat="45.45964" lon="4.66542">
        <ele>661.18</ele>
        <time>2019-05-30T15:03:49Z</time>
      </trkpt>
      <trkpt lat="45.45979" lon="4.66558">
        <ele>659.83</ele>
        <time>2019-05-30T15:03:51Z</time>
      </trkpt>
      <trkpt lat="45.45996" lon="4.66582">
        <ele>657.54</ele>
        <time>2019-05-30T15:03:54Z</time>
      </trkpt>
      <trkpt lat="45.46014" lon="4.66607">
        <ele>656.01</ele>
        <time>2019-05-30T15:03:57Z</time>
      </trkpt>
      <trkpt lat="45.46033" lon="4.66625">
        <ele>654.89</ele>
        <time>2019-05-30T15:03:59Z</time>
      </trkpt>
      <trkpt lat="45.46048" lon="4.66643">
        <ele>653.4</ele>
        <time>2019-05-30T15:04:01Z</time>
      </trkpt>
      <trkpt lat="45.46071" lon="4.66667">
        <ele>651.34</ele>
        <time>2019-05-30T15:04:04Z</time>
      </trkpt>
      <trkpt lat="45.46087" lon="4.66682">
        <ele>650.07</ele>
        <time>2019-05-30T15:04:06Z</time>
      </trkpt>
      <trkpt lat="45.46103" lon="4.66699">
        <ele>647.09</ele>
        <time>2019-05-30T15:04:09Z</time>
      </trkpt>
      <trkpt lat="45.46122" lon="4.66717">
        <ele>645.03</ele>
        <time>2019-05-30T15:04:13Z</time>
      </trkpt>
      <trkpt lat="45.46139" lon="4.66729">
        <ele>643.37</ele>
        <time>2019-05-30T15:04:17Z</time>
      </trkpt>
      <trkpt lat="45.46155" lon="4.66752">
        <ele>641.25</ele>
        <time>2019-05-30T15:04:20Z</time>
      </trkpt>
      <trkpt lat="45.46172" lon="4.6678">
        <ele>638.63</ele>
        <time>2019-05-30T15:04:23Z</time>
      </trkpt>
      <trkpt lat="45.46182" lon="4.66804">
        <ele>636.48</ele>
        <time>2019-05-30T15:04:25Z</time>
      </trkpt>
      <trkpt lat="45.4619" lon="4.6684">
        <ele>633.5</ele>
        <time>2019-05-30T15:04:28Z</time>
      </trkpt>
      <trkpt lat="45.46196" lon="4.66868">
        <ele>632.07</ele>
        <time>2019-05-30T15:04:30Z</time>
      </trkpt>
      <trkpt lat="45.46196" lon="4.66898">
        <ele>630.1</ele>
        <time>2019-05-30T15:04:32Z</time>
      </trkpt>
      <trkpt lat="45.46207" lon="4.66933">
        <ele>628.13</ele>
        <time>2019-05-30T15:04:34Z</time>
      </trkpt>
      <trkpt lat="45.46211" lon="4.66965">
        <ele>626.28</ele>
        <time>2019-05-30T15:04:36Z</time>
      </trkpt>
      <trkpt lat="45.46216" lon="4.67">
        <ele>623.13</ele>
        <time>2019-05-30T15:04:39Z</time>
      </trkpt>
      <trkpt lat="45.46219" lon="4.6703">
        <ele>621.27</ele>
        <time>2019-05-30T15:04:41Z</time>
      </trkpt>
      <trkpt lat="45.46223" lon="4.67058">
        <ele>619.38</ele>
        <time>2019-05-30T15:04:43Z</time>
      </trkpt>
      <trkpt lat="45.46221" lon="4.67089">
        <ele>617.71</ele>
        <time>2019-05-30T15:04:45Z</time>
      </trkpt>
      <trkpt lat="45.46221" lon="4.67119">
        <ele>616.08</ele>
        <time>2019-05-30T15:04:47Z</time>
      </trkpt>
      <trkpt lat="45.46218" lon="4.67151">
        <ele>614.41</ele>
        <time>2019-05-30T15:04:49Z</time>
      </trkpt>
      <trkpt lat="45.4622" lon="4.6718">
        <ele>613.02</ele>
        <time>2019-05-30T15:04:51Z</time>
      </trkpt>
      <trkpt lat="45.46224" lon="4.67211">
        <ele>611.75</ele>
        <time>2019-05-30T15:04:53Z</time>
      </trkpt>
      <trkpt lat="45.46231" lon="4.67241">
        <ele>610.3</ele>
        <time>2019-05-30T15:04:55Z</time>
      </trkpt>
      <trkpt lat="45.46241" lon="4.67267">
        <ele>608.91</ele>
        <time>2019-05-30T15:04:57Z</time>
      </trkpt>
      <trkpt lat="45.46249" lon="4.67292">
        <ele>607.52</ele>
        <time>2019-05-30T15:04:59Z</time>
      </trkpt>
      <trkpt lat="45.46259" lon="4.67316">
        <ele>606.06</ele>
        <time>2019-05-30T15:05:01Z</time>
      </trkpt>
      <trkpt lat="45.46269" lon="4.67342">
        <ele>604.42</ele>
        <time>2019-05-30T15:05:03Z</time>
      </trkpt>
      <trkpt lat="45.46281" lon="4.6737">
        <ele>602.58</ele>
        <time>2019-05-30T15:05:05Z</time>
      </trkpt>
      <trkpt lat="45.46289" lon="4.67396">
        <ele>600.56</ele>
        <time>2019-05-30T15:05:07Z</time>
      </trkpt>
      <trkpt lat="45.463" lon="4.67423">
        <ele>598.57</ele>
        <time>2019-05-30T15:05:09Z</time>
      </trkpt>
      <trkpt lat="45.46313" lon="4.67448">
        <ele>596.51</ele>
        <time>2019-05-30T15:05:11Z</time>
      </trkpt>
      <trkpt lat="45.46327" lon="4.67471">
        <ele>594.38</ele>
        <time>2019-05-30T15:05:13Z</time>
      </trkpt>
      <trkpt lat="45.4634" lon="4.67491">
        <ele>592.51</ele>
        <time>2019-05-30T15:05:15Z</time>
      </trkpt>
      <trkpt lat="45.4635" lon="4.67514">
        <ele>590.98</ele>
        <time>2019-05-30T15:05:17Z</time>
      </trkpt>
      <trkpt lat="45.46358" lon="4.67537">
        <ele>589.52</ele>
        <time>2019-05-30T15:05:19Z</time>
      </trkpt>
      <trkpt lat="45.46373" lon="4.67568">
        <ele>586.94</ele>
        <time>2019-05-30T15:05:22Z</time>
      </trkpt>
      <trkpt lat="45.46385" lon="4.67595">
        <ele>585.52</ele>
        <time>2019-05-30T15:05:25Z</time>
      </trkpt>
      <trkpt lat="45.46394" lon="4.67621">
        <ele>585.18</ele>
        <time>2019-05-30T15:05:28Z</time>
      </trkpt>
      <trkpt lat="45.46402" lon="4.67653">
        <ele>584.76</ele>
        <time>2019-05-30T15:05:32Z</time>
      </trkpt>
      <trkpt lat="45.46412" lon="4.67683">
        <ele>584.53</ele>
        <time>2019-05-30T15:05:36Z</time>
      </trkpt>
      <trkpt lat="45.46422" lon="4.67715">
        <ele>584.23</ele>
        <time>2019-05-30T15:05:40Z</time>
      </trkpt>
      <trkpt lat="45.46431" lon="4.67745">
        <ele>584.38</ele>
        <time>2019-05-30T15:05:44Z</time>
      </trkpt>
      <trkpt lat="45.46438" lon="4.67769">
        <ele>584.16</ele>
        <time>2019-05-30T15:05:47Z</time>
      </trkpt>
      <trkpt lat="45.46444" lon="4.67793">
        <ele>584.1</ele>
        <time>2019-05-30T15:05:50Z</time>
      </trkpt>
      <trkpt lat="45.46451" lon="4.67824">
        <ele>584.21</ele>
        <time>2019-05-30T15:05:54Z</time>
      </trkpt>
      <trkpt lat="45.46451" lon="4.67853">
        <ele>583.87</ele>
        <time>2019-05-30T15:06:01Z</time>
      </trkpt>
      <trkpt lat="45.46448" lon="4.67881">
        <ele>583.02</ele>
        <time>2019-05-30T15:06:05Z</time>
      </trkpt>
      <trkpt lat="45.46441" lon="4.67904">
        <ele>581.48</ele>
        <time>2019-05-30T15:06:11Z</time>
      </trkpt>
      <trkpt lat="45.46438" lon="4.67933">
        <ele>578</ele>
        <time>2019-05-30T15:06:17Z</time>
      </trkpt>
      <trkpt lat="45.46447" lon="4.67959">
        <ele>575.81</ele>
        <time>2019-05-30T15:06:23Z</time>
      </trkpt>
      <trkpt lat="45.46448" lon="4.6799">
        <ele>572.23</ele>
        <time>2019-05-30T15:06:30Z</time>
      </trkpt>
      <trkpt lat="45.46447" lon="4.68017">
        <ele>569.76</ele>
        <time>2019-05-30T15:06:33Z</time>
      </trkpt>
      <trkpt lat="45.4645" lon="4.68046">
        <ele>567.94</ele>
        <time>2019-05-30T15:06:36Z</time>
      </trkpt>
      <trkpt lat="45.46457" lon="4.6808">
        <ele>564.82</ele>
        <time>2019-05-30T15:06:39Z</time>
      </trkpt>
      <trkpt lat="45.46462" lon="4.68107">
        <ele>561.96</ele>
        <time>2019-05-30T15:06:42Z</time>
      </trkpt>
      <trkpt lat="45.46464" lon="4.68134">
        <ele>561.6</ele>
        <time>2019-05-30T15:06:46Z</time>
      </trkpt>
      <trkpt lat="45.46463" lon="4.68161">
        <ele>558.6</ele>
        <time>2019-05-30T15:06:49Z</time>
      </trkpt>
      <trkpt lat="45.46458" lon="4.68194">
        <ele>554.82</ele>
        <time>2019-05-30T15:06:52Z</time>
      </trkpt>
      <trkpt lat="45.46455" lon="4.68227">
        <ele>552.06</ele>
        <time>2019-05-30T15:06:55Z</time>
      </trkpt>
      <trkpt lat="45.46452" lon="4.68263">
        <ele>549.56</ele>
        <time>2019-05-30T15:06:59Z</time>
      </trkpt>
      <trkpt lat="45.46451" lon="4.68292">
        <ele>548.51</ele>
        <time>2019-05-30T15:07:02Z</time>
      </trkpt>
      <trkpt lat="45.46449" lon="4.68318">
        <ele>544.8</ele>
        <time>2019-05-30T15:07:11Z</time>
      </trkpt>
      <trkpt lat="45.4645" lon="4.68344">
        <ele>544.12</ele>
        <time>2019-05-30T15:07:16Z</time>
      </trkpt>
      <trkpt lat="45.46442" lon="4.68371">
        <ele>542.91</ele>
        <time>2019-05-30T15:07:20Z</time>
      </trkpt>
      <trkpt lat="45.46435" lon="4.684">
        <ele>541.82</ele>
        <time>2019-05-30T15:07:23Z</time>
      </trkpt>
      <trkpt lat="45.4643" lon="4.68435">
        <ele>539.27</ele>
        <time>2019-05-30T15:07:26Z</time>
      </trkpt>
      <trkpt lat="45.46429" lon="4.68474">
        <ele>537.67</ele>
        <time>2019-05-30T15:07:29Z</time>
      </trkpt>
      <trkpt lat="45.46426" lon="4.68501">
        <ele>537.26</ele>
        <time>2019-05-30T15:07:31Z</time>
      </trkpt>
      <trkpt lat="45.46422" lon="4.6853">
        <ele>537.13</ele>
        <time>2019-05-30T15:07:34Z</time>
      </trkpt>
      <trkpt lat="45.46408" lon="4.68555">
        <ele>532.68</ele>
        <time>2019-05-30T15:07:39Z</time>
      </trkpt>
      <trkpt lat="45.46408" lon="4.68588">
        <ele>530.23</ele>
        <time>2019-05-30T15:07:42Z</time>
      </trkpt>
      <trkpt lat="45.46404" lon="4.68615">
        <ele>525.89</ele>
        <time>2019-05-30T15:07:46Z</time>
      </trkpt>
      <trkpt lat="45.464" lon="4.68641">
        <ele>521.46</ele>
        <time>2019-05-30T15:08:12Z</time>
      </trkpt>
      <trkpt lat="45.46394" lon="4.68671">
        <ele>518.43</ele>
        <time>2019-05-30T15:08:18Z</time>
      </trkpt>
      <trkpt lat="45.46384" lon="4.68696">
        <ele>516.09</ele>
        <time>2019-05-30T15:08:22Z</time>
      </trkpt>
      <trkpt lat="45.46372" lon="4.68717">
        <ele>513.22</ele>
        <time>2019-05-30T15:08:26Z</time>
      </trkpt>
      <trkpt lat="45.4636" lon="4.68744">
        <ele>510.47</ele>
        <time>2019-05-30T15:08:31Z</time>
      </trkpt>
      <trkpt lat="45.4635" lon="4.68765">
        <ele>507.81</ele>
        <time>2019-05-30T15:08:35Z</time>
      </trkpt>
      <trkpt lat="45.46337" lon="4.68785">
        <ele>505.29</ele>
        <time>2019-05-30T15:08:39Z</time>
      </trkpt>
      <trkpt lat="45.46322" lon="4.68808">
        <ele>502.44</ele>
        <time>2019-05-30T15:08:45Z</time>
      </trkpt>
      <trkpt lat="45.46314" lon="4.68834">
        <ele>497.79</ele>
        <time>2019-05-30T15:08:52Z</time>
      </trkpt>
      <trkpt lat="45.46314" lon="4.68864">
        <ele>496.01</ele>
        <time>2019-05-30T15:08:58Z</time>
      </trkpt>
      <trkpt lat="45.46312" lon="4.68891">
        <ele>495.32</ele>
        <time>2019-05-30T15:09:03Z</time>
      </trkpt>
      <trkpt lat="45.46311" lon="4.68921">
        <ele>493.15</ele>
        <time>2019-05-30T15:09:09Z</time>
      </trkpt>
      <trkpt lat="45.46306" lon="4.68946">
        <ele>492.08</ele>
        <time>2019-05-30T15:09:14Z</time>
      </trkpt>
      <trkpt lat="45.46305" lon="4.68975">
        <ele>489.19</ele>
        <time>2019-05-30T15:09:20Z</time>
      </trkpt>
      <trkpt lat="45.463" lon="4.69001">
        <ele>482.5</ele>
        <time>2019-05-30T15:09:27Z</time>
      </trkpt>
      <trkpt lat="45.46292" lon="4.69026">
        <ele>480.75</ele>
        <time>2019-05-30T15:09:34Z</time>
      </trkpt>
      <trkpt lat="45.46285" lon="4.69051">
        <ele>479.51</ele>
        <time>2019-05-30T15:09:39Z</time>
      </trkpt>
      <trkpt lat="45.46276" lon="4.69079">
        <ele>477.33</ele>
        <time>2019-05-30T15:09:43Z</time>
      </trkpt>
      <trkpt lat="45.46267" lon="4.69102">
        <ele>474.32</ele>
        <time>2019-05-30T15:09:47Z</time>
      </trkpt>
      <trkpt lat="45.46259" lon="4.69127">
        <ele>472.38</ele>
        <time>2019-05-30T15:09:53Z</time>
      </trkpt>
      <trkpt lat="45.46248" lon="4.6915">
        <ele>469.34</ele>
        <time>2019-05-30T15:10:01Z</time>
      </trkpt>
      <trkpt lat="45.46231" lon="4.69163">
        <ele>466.48</ele>
        <time>2019-05-30T15:10:08Z</time>
      </trkpt>
      <trkpt lat="45.46212" lon="4.6918">
        <ele>465.8</ele>
        <time>2019-05-30T15:10:13Z</time>
      </trkpt>
      <trkpt lat="45.46199" lon="4.692">
        <ele>460.88</ele>
        <time>2019-05-30T15:10:19Z</time>
      </trkpt>
      <trkpt lat="45.46192" lon="4.69224">
        <ele>460.09</ele>
        <time>2019-05-30T15:10:25Z</time>
      </trkpt>
      <trkpt lat="45.46187" lon="4.69253">
        <ele>456.26</ele>
        <time>2019-05-30T15:10:31Z</time>
      </trkpt>
      <trkpt lat="45.46188" lon="4.6928">
        <ele>453.68</ele>
        <time>2019-05-30T15:10:37Z</time>
      </trkpt>
      <trkpt lat="45.46181" lon="4.69309">
        <ele>450.99</ele>
        <time>2019-05-30T15:10:45Z</time>
      </trkpt>
      <trkpt lat="45.46176" lon="4.69335">
        <ele>449.09</ele>
        <time>2019-05-30T15:10:52Z</time>
      </trkpt>
      <trkpt lat="45.46173" lon="4.69362">
        <ele>445.93</ele>
        <time>2019-05-30T15:11:00Z</time>
      </trkpt>
      <trkpt lat="45.46176" lon="4.6939">
        <ele>443.48</ele>
        <time>2019-05-30T15:11:08Z</time>
      </trkpt>
      <trkpt lat="45.46175" lon="4.69419">
        <ele>440.43</ele>
        <time>2019-05-30T15:11:16Z</time>
      </trkpt>
      <trkpt lat="45.46173" lon="4.69446">
        <ele>436.49</ele>
        <time>2019-05-30T15:12:25Z</time>
      </trkpt>
      <trkpt lat="45.46174" lon="4.69474">
        <ele>435.93</ele>
        <time>2019-05-30T15:12:30Z</time>
      </trkpt>
      <trkpt lat="45.46174" lon="4.69503">
        <ele>435.18</ele>
        <time>2019-05-30T15:12:38Z</time>
      </trkpt>
      <trkpt lat="45.46174" lon="4.69533">
        <ele>434.88</ele>
        <time>2019-05-30T15:12:43Z</time>
      </trkpt>
      <trkpt lat="45.46178" lon="4.69559">
        <ele>432.32</ele>
        <time>2019-05-30T15:12:47Z</time>
      </trkpt>
      <trkpt lat="45.46178" lon="4.69591">
        <ele>430.94</ele>
        <time>2019-05-30T15:12:51Z</time>
      </trkpt>
      <trkpt lat="45.46177" lon="4.69618">
        <ele>428.66</ele>
        <time>2019-05-30T15:12:54Z</time>
      </trkpt>
      <trkpt lat="45.46174" lon="4.69644">
        <ele>427.26</ele>
        <time>2019-05-30T15:12:57Z</time>
      </trkpt>
      <trkpt lat="45.4617" lon="4.69674">
        <ele>425.05</ele>
        <time>2019-05-30T15:13:01Z</time>
      </trkpt>
      <trkpt lat="45.46174" lon="4.69708">
        <ele>421.06</ele>
        <time>2019-05-30T15:13:05Z</time>
      </trkpt>
      <trkpt lat="45.46183" lon="4.69734">
        <ele>419.45</ele>
        <time>2019-05-30T15:13:08Z</time>
      </trkpt>
      <trkpt lat="45.4619" lon="4.69764">
        <ele>419.2</ele>
        <time>2019-05-30T15:13:11Z</time>
      </trkpt>
      <trkpt lat="45.46198" lon="4.69793">
        <ele>417.29</ele>
        <time>2019-05-30T15:13:14Z</time>
      </trkpt>
      <trkpt lat="45.46208" lon="4.6982">
        <ele>415.92</ele>
        <time>2019-05-30T15:13:17Z</time>
      </trkpt>
      <trkpt lat="45.46223" lon="4.69837">
        <ele>415.61</ele>
        <time>2019-05-30T15:13:21Z</time>
      </trkpt>
      <trkpt lat="45.46228" lon="4.69862">
        <ele>414.99</ele>
        <time>2019-05-30T15:13:43Z</time>
      </trkpt>
      <trkpt lat="45.46235" lon="4.69892">
        <ele>413.46</ele>
        <time>2019-05-30T15:13:47Z</time>
      </trkpt>
      <trkpt lat="45.46245" lon="4.69919">
        <ele>411.25</ele>
        <time>2019-05-30T15:13:50Z</time>
      </trkpt>
      <trkpt lat="45.46259" lon="4.69951">
        <ele>408.79</ele>
        <time>2019-05-30T15:13:53Z</time>
      </trkpt>
      <trkpt lat="45.4627" lon="4.69978">
        <ele>406.86</ele>
        <time>2019-05-30T15:13:56Z</time>
      </trkpt>
      <trkpt lat="45.46283" lon="4.70008">
        <ele>404.55</ele>
        <time>2019-05-30T15:13:59Z</time>
      </trkpt>
      <trkpt lat="45.46282" lon="4.70041">
        <ele>400.56</ele>
        <time>2019-05-30T15:14:02Z</time>
      </trkpt>
      <trkpt lat="45.46264" lon="4.70061">
        <ele>397.81</ele>
        <time>2019-05-30T15:14:05Z</time>
      </trkpt>
      <trkpt lat="45.46244" lon="4.70071">
        <ele>394.63</ele>
        <time>2019-05-30T15:14:09Z</time>
      </trkpt>
      <trkpt lat="45.46222" lon="4.70057">
        <ele>391.35</ele>
        <time>2019-05-30T15:14:13Z</time>
      </trkpt>
      <trkpt lat="45.46205" lon="4.70072">
        <ele>389.82</ele>
        <time>2019-05-30T15:14:19Z</time>
      </trkpt>
      <trkpt lat="45.46208" lon="4.70103">
        <ele>389</ele>
        <time>2019-05-30T15:14:23Z</time>
      </trkpt>
      <trkpt lat="45.46203" lon="4.70135">
        <ele>386.96</ele>
        <time>2019-05-30T15:14:26Z</time>
      </trkpt>
      <trkpt lat="45.46195" lon="4.70159">
        <ele>384.29</ele>
        <time>2019-05-30T15:14:28Z</time>
      </trkpt>
      <trkpt lat="45.46194" lon="4.70184">
        <ele>382.13</ele>
        <time>2019-05-30T15:14:30Z</time>
      </trkpt>
      <trkpt lat="45.46183" lon="4.70212">
        <ele>376.97</ele>
        <time>2019-05-30T15:14:33Z</time>
      </trkpt>
      <trkpt lat="45.46168" lon="4.70232">
        <ele>374.13</ele>
        <time>2019-05-30T15:14:36Z</time>
      </trkpt>
      <trkpt lat="45.46173" lon="4.70258">
        <ele>372.95</ele>
        <time>2019-05-30T15:15:22Z</time>
      </trkpt>
      <trkpt lat="45.46181" lon="4.70283">
        <ele>372.44</ele>
        <time>2019-05-30T15:15:27Z</time>
      </trkpt>
      <trkpt lat="45.46188" lon="4.70307">
        <ele>371.35</ele>
        <time>2019-05-30T15:15:31Z</time>
      </trkpt>
      <trkpt lat="45.46195" lon="4.70333">
        <ele>371.16</ele>
        <time>2019-05-30T15:15:37Z</time>
      </trkpt>
      <trkpt lat="45.46201" lon="4.70359">
        <ele>369.89</ele>
        <time>2019-05-30T15:15:42Z</time>
      </trkpt>
      <trkpt lat="45.46206" lon="4.70387">
        <ele>369.52</ele>
        <time>2019-05-30T15:15:46Z</time>
      </trkpt>
      <trkpt lat="45.46214" lon="4.70414">
        <ele>369.18</ele>
        <time>2019-05-30T15:15:50Z</time>
      </trkpt>
      <trkpt lat="45.46224" lon="4.70439">
        <ele>369.07</ele>
        <time>2019-05-30T15:15:54Z</time>
      </trkpt>
      <trkpt lat="45.46234" lon="4.70462">
        <ele>370.14</ele>
        <time>2019-05-30T15:15:58Z</time>
      </trkpt>
      <trkpt lat="45.46247" lon="4.70489">
        <ele>369.62</ele>
        <time>2019-05-30T15:16:03Z</time>
      </trkpt>
      <trkpt lat="45.46254" lon="4.7052">
        <ele>369.48</ele>
        <time>2019-05-30T15:16:07Z</time>
      </trkpt>
      <trkpt lat="45.46259" lon="4.7055">
        <ele>368.96</ele>
        <time>2019-05-30T15:16:11Z</time>
      </trkpt>
      <trkpt lat="45.46263" lon="4.70579">
        <ele>368.83</ele>
        <time>2019-05-30T15:16:15Z</time>
      </trkpt>
      <trkpt lat="45.46265" lon="4.70611">
        <ele>368.67</ele>
        <time>2019-05-30T15:16:19Z</time>
      </trkpt>
      <trkpt lat="45.4627" lon="4.7064">
        <ele>368.39</ele>
        <time>2019-05-30T15:16:23Z</time>
      </trkpt>
      <trkpt lat="45.46277" lon="4.70667">
        <ele>368.01</ele>
        <time>2019-05-30T15:16:27Z</time>
      </trkpt>
      <trkpt lat="45.46283" lon="4.70695">
        <ele>367.62</ele>
        <time>2019-05-30T15:16:31Z</time>
      </trkpt>
      <trkpt lat="45.46286" lon="4.70724">
        <ele>367.38</ele>
        <time>2019-05-30T15:16:35Z</time>
      </trkpt>
      <trkpt lat="45.46287" lon="4.70752">
        <ele>366.37</ele>
        <time>2019-05-30T15:16:39Z</time>
      </trkpt>
      <trkpt lat="45.46288" lon="4.7078">
        <ele>364.94</ele>
        <time>2019-05-30T15:16:43Z</time>
      </trkpt>
      <trkpt lat="45.46289" lon="4.70808">
        <ele>363.32</ele>
        <time>2019-05-30T15:16:46Z</time>
      </trkpt>
      <trkpt lat="45.46291" lon="4.70843">
        <ele>361.23</ele>
        <time>2019-05-30T15:16:49Z</time>
      </trkpt>
      <trkpt lat="45.46296" lon="4.70881">
        <ele>359.5</ele>
        <time>2019-05-30T15:16:52Z</time>
      </trkpt>
      <trkpt lat="45.46301" lon="4.70916">
        <ele>358.89</ele>
        <time>2019-05-30T15:16:55Z</time>
      </trkpt>
      <trkpt lat="45.46305" lon="4.70949">
        <ele>358.44</ele>
        <time>2019-05-30T15:16:58Z</time>
      </trkpt>
      <trkpt lat="45.46309" lon="4.70979">
        <ele>358.44</ele>
        <time>2019-05-30T15:17:01Z</time>
      </trkpt>
      <trkpt lat="45.46311" lon="4.71005">
        <ele>358.46</ele>
        <time>2019-05-30T15:17:04Z</time>
      </trkpt>
      <trkpt lat="45.46312" lon="4.71039">
        <ele>358.12</ele>
        <time>2019-05-30T15:17:08Z</time>
      </trkpt>
      <trkpt lat="45.4631" lon="4.7107">
        <ele>357.94</ele>
        <time>2019-05-30T15:17:12Z</time>
      </trkpt>
      <trkpt lat="45.46306" lon="4.71098">
        <ele>358.17</ele>
        <time>2019-05-30T15:17:16Z</time>
      </trkpt>
      <trkpt lat="45.46301" lon="4.71123">
        <ele>358.4</ele>
        <time>2019-05-30T15:17:20Z</time>
      </trkpt>
      <trkpt lat="45.46297" lon="4.71157">
        <ele>357.21</ele>
        <time>2019-05-30T15:17:24Z</time>
      </trkpt>
      <trkpt lat="45.46296" lon="4.71186">
        <ele>355.91</ele>
        <time>2019-05-30T15:17:27Z</time>
      </trkpt>
      <trkpt lat="45.46294" lon="4.71214">
        <ele>355.19</ele>
        <time>2019-05-30T15:17:30Z</time>
      </trkpt>
      <trkpt lat="45.46294" lon="4.71243">
        <ele>354.57</ele>
        <time>2019-05-30T15:17:33Z</time>
      </trkpt>
      <trkpt lat="45.46293" lon="4.71271">
        <ele>353.86</ele>
        <time>2019-05-30T15:17:36Z</time>
      </trkpt>
      <trkpt lat="45.46292" lon="4.71299">
        <ele>353.45</ele>
        <time>2019-05-30T15:17:39Z</time>
      </trkpt>
      <trkpt lat="45.46291" lon="4.71328">
        <ele>352.97</ele>
        <time>2019-05-30T15:17:42Z</time>
      </trkpt>
      <trkpt lat="45.46292" lon="4.71355">
        <ele>352.45</ele>
        <time>2019-05-30T15:17:45Z</time>
      </trkpt>
      <trkpt lat="45.46292" lon="4.71381">
        <ele>352.52</ele>
        <time>2019-05-30T15:17:48Z</time>
      </trkpt>
      <trkpt lat="45.46293" lon="4.71412">
        <ele>352.63</ele>
        <time>2019-05-30T15:17:52Z</time>
      </trkpt>
      <trkpt lat="45.46295" lon="4.71445">
        <ele>351.64</ele>
        <time>2019-05-30T15:17:56Z</time>
      </trkpt>
      <trkpt lat="45.463" lon="4.71471">
        <ele>350.63</ele>
        <time>2019-05-30T15:17:59Z</time>
      </trkpt>
      <trkpt lat="45.46305" lon="4.715">
        <ele>349.57</ele>
        <time>2019-05-30T15:18:02Z</time>
      </trkpt>
      <trkpt lat="45.46303" lon="4.71533">
        <ele>348.57</ele>
        <time>2019-05-30T15:18:05Z</time>
      </trkpt>
      <trkpt lat="45.46301" lon="4.71566">
        <ele>347.38</ele>
        <time>2019-05-30T15:18:08Z</time>
      </trkpt>
      <trkpt lat="45.46298" lon="4.71601">
        <ele>346.31</ele>
        <time>2019-05-30T15:18:11Z</time>
      </trkpt>
      <trkpt lat="45.46298" lon="4.71636">
        <ele>345.07</ele>
        <time>2019-05-30T15:18:14Z</time>
      </trkpt>
      <trkpt lat="45.46303" lon="4.71669">
        <ele>343.9</ele>
        <time>2019-05-30T15:18:17Z</time>
      </trkpt>
      <trkpt lat="45.46308" lon="4.71703">
        <ele>342.82</ele>
        <time>2019-05-30T15:18:20Z</time>
      </trkpt>
      <trkpt lat="45.46313" lon="4.71736">
        <ele>341.69</ele>
        <time>2019-05-30T15:18:23Z</time>
      </trkpt>
      <trkpt lat="45.46318" lon="4.71768">
        <ele>341.28</ele>
        <time>2019-05-30T15:18:26Z</time>
      </trkpt>
      <trkpt lat="45.46325" lon="4.71798">
        <ele>340.78</ele>
        <time>2019-05-30T15:18:29Z</time>
      </trkpt>
      <trkpt lat="45.4633" lon="4.71825">
        <ele>340.44</ele>
        <time>2019-05-30T15:18:32Z</time>
      </trkpt>
      <trkpt lat="45.46332" lon="4.71852">
        <ele>340.12</ele>
        <time>2019-05-30T15:18:35Z</time>
      </trkpt>
      <trkpt lat="45.4633" lon="4.71879">
        <ele>340.15</ele>
        <time>2019-05-30T15:18:41Z</time>
      </trkpt>
      <trkpt lat="45.4633" lon="4.71905">
        <ele>339.83</ele>
        <time>2019-05-30T15:18:53Z</time>
      </trkpt>
      <trkpt lat="45.46336" lon="4.71929">
        <ele>339.39</ele>
        <time>2019-05-30T15:18:57Z</time>
      </trkpt>
      <trkpt lat="45.4634" lon="4.71959">
        <ele>338.98</ele>
        <time>2019-05-30T15:19:01Z</time>
      </trkpt>
      <trkpt lat="45.46343" lon="4.71988">
        <ele>338.55</ele>
        <time>2019-05-30T15:19:05Z</time>
      </trkpt>
      <trkpt lat="45.46346" lon="4.72018">
        <ele>338.96</ele>
        <time>2019-05-30T15:19:09Z</time>
      </trkpt>
      <trkpt lat="45.46349" lon="4.72047">
        <ele>339.21</ele>
        <time>2019-05-30T15:19:13Z</time>
      </trkpt>
      <trkpt lat="45.4635" lon="4.72074">
        <ele>339.58</ele>
        <time>2019-05-30T15:19:17Z</time>
      </trkpt>
      <trkpt lat="45.46353" lon="4.72107">
        <ele>339.38</ele>
        <time>2019-05-30T15:19:21Z</time>
      </trkpt>
      <trkpt lat="45.46353" lon="4.72138">
        <ele>338.71</ele>
        <time>2019-05-30T15:19:25Z</time>
      </trkpt>
      <trkpt lat="45.4635" lon="4.72165">
        <ele>337.7</ele>
        <time>2019-05-30T15:19:28Z</time>
      </trkpt>
      <trkpt lat="45.46346" lon="4.72196">
        <ele>335.67</ele>
        <time>2019-05-30T15:19:31Z</time>
      </trkpt>
      <trkpt lat="45.46346" lon="4.72231">
        <ele>333.91</ele>
        <time>2019-05-30T15:19:34Z</time>
      </trkpt>
      <trkpt lat="45.46333" lon="4.72265">
        <ele>331.17</ele>
        <time>2019-05-30T15:19:37Z</time>
      </trkpt>
      <trkpt lat="45.46322" lon="4.72292">
        <ele>328.42</ele>
        <time>2019-05-30T15:19:39Z</time>
      </trkpt>
      <trkpt lat="45.46319" lon="4.72325">
        <ele>325.12</ele>
        <time>2019-05-30T15:19:41Z</time>
      </trkpt>
      <trkpt lat="45.46323" lon="4.72358">
        <ele>321.83</ele>
        <time>2019-05-30T15:19:43Z</time>
      </trkpt>
      <trkpt lat="45.46327" lon="4.72396">
        <ele>318.66</ele>
        <time>2019-05-30T15:19:45Z</time>
      </trkpt>
      <trkpt lat="45.46332" lon="4.7243">
        <ele>316.49</ele>
        <time>2019-05-30T15:19:47Z</time>
      </trkpt>
      <trkpt lat="45.46338" lon="4.72462">
        <ele>314.64</ele>
        <time>2019-05-30T15:19:49Z</time>
      </trkpt>
      <trkpt lat="45.46343" lon="4.7249">
        <ele>312.83</ele>
        <time>2019-05-30T15:19:51Z</time>
      </trkpt>
      <trkpt lat="45.4634" lon="4.72517">
        <ele>311.28</ele>
        <time>2019-05-30T15:19:54Z</time>
      </trkpt>
      <trkpt lat="45.46329" lon="4.72546">
        <ele>310.55</ele>
        <time>2019-05-30T15:19:58Z</time>
      </trkpt>
      <trkpt lat="45.46322" lon="4.72574">
        <ele>309.75</ele>
        <time>2019-05-30T15:20:03Z</time>
      </trkpt>
      <trkpt lat="45.46322" lon="4.726">
        <ele>308.74</ele>
        <time>2019-05-30T15:20:06Z</time>
      </trkpt>
      <trkpt lat="45.46318" lon="4.72629">
        <ele>308.47</ele>
        <time>2019-05-30T15:20:09Z</time>
      </trkpt>
      <trkpt lat="45.46316" lon="4.72657">
        <ele>307.1</ele>
        <time>2019-05-30T15:20:12Z</time>
      </trkpt>
      <trkpt lat="45.46312" lon="4.72688">
        <ele>305.39</ele>
        <time>2019-05-30T15:20:15Z</time>
      </trkpt>
      <trkpt lat="45.46302" lon="4.72718">
        <ele>303.83</ele>
        <time>2019-05-30T15:20:18Z</time>
      </trkpt>
      <trkpt lat="45.46292" lon="4.72747">
        <ele>302.38</ele>
        <time>2019-05-30T15:20:21Z</time>
      </trkpt>
      <trkpt lat="45.46281" lon="4.72779">
        <ele>301.27</ele>
        <time>2019-05-30T15:20:24Z</time>
      </trkpt>
      <trkpt lat="45.46273" lon="4.72815">
        <ele>300</ele>
        <time>2019-05-30T15:20:27Z</time>
      </trkpt>
      <trkpt lat="45.46262" lon="4.72847">
        <ele>298.67</ele>
        <time>2019-05-30T15:20:30Z</time>
      </trkpt>
      <trkpt lat="45.46246" lon="4.7288">
        <ele>297.44</ele>
        <time>2019-05-30T15:20:33Z</time>
      </trkpt>
      <trkpt lat="45.46249" lon="4.72912">
        <ele>296.49</ele>
        <time>2019-05-30T15:20:36Z</time>
      </trkpt>
      <trkpt lat="45.46262" lon="4.72939">
        <ele>296.33</ele>
        <time>2019-05-30T15:20:39Z</time>
      </trkpt>
      <trkpt lat="45.46272" lon="4.72963">
        <ele>296.51</ele>
        <time>2019-05-30T15:20:42Z</time>
      </trkpt>
      <trkpt lat="45.46283" lon="4.7299">
        <ele>297.19</ele>
        <time>2019-05-30T15:20:46Z</time>
      </trkpt>
      <trkpt lat="45.46295" lon="4.73015">
        <ele>296.87</ele>
        <time>2019-05-30T15:20:50Z</time>
      </trkpt>
      <trkpt lat="45.46307" lon="4.73039">
        <ele>296.62</ele>
        <time>2019-05-30T15:20:54Z</time>
      </trkpt>
      <trkpt lat="45.46315" lon="4.73062">
        <ele>296.19</ele>
        <time>2019-05-30T15:20:57Z</time>
      </trkpt>
      <trkpt lat="45.46329" lon="4.7309">
        <ele>295.22</ele>
        <time>2019-05-30T15:21:01Z</time>
      </trkpt>
      <trkpt lat="45.4634" lon="4.73113">
        <ele>294.62</ele>
        <time>2019-05-30T15:21:04Z</time>
      </trkpt>
      <trkpt lat="45.46354" lon="4.7314">
        <ele>294.05</ele>
        <time>2019-05-30T15:21:08Z</time>
      </trkpt>
      <trkpt lat="45.46371" lon="4.73162">
        <ele>293.72</ele>
        <time>2019-05-30T15:21:12Z</time>
      </trkpt>
      <trkpt lat="45.46388" lon="4.73185">
        <ele>293.26</ele>
        <time>2019-05-30T15:21:16Z</time>
      </trkpt>
      <trkpt lat="45.46397" lon="4.73207">
        <ele>293.11</ele>
        <time>2019-05-30T15:21:19Z</time>
      </trkpt>
      <trkpt lat="45.4641" lon="4.73235">
        <ele>292.78</ele>
        <time>2019-05-30T15:21:23Z</time>
      </trkpt>
      <trkpt lat="45.46415" lon="4.73265">
        <ele>292.44</ele>
        <time>2019-05-30T15:21:27Z</time>
      </trkpt>
      <trkpt lat="45.46413" lon="4.73299">
        <ele>292.09</ele>
        <time>2019-05-30T15:21:31Z</time>
      </trkpt>
      <trkpt lat="45.4641" lon="4.73331">
        <ele>290.66</ele>
        <time>2019-05-30T15:21:34Z</time>
      </trkpt>
      <trkpt lat="45.46406" lon="4.73365">
        <ele>289.35</ele>
        <time>2019-05-30T15:21:37Z</time>
      </trkpt>
      <trkpt lat="45.46405" lon="4.73398">
        <ele>287.98</ele>
        <time>2019-05-30T15:21:40Z</time>
      </trkpt>
      <trkpt lat="45.46405" lon="4.73433">
        <ele>287.46</ele>
        <time>2019-05-30T15:21:43Z</time>
      </trkpt>
      <trkpt lat="45.46407" lon="4.73468">
        <ele>286.9</ele>
        <time>2019-05-30T15:21:46Z</time>
      </trkpt>
      <trkpt lat="45.46407" lon="4.73498">
        <ele>286.69</ele>
        <time>2019-05-30T15:21:49Z</time>
      </trkpt>
      <trkpt lat="45.46406" lon="4.73528">
        <ele>286.36</ele>
        <time>2019-05-30T15:21:52Z</time>
      </trkpt>
      <trkpt lat="45.46402" lon="4.73562">
        <ele>285.5</ele>
        <time>2019-05-30T15:21:55Z</time>
      </trkpt>
      <trkpt lat="45.46399" lon="4.73597">
        <ele>283.7</ele>
        <time>2019-05-30T15:21:58Z</time>
      </trkpt>
      <trkpt lat="45.46398" lon="4.73625">
        <ele>282.07</ele>
        <time>2019-05-30T15:22:00Z</time>
      </trkpt>
      <trkpt lat="45.46397" lon="4.73653">
        <ele>280.41</ele>
        <time>2019-05-30T15:22:02Z</time>
      </trkpt>
      <trkpt lat="45.46396" lon="4.73683">
        <ele>278.93</ele>
        <time>2019-05-30T15:22:04Z</time>
      </trkpt>
      <trkpt lat="45.46392" lon="4.73714">
        <ele>277.57</ele>
        <time>2019-05-30T15:22:06Z</time>
      </trkpt>
      <trkpt lat="45.46389" lon="4.73742">
        <ele>276.14</ele>
        <time>2019-05-30T15:22:08Z</time>
      </trkpt>
      <trkpt lat="45.46387" lon="4.73771">
        <ele>274.94</ele>
        <time>2019-05-30T15:22:10Z</time>
      </trkpt>
      <trkpt lat="45.46387" lon="4.73803">
        <ele>273.32</ele>
        <time>2019-05-30T15:22:12Z</time>
      </trkpt>
      <trkpt lat="45.46388" lon="4.73833">
        <ele>271.74</ele>
        <time>2019-05-30T15:22:14Z</time>
      </trkpt>
      <trkpt lat="45.46387" lon="4.73862">
        <ele>270.43</ele>
        <time>2019-05-30T15:22:16Z</time>
      </trkpt>
      <trkpt lat="45.46387" lon="4.73889">
        <ele>269.55</ele>
        <time>2019-05-30T15:22:18Z</time>
      </trkpt>
      <trkpt lat="45.46381" lon="4.73918">
        <ele>268.64</ele>
        <time>2019-05-30T15:22:20Z</time>
      </trkpt>
      <trkpt lat="45.46374" lon="4.73947">
        <ele>267.66</ele>
        <time>2019-05-30T15:22:22Z</time>
      </trkpt>
      <trkpt lat="45.46365" lon="4.73973">
        <ele>266.49</ele>
        <time>2019-05-30T15:22:24Z</time>
      </trkpt>
      <trkpt lat="45.46356" lon="4.74">
        <ele>265.21</ele>
        <time>2019-05-30T15:22:26Z</time>
      </trkpt>
      <trkpt lat="45.46347" lon="4.74028">
        <ele>264.45</ele>
        <time>2019-05-30T15:22:28Z</time>
      </trkpt>
      <trkpt lat="45.46342" lon="4.74056">
        <ele>263.43</ele>
        <time>2019-05-30T15:22:30Z</time>
      </trkpt>
      <trkpt lat="45.46338" lon="4.74085">
        <ele>262.41</ele>
        <time>2019-05-30T15:22:32Z</time>
      </trkpt>
      <trkpt lat="45.46333" lon="4.74114">
        <ele>261.59</ele>
        <time>2019-05-30T15:22:34Z</time>
      </trkpt>
      <trkpt lat="45.46328" lon="4.74142">
        <ele>260.82</ele>
        <time>2019-05-30T15:22:36Z</time>
      </trkpt>
      <trkpt lat="45.46319" lon="4.74171">
        <ele>260.01</ele>
        <time>2019-05-30T15:22:38Z</time>
      </trkpt>
      <trkpt lat="45.46307" lon="4.74196">
        <ele>259.03</ele>
        <time>2019-05-30T15:22:40Z</time>
      </trkpt>
      <trkpt lat="45.46294" lon="4.74217">
        <ele>258.09</ele>
        <time>2019-05-30T15:22:42Z</time>
      </trkpt>
      <trkpt lat="45.46282" lon="4.74239">
        <ele>256.95</ele>
        <time>2019-05-30T15:22:44Z</time>
      </trkpt>
      <trkpt lat="45.46269" lon="4.7426">
        <ele>255.68</ele>
        <time>2019-05-30T15:22:46Z</time>
      </trkpt>
      <trkpt lat="45.46258" lon="4.74285">
        <ele>254.46</ele>
        <time>2019-05-30T15:22:48Z</time>
      </trkpt>
      <trkpt lat="45.4625" lon="4.74312">
        <ele>253.56</ele>
        <time>2019-05-30T15:22:50Z</time>
      </trkpt>
      <trkpt lat="45.46248" lon="4.74339">
        <ele>252.85</ele>
        <time>2019-05-30T15:22:52Z</time>
      </trkpt>
      <trkpt lat="45.46249" lon="4.74367">
        <ele>252.65</ele>
        <time>2019-05-30T15:22:54Z</time>
      </trkpt>
      <trkpt lat="45.4625" lon="4.74393">
        <ele>252.16</ele>
        <time>2019-05-30T15:22:56Z</time>
      </trkpt>
      <trkpt lat="45.46254" lon="4.74431">
        <ele>251.11</ele>
        <time>2019-05-30T15:22:59Z</time>
      </trkpt>
      <trkpt lat="45.4626" lon="4.74461">
        <ele>250.31</ele>
        <time>2019-05-30T15:23:02Z</time>
      </trkpt>
      <trkpt lat="45.46268" lon="4.74491">
        <ele>250.79</ele>
        <time>2019-05-30T15:23:05Z</time>
      </trkpt>
      <trkpt lat="45.46273" lon="4.74519">
        <ele>251.45</ele>
        <time>2019-05-30T15:23:08Z</time>
      </trkpt>
      <trkpt lat="45.46278" lon="4.74551">
        <ele>249.91</ele>
        <time>2019-05-30T15:23:11Z</time>
      </trkpt>
      <trkpt lat="45.46276" lon="4.74588">
        <ele>248.72</ele>
        <time>2019-05-30T15:23:14Z</time>
      </trkpt>
      <trkpt lat="45.46272" lon="4.74625">
        <ele>248.25</ele>
        <time>2019-05-30T15:23:17Z</time>
      </trkpt>
      <trkpt lat="45.46267" lon="4.74658">
        <ele>247.15</ele>
        <time>2019-05-30T15:23:20Z</time>
      </trkpt>
      <trkpt lat="45.46264" lon="4.74691">
        <ele>246.54</ele>
        <time>2019-05-30T15:23:23Z</time>
      </trkpt>
      <trkpt lat="45.46258" lon="4.74721">
        <ele>246.22</ele>
        <time>2019-05-30T15:23:26Z</time>
      </trkpt>
      <trkpt lat="45.46253" lon="4.74753">
        <ele>246.45</ele>
        <time>2019-05-30T15:23:29Z</time>
      </trkpt>
      <trkpt lat="45.46249" lon="4.74778">
        <ele>245.6</ele>
        <time>2019-05-30T15:23:32Z</time>
      </trkpt>
      <trkpt lat="45.46246" lon="4.74806">
        <ele>245.18</ele>
        <time>2019-05-30T15:23:35Z</time>
      </trkpt>
      <trkpt lat="45.46245" lon="4.74833">
        <ele>245.08</ele>
        <time>2019-05-30T15:23:38Z</time>
      </trkpt>
      <trkpt lat="45.46241" lon="4.74866">
        <ele>244.75</ele>
        <time>2019-05-30T15:23:42Z</time>
      </trkpt>
      <trkpt lat="45.46234" lon="4.74894">
        <ele>244.04</ele>
        <time>2019-05-30T15:23:45Z</time>
      </trkpt>
      <trkpt lat="45.46227" lon="4.74923">
        <ele>242.12</ele>
        <time>2019-05-30T15:23:48Z</time>
      </trkpt>
      <trkpt lat="45.46217" lon="4.7495">
        <ele>240.08</ele>
        <time>2019-05-30T15:23:51Z</time>
      </trkpt>
      <trkpt lat="45.46207" lon="4.74973">
        <ele>238.05</ele>
        <time>2019-05-30T15:23:53Z</time>
      </trkpt>
      <trkpt lat="45.46193" lon="4.75">
        <ele>233.82</ele>
        <time>2019-05-30T15:23:56Z</time>
      </trkpt>
      <trkpt lat="45.46177" lon="4.7502">
        <ele>231.1</ele>
        <time>2019-05-30T15:23:59Z</time>
      </trkpt>
      <trkpt lat="45.46156" lon="4.75044">
        <ele>227.91</ele>
        <time>2019-05-30T15:24:02Z</time>
      </trkpt>
      <trkpt lat="45.46137" lon="4.75063">
        <ele>224.52</ele>
        <time>2019-05-30T15:24:05Z</time>
      </trkpt>
      <trkpt lat="45.4612" lon="4.75076">
        <ele>217.77</ele>
        <time>2019-05-30T15:24:11Z</time>
      </trkpt>
      <trkpt lat="45.46105" lon="4.75057">
        <ele>217.03</ele>
        <time>2019-05-30T15:24:17Z</time>
      </trkpt>
      <trkpt lat="45.4612" lon="4.75072">
        <ele>217.22</ele>
        <time>2019-05-30T15:26:02Z</time>
      </trkpt>
      <trkpt lat="45.46128" lon="4.75103">
        <ele>217.61</ele>
        <time>2019-05-30T15:26:08Z</time>
      </trkpt>
      <trkpt lat="45.46132" lon="4.7513">
        <ele>216.62</ele>
        <time>2019-05-30T15:26:11Z</time>
      </trkpt>
      <trkpt lat="45.46136" lon="4.75163">
        <ele>214.78</ele>
        <time>2019-05-30T15:26:14Z</time>
      </trkpt>
      <trkpt lat="45.46132" lon="4.75196">
        <ele>212.61</ele>
        <time>2019-05-30T15:26:18Z</time>
      </trkpt>
      <trkpt lat="45.46133" lon="4.75224">
        <ele>209.99</ele>
        <time>2019-05-30T15:26:21Z</time>
      </trkpt>
      <trkpt lat="45.46125" lon="4.75249">
        <ele>203.92</ele>
        <time>2019-05-30T15:26:24Z</time>
      </trkpt>
      <trkpt lat="45.46113" lon="4.75274">
        <ele>199.82</ele>
        <time>2019-05-30T15:26:27Z</time>
      </trkpt>
      <trkpt lat="45.46109" lon="4.75303">
        <ele>197.11</ele>
        <time>2019-05-30T15:26:30Z</time>
      </trkpt>
      <trkpt lat="45.46105" lon="4.75333">
        <ele>193.22</ele>
        <time>2019-05-30T15:26:34Z</time>
      </trkpt>
      <trkpt lat="45.46094" lon="4.75357">
        <ele>188.19</ele>
        <time>2019-05-30T15:26:38Z</time>
      </trkpt>
      <trkpt lat="45.46079" lon="4.75381">
        <ele>186.34</ele>
        <time>2019-05-30T15:26:42Z</time>
      </trkpt>
      <trkpt lat="45.46067" lon="4.75402">
        <ele>182.84</ele>
        <time>2019-05-30T15:26:45Z</time>
      </trkpt>
      <trkpt lat="45.46056" lon="4.75428">
        <ele>179.53</ele>
        <time>2019-05-30T15:26:48Z</time>
      </trkpt>
      <trkpt lat="45.46046" lon="4.75454">
        <ele>176.99</ele>
        <time>2019-05-30T15:26:51Z</time>
      </trkpt>
      <trkpt lat="45.46039" lon="4.75484">
        <ele>172.88</ele>
        <time>2019-05-30T15:26:56Z</time>
      </trkpt>
      <trkpt lat="45.46039" lon="4.75517">
        <ele>170.25</ele>
        <time>2019-05-30T15:27:00Z</time>
      </trkpt>
      <trkpt lat="45.46035" lon="4.75546">
        <ele>166.33</ele>
        <time>2019-05-30T15:27:05Z</time>
      </trkpt>
      <trkpt lat="45.46032" lon="4.75576">
        <ele>168.17</ele>
        <time>2019-05-30T15:27:56Z</time>
      </trkpt>
      <trkpt lat="45.4603" lon="4.75603">
        <ele>167.57</ele>
        <time>2019-05-30T15:28:00Z</time>
      </trkpt>
      <trkpt lat="45.46023" lon="4.7563">
        <ele>159.54</ele>
        <time>2019-05-30T15:28:05Z</time>
      </trkpt>
      <trkpt lat="45.46016" lon="4.75654">
        <ele>159.45</ele>
        <time>2019-05-30T15:28:14Z</time>
      </trkpt>
      <trkpt lat="45.46011" lon="4.75681">
        <ele>162.92</ele>
        <time>2019-05-30T15:28:24Z</time>
      </trkpt>
      <trkpt lat="45.45996" lon="4.75699">
        <ele>161.94</ele>
        <time>2019-05-30T15:28:31Z</time>
      </trkpt>
      <trkpt lat="45.45979" lon="4.75689">
        <ele>160</ele>
        <time>2019-05-30T15:28:35Z</time>
      </trkpt>
      <trkpt lat="45.45962" lon="4.7568">
        <ele>156.43</ele>
        <time>2019-05-30T15:28:41Z</time>
      </trkpt>
      <trkpt lat="45.45945" lon="4.75669">
        <ele>154.02</ele>
        <time>2019-05-30T15:28:45Z</time>
      </trkpt>
      <trkpt lat="45.45926" lon="4.75658">
        <ele>150.39</ele>
        <time>2019-05-30T15:28:48Z</time>
      </trkpt>
      <trkpt lat="45.45908" lon="4.75635">
        <ele>146.82</ele>
        <time>2019-05-30T15:28:51Z</time>
      </trkpt>
      <trkpt lat="45.45901" lon="4.75607">
        <ele>144.35</ele>
        <time>2019-05-30T15:28:54Z</time>
      </trkpt>
      <trkpt lat="45.45903" lon="4.75577">
        <ele>143.52</ele>
        <time>2019-05-30T15:28:57Z</time>
      </trkpt>
      <trkpt lat="45.4591" lon="4.75547">
        <ele>143.07</ele>
        <time>2019-05-30T15:29:00Z</time>
      </trkpt>
      <trkpt lat="45.45919" lon="4.75523">
        <ele>142.19</ele>
        <time>2019-05-30T15:29:03Z</time>
      </trkpt>
      <trkpt lat="45.45927" lon="4.75492">
        <ele>140.46</ele>
        <time>2019-05-30T15:29:06Z</time>
      </trkpt>
      <trkpt lat="45.4593" lon="4.75465">
        <ele>138.35</ele>
        <time>2019-05-30T15:29:08Z</time>
      </trkpt>
      <trkpt lat="45.45927" lon="4.75438">
        <ele>135.6</ele>
        <time>2019-05-30T15:29:10Z</time>
      </trkpt>
      <trkpt lat="45.45924" lon="4.75409">
        <ele>132.95</ele>
        <time>2019-05-30T15:29:12Z</time>
      </trkpt>
      <trkpt lat="45.45929" lon="4.75376">
        <ele>131.81</ele>
        <time>2019-05-30T15:29:15Z</time>
      </trkpt>
      <trkpt lat="45.45943" lon="4.7535">
        <ele>132.39</ele>
        <time>2019-05-30T15:29:19Z</time>
      </trkpt>
      <trkpt lat="45.45955" lon="4.75329">
        <ele>132</ele>
        <time>2019-05-30T15:29:22Z</time>
      </trkpt>
      <trkpt lat="45.45964" lon="4.75306">
        <ele>131.3</ele>
        <time>2019-05-30T15:29:25Z</time>
      </trkpt>
      <trkpt lat="45.45969" lon="4.75281">
        <ele>131.12</ele>
        <time>2019-05-30T15:29:28Z</time>
      </trkpt>
      <trkpt lat="45.45976" lon="4.75252">
        <ele>129.37</ele>
        <time>2019-05-30T15:29:31Z</time>
      </trkpt>
      <trkpt lat="45.45967" lon="4.75223">
        <ele>127.01</ele>
        <time>2019-05-30T15:29:35Z</time>
      </trkpt>
      <trkpt lat="45.45951" lon="4.75239">
        <ele>125.99</ele>
        <time>2019-05-30T15:29:39Z</time>
      </trkpt>
      <trkpt lat="45.45931" lon="4.75244">
        <ele>123.15</ele>
        <time>2019-05-30T15:29:43Z</time>
      </trkpt>
      <trkpt lat="45.45915" lon="4.75264">
        <ele>120.72</ele>
        <time>2019-05-30T15:29:46Z</time>
      </trkpt>
      <trkpt lat="45.45898" lon="4.75278">
        <ele>118.33</ele>
        <time>2019-05-30T15:29:50Z</time>
      </trkpt>
      <trkpt lat="45.45878" lon="4.75295">
        <ele>116.04</ele>
        <time>2019-05-30T15:29:54Z</time>
      </trkpt>
      <trkpt lat="45.45858" lon="4.75311">
        <ele>114.59</ele>
        <time>2019-05-30T15:29:57Z</time>
      </trkpt>
      <trkpt lat="45.45836" lon="4.75328">
        <ele>113</ele>
        <time>2019-05-30T15:30:00Z</time>
      </trkpt>
      <trkpt lat="45.45819" lon="4.75338">
        <ele>111.36</ele>
        <time>2019-05-30T15:30:02Z</time>
      </trkpt>
      <trkpt lat="45.458" lon="4.75343">
        <ele>109.61</ele>
        <time>2019-05-30T15:30:04Z</time>
      </trkpt>
      <trkpt lat="45.4578" lon="4.75348">
        <ele>107.88</ele>
        <time>2019-05-30T15:30:06Z</time>
      </trkpt>
      <trkpt lat="45.4576" lon="4.75358">
        <ele>106.29</ele>
        <time>2019-05-30T15:30:08Z</time>
      </trkpt>
      <trkpt lat="45.45738" lon="4.75361">
        <ele>104.48</ele>
        <time>2019-05-30T15:30:10Z</time>
      </trkpt>
      <trkpt lat="45.45714" lon="4.75355">
        <ele>102.15</ele>
        <time>2019-05-30T15:30:12Z</time>
      </trkpt>
      <trkpt lat="45.45689" lon="4.75348">
        <ele>100.05</ele>
        <time>2019-05-30T15:30:14Z</time>
      </trkpt>
      <trkpt lat="45.45668" lon="4.7534">
        <ele>97.98</ele>
        <time>2019-05-30T15:30:16Z</time>
      </trkpt>
      <trkpt lat="45.45647" lon="4.75352">
        <ele>95.67</ele>
        <time>2019-05-30T15:30:19Z</time>
      </trkpt>
      <trkpt lat="45.45655" lon="4.75378">
        <ele>93.66</ele>
        <time>2019-05-30T15:30:22Z</time>
      </trkpt>
      <trkpt lat="45.45677" lon="4.75386">
        <ele>92.32</ele>
        <time>2019-05-30T15:30:25Z</time>
      </trkpt>
      <trkpt lat="45.45689" lon="4.7541">
        <ele>90.52</ele>
        <time>2019-05-30T15:30:29Z</time>
      </trkpt>
      <trkpt lat="45.45676" lon="4.75436">
        <ele>88.43</ele>
        <time>2019-05-30T15:30:33Z</time>
      </trkpt>
      <trkpt lat="45.4566" lon="4.75458">
        <ele>88.49</ele>
        <time>2019-05-30T15:30:37Z</time>
      </trkpt>
      <trkpt lat="45.45641" lon="4.75472">
        <ele>88.22</ele>
        <time>2019-05-30T15:30:42Z</time>
      </trkpt>
      <trkpt lat="45.45626" lon="4.75491">
        <ele>87.83</ele>
        <time>2019-05-30T15:30:58Z</time>
      </trkpt>
      <trkpt lat="45.45607" lon="4.75493">
        <ele>87.35</ele>
        <time>2019-05-30T15:31:04Z</time>
      </trkpt>
      <trkpt lat="45.45592" lon="4.75509">
        <ele>87.1</ele>
        <time>2019-05-30T15:31:11Z</time>
      </trkpt>
      <trkpt lat="45.45573" lon="4.75503">
        <ele>86.76</ele>
        <time>2019-05-30T15:31:19Z</time>
      </trkpt>
      <trkpt lat="45.4556" lon="4.75485">
        <ele>87.05</ele>
        <time>2019-05-30T15:31:28Z</time>
      </trkpt>
      <trkpt lat="45.45545" lon="4.75468">
        <ele>87.03</ele>
        <time>2019-05-30T15:31:36Z</time>
      </trkpt>
      <trkpt lat="45.4556" lon="4.75485">
        <ele>86.89</ele>
        <time>2019-05-30T15:31:56Z</time>
      </trkpt>
      <trkpt lat="45.45575" lon="4.75504">
        <ele>87.01</ele>
        <time>2019-05-30T15:32:01Z</time>
      </trkpt>
      <trkpt lat="45.45587" lon="4.75524">
        <ele>86.98</ele>
        <time>2019-05-30T15:32:06Z</time>
      </trkpt>
      <trkpt lat="45.456" lon="4.7555">
        <ele>87.16</ele>
        <time>2019-05-30T15:32:11Z</time>
      </trkpt>
      <trkpt lat="45.45609" lon="4.75575">
        <ele>86.84</ele>
        <time>2019-05-30T15:32:16Z</time>
      </trkpt>
      <trkpt lat="45.45618" lon="4.756">
        <ele>86.76</ele>
        <time>2019-05-30T15:32:21Z</time>
      </trkpt>
      <trkpt lat="45.45627" lon="4.75627">
        <ele>87.21</ele>
        <time>2019-05-30T15:32:27Z</time>
      </trkpt>
      <trkpt lat="45.45637" lon="4.7565">
        <ele>87.58</ele>
        <time>2019-05-30T15:32:35Z</time>
      </trkpt>
      <trkpt lat="45.45647" lon="4.75672">
        <ele>87.2</ele>
        <time>2019-05-30T15:32:43Z</time>
      </trkpt>
      <trkpt lat="45.45656" lon="4.75696">
        <ele>86.36</ele>
        <time>2019-05-30T15:32:49Z</time>
      </trkpt>
      <trkpt lat="45.45664" lon="4.75721">
        <ele>85.65</ele>
        <time>2019-05-30T15:32:55Z</time>
      </trkpt>
      <trkpt lat="45.45674" lon="4.75744">
        <ele>85.42</ele>
        <time>2019-05-30T15:33:01Z</time>
      </trkpt>
      <trkpt lat="45.4568" lon="4.75769">
        <ele>85.64</ele>
        <time>2019-05-30T15:33:07Z</time>
      </trkpt>
      <trkpt lat="45.45686" lon="4.75799">
        <ele>85.75</ele>
        <time>2019-05-30T15:33:13Z</time>
      </trkpt>
      <trkpt lat="45.45692" lon="4.75823">
        <ele>85.9</ele>
        <time>2019-05-30T15:33:18Z</time>
      </trkpt>
      <trkpt lat="45.45695" lon="4.75851">
        <ele>85.74</ele>
        <time>2019-05-30T15:33:23Z</time>
      </trkpt>
      <trkpt lat="45.45701" lon="4.75879">
        <ele>85.86</ele>
        <time>2019-05-30T15:33:28Z</time>
      </trkpt>
      <trkpt lat="45.45709" lon="4.75907">
        <ele>85.71</ele>
        <time>2019-05-30T15:33:33Z</time>
      </trkpt>
      <trkpt lat="45.45714" lon="4.75935">
        <ele>86.15</ele>
        <time>2019-05-30T15:33:39Z</time>
      </trkpt>
      <trkpt lat="45.4572" lon="4.75965">
        <ele>86.22</ele>
        <time>2019-05-30T15:33:45Z</time>
      </trkpt>
      <trkpt lat="45.45738" lon="4.7598">
        <ele>86.12</ele>
        <time>2019-05-30T15:33:52Z</time>
      </trkpt>
      <trkpt lat="45.45757" lon="4.75987">
        <ele>86.42</ele>
        <time>2019-05-30T15:34:00Z</time>
      </trkpt>
      <trkpt lat="45.45776" lon="4.75987">
        <ele>86.95</ele>
        <time>2019-05-30T15:34:06Z</time>
      </trkpt>
      <trkpt lat="45.45797" lon="4.75986">
        <ele>87.48</ele>
        <time>2019-05-30T15:34:14Z</time>
      </trkpt>
      <trkpt lat="45.45817" lon="4.75987">
        <ele>87.43</ele>
        <time>2019-05-30T15:34:20Z</time>
      </trkpt>
      <trkpt lat="45.45836" lon="4.75997">
        <ele>88.1</ele>
        <time>2019-05-30T15:34:27Z</time>
      </trkpt>
      <trkpt lat="45.45849" lon="4.76017">
        <ele>87.99</ele>
        <time>2019-05-30T15:34:32Z</time>
      </trkpt>
      <trkpt lat="45.4586" lon="4.76043">
        <ele>87.98</ele>
        <time>2019-05-30T15:34:37Z</time>
      </trkpt>
      <trkpt lat="45.45871" lon="4.76067">
        <ele>87.86</ele>
        <time>2019-05-30T15:34:42Z</time>
      </trkpt>
      <trkpt lat="45.45867" lon="4.76096">
        <ele>87.84</ele>
        <time>2019-05-30T15:34:50Z</time>
      </trkpt>
      <trkpt lat="45.45852" lon="4.76119">
        <ele>87.43</ele>
        <time>2019-05-30T15:34:55Z</time>
      </trkpt>
      <trkpt lat="45.45838" lon="4.7614">
        <ele>87.03</ele>
        <time>2019-05-30T15:34:59Z</time>
      </trkpt>
      <trkpt lat="45.45825" lon="4.76158">
        <ele>86.99</ele>
        <time>2019-05-30T15:35:03Z</time>
      </trkpt>
      <trkpt lat="45.45817" lon="4.76182">
        <ele>86.84</ele>
        <time>2019-05-30T15:35:08Z</time>
      </trkpt>
      <trkpt lat="45.45818" lon="4.7621">
        <ele>87.36</ele>
        <time>2019-05-30T15:35:31Z</time>
      </trkpt>
      <trkpt lat="45.45819" lon="4.76236">
        <ele>87.13</ele>
        <time>2019-05-30T15:35:38Z</time>
      </trkpt>
      <trkpt lat="45.45818" lon="4.76265">
        <ele>87.47</ele>
        <time>2019-05-30T15:35:46Z</time>
      </trkpt>
      <trkpt lat="45.45819" lon="4.76291">
        <ele>87.19</ele>
        <time>2019-05-30T15:35:52Z</time>
      </trkpt>
      <trkpt lat="45.45821" lon="4.76318">
        <ele>87.11</ele>
        <time>2019-05-30T15:35:59Z</time>
      </trkpt>
      <trkpt lat="45.45813" lon="4.76342">
        <ele>86.68</ele>
        <time>2019-05-30T15:36:09Z</time>
      </trkpt>
      <trkpt lat="45.45815" lon="4.7637">
        <ele>86.58</ele>
        <time>2019-05-30T15:36:15Z</time>
      </trkpt>
      <trkpt lat="45.45817" lon="4.76399">
        <ele>86.43</ele>
        <time>2019-05-30T15:36:21Z</time>
      </trkpt>
      <trkpt lat="45.45821" lon="4.76424">
        <ele>86.6</ele>
        <time>2019-05-30T15:36:26Z</time>
      </trkpt>
      <trkpt lat="45.45823" lon="4.76453">
        <ele>86.53</ele>
        <time>2019-05-30T15:36:32Z</time>
      </trkpt>
      <trkpt lat="45.45826" lon="4.76479">
        <ele>86.92</ele>
        <time>2019-05-30T15:36:38Z</time>
      </trkpt>
      <trkpt lat="45.45828" lon="4.76507">
        <ele>87.26</ele>
        <time>2019-05-30T15:36:44Z</time>
      </trkpt>
      <trkpt lat="45.45828" lon="4.76533">
        <ele>87.03</ele>
        <time>2019-05-30T15:36:49Z</time>
      </trkpt>
      <trkpt lat="45.45822" lon="4.76557">
        <ele>86.38</ele>
        <time>2019-05-30T15:36:54Z</time>
      </trkpt>
      <trkpt lat="45.45817" lon="4.76584">
        <ele>86.65</ele>
        <time>2019-05-30T15:37:00Z</time>
      </trkpt>
      <trkpt lat="45.45812" lon="4.76612">
        <ele>86.46</ele>
        <time>2019-05-30T15:37:06Z</time>
      </trkpt>
      <trkpt lat="45.45809" lon="4.7664">
        <ele>86.66</ele>
        <time>2019-05-30T15:37:12Z</time>
      </trkpt>
      <trkpt lat="45.45803" lon="4.76669">
        <ele>86.65</ele>
        <time>2019-05-30T15:37:18Z</time>
      </trkpt>
      <trkpt lat="45.45801" lon="4.76698">
        <ele>86.84</ele>
        <time>2019-05-30T15:37:25Z</time>
      </trkpt>
      <trkpt lat="45.45797" lon="4.76723">
        <ele>86.95</ele>
        <time>2019-05-30T15:37:31Z</time>
      </trkpt>
      <trkpt lat="45.45792" lon="4.76749">
        <ele>87.39</ele>
        <time>2019-05-30T15:37:37Z</time>
      </trkpt>
      <trkpt lat="45.45787" lon="4.76775">
        <ele>87.59</ele>
        <time>2019-05-30T15:37:43Z</time>
      </trkpt>
      <trkpt lat="45.45783" lon="4.76802">
        <ele>87.24</ele>
        <time>2019-05-30T15:37:50Z</time>
      </trkpt>
      <trkpt lat="45.4578" lon="4.76828">
        <ele>87.4</ele>
        <time>2019-05-30T15:37:57Z</time>
      </trkpt>
      <trkpt lat="45.45786" lon="4.76854">
        <ele>87.61</ele>
        <time>2019-05-30T15:38:05Z</time>
      </trkpt>
      <trkpt lat="45.45789" lon="4.7688">
        <ele>87.73</ele>
        <time>2019-05-30T15:38:12Z</time>
      </trkpt>
      <trkpt lat="45.45789" lon="4.76906">
        <ele>87.44</ele>
        <time>2019-05-30T15:38:17Z</time>
      </trkpt>
      <trkpt lat="45.4579" lon="4.76933">
        <ele>87.26</ele>
        <time>2019-05-30T15:38:22Z</time>
      </trkpt>
      <trkpt lat="45.45808" lon="4.76947">
        <ele>87.29</ele>
        <time>2019-05-30T15:38:28Z</time>
      </trkpt>
      <trkpt lat="45.45828" lon="4.76948">
        <ele>88.29</ele>
        <time>2019-05-30T15:38:35Z</time>
      </trkpt>
      <trkpt lat="45.45848" lon="4.76946">
        <ele>88.34</ele>
        <time>2019-05-30T15:38:41Z</time>
      </trkpt>
      <trkpt lat="45.45867" lon="4.76951">
        <ele>88.53</ele>
        <time>2019-05-30T15:38:47Z</time>
      </trkpt>
      <trkpt lat="45.45886" lon="4.76944">
        <ele>88.34</ele>
        <time>2019-05-30T15:38:53Z</time>
      </trkpt>
      <trkpt lat="45.45904" lon="4.76935">
        <ele>88.34</ele>
        <time>2019-05-30T15:38:58Z</time>
      </trkpt>
      <trkpt lat="45.45923" lon="4.76927">
        <ele>88.47</ele>
        <time>2019-05-30T15:39:03Z</time>
      </trkpt>
      <trkpt lat="45.45945" lon="4.76924">
        <ele>88.54</ele>
        <time>2019-05-30T15:39:08Z</time>
      </trkpt>
      <trkpt lat="45.45964" lon="4.7692">
        <ele>88.38</ele>
        <time>2019-05-30T15:39:13Z</time>
      </trkpt>
      <trkpt lat="45.45982" lon="4.76917">
        <ele>88.91</ele>
        <time>2019-05-30T15:39:19Z</time>
      </trkpt>
      <trkpt lat="45.46001" lon="4.76927">
        <ele>89.36</ele>
        <time>2019-05-30T15:39:25Z</time>
      </trkpt>
      <trkpt lat="45.46018" lon="4.76918">
        <ele>89.85</ele>
        <time>2019-05-30T15:39:31Z</time>
      </trkpt>
      <trkpt lat="45.46037" lon="4.76903">
        <ele>89.65</ele>
        <time>2019-05-30T15:39:37Z</time>
      </trkpt>
      <trkpt lat="45.46056" lon="4.76893">
        <ele>89.49</ele>
        <time>2019-05-30T15:39:41Z</time>
      </trkpt>
      <trkpt lat="45.46074" lon="4.76883">
        <ele>89.03</ele>
        <time>2019-05-30T15:39:45Z</time>
      </trkpt>
      <trkpt lat="45.46092" lon="4.76871">
        <ele>89.14</ele>
        <time>2019-05-30T15:39:49Z</time>
      </trkpt>
      <trkpt lat="45.46109" lon="4.76861">
        <ele>89.56</ele>
        <time>2019-05-30T15:39:53Z</time>
      </trkpt>
      <trkpt lat="45.46128" lon="4.76852">
        <ele>89.99</ele>
        <time>2019-05-30T15:39:58Z</time>
      </trkpt>
      <trkpt lat="45.46146" lon="4.76842">
        <ele>90.7</ele>
        <time>2019-05-30T15:40:03Z</time>
      </trkpt>
      <trkpt lat="45.4616" lon="4.76826">
        <ele>90.9</ele>
        <time>2019-05-30T15:40:16Z</time>
      </trkpt>
      <trkpt lat="45.46173" lon="4.76806">
        <ele>91.67</ele>
        <time>2019-05-30T15:40:53Z</time>
      </trkpt>
      <trkpt lat="45.4619" lon="4.76785">
        <ele>91.98</ele>
        <time>2019-05-30T15:40:58Z</time>
      </trkpt>
      <trkpt lat="45.46204" lon="4.76765">
        <ele>92.2</ele>
        <time>2019-05-30T15:41:03Z</time>
      </trkpt>
      <trkpt lat="45.46216" lon="4.76745">
        <ele>92.53</ele>
        <time>2019-05-30T15:41:08Z</time>
      </trkpt>
      <trkpt lat="45.4623" lon="4.76727">
        <ele>93.08</ele>
        <time>2019-05-30T15:41:13Z</time>
      </trkpt>
      <trkpt lat="45.46244" lon="4.76705">
        <ele>93.62</ele>
        <time>2019-05-30T15:41:19Z</time>
      </trkpt>
      <trkpt lat="45.4626" lon="4.76688">
        <ele>94.37</ele>
        <time>2019-05-30T15:41:25Z</time>
      </trkpt>
      <trkpt lat="45.46279" lon="4.76682">
        <ele>94.71</ele>
        <time>2019-05-30T15:41:30Z</time>
      </trkpt>
      <trkpt lat="45.46299" lon="4.76668">
        <ele>94.96</ele>
        <time>2019-05-30T15:41:35Z</time>
      </trkpt>
      <trkpt lat="45.46299" lon="4.76641">
        <ele>95.91</ele>
        <time>2019-05-30T15:41:43Z</time>
      </trkpt>
      <trkpt lat="45.46311" lon="4.76619">
        <ele>96.77</ele>
        <time>2019-05-30T15:41:48Z</time>
      </trkpt>
      <trkpt lat="45.46325" lon="4.76597">
        <ele>97.9</ele>
        <time>2019-05-30T15:41:54Z</time>
      </trkpt>
      <trkpt lat="45.46338" lon="4.76579">
        <ele>98.28</ele>
        <time>2019-05-30T15:42:03Z</time>
      </trkpt>
    </trkseg>
  </trk>
</gpx>